[[{"header":{"parameterUnit":"m.s-1","parameterCategory":1,"la1":30.6,"la2":29.2853,"lo1":-89.7004,"lo2":-87.6739,"dy":0.0162,"dx":0.0183,"nx":112,"ny":82,"refTime":"2024-03-20T00:00:00:Z","depth":0,"parameterNumber":2,"parameterNumberName":"U-component_of_WINDS"},"data":[0.0,0.0,0.0,0.0,0.0,0.0,0.0,0.0,0.0,0.0,0.0,0.0,0.0,0.0,0.0,0.0,0.0,0.0,0.0,0.0,0.0,0.0,0.0,0.0,0.0,0.0,0.0,0.0,0.0,0.0,0.0,0.0,0.0,0.0,0.0,0.0,0.0,0.0,0.0,0.0,0.0,0.0,0.0,0.0,0.0,0.0,0.0,0.0,0.0,0.0,0.0,0.0,0.0,0.0,0.0,0.0,0.0,0.0,0.0,0.0,0.0,0.0,0.0,0.0,0.0,0.0,0.0,0.0,0.0,0.0,0.0,0.0,0.0,0.0,0.0,0.0,0.0,0.0,0.0,0.0,0.0,0.0,0.0,0.0,0.0,0.0,0.0,0.0,0.0,0.0,-4.172,-4.4056,-4.8476,-5.138,-5.1761,-4.9653,-4.5557,-3.9117,0.0,0.0,0.0,0.0,0.0,0.0,0.0,0.0,0.0,0.0,0.0,0.0,0.0,0.0,0.0,0.0,0.0,0.0,0.0,0.0,0.0,0.0,0.0,0.0,0.0,0.0,0.0,0.0,0.0,0.0,0.0,0.0,0.0,0.0,0.0,0.0,0.0,0.0,0.0,0.0,0.0,0.0,0.0,0.0,0.0,0.0,0.0,0.0,0.0,0.0,0.0,0.0,0.0,0.0,0.0,0.0,0.0,0.0,0.0,0.0,0.0,0.0,0.0,0.0,0.0,0.0,0.0,0.0,0.0,0.0,0.0,0.0,0.0,0.0,0.0,0.0,0.0,0.0,0.0,0.0,0.0,0.0,0.0,0.0,0.0,0.0,0.0,0.0,0.0,0.0,0.0,0.0,0.0,0.0,0.0,0.0,0.0,0.0,0.0,0.0,0.0,0.0,0.0,0.0,-4.0155,-4.6408,-4.9057,-5.0545,-5.0952,-4.8325,-4.4403,-3.9045,0.0,0.0,0.0,0.0,0.0,0.0,0.0,0.0,0.0,0.0,0.0,0.0,0.0,0.0,0.0,0.0,0.0,0.0,0.0,0.0,0.0,0.0,0.0,0.0,0.0,0.0,0.0,0.0,0.0,0.0,0.0,0.0,0.0,0.0,0.0,0.0,0.0,0.0,0.0,0.0,0.0,0.0,0.0,0.0,0.0,0.0,0.0,0.0,0.0,0.0,0.0,0.0,0.0,0.0,0.0,0.0,0.0,0.0,0.0,0.0,0.0,0.0,0.0,0.0,0.0,0.0,0.0,0.0,0.0,0.0,0.0,0.0,0.0,0.0,0.0,0.0,0.0,0.0,0.0,0.0,0.0,0.0,0.0,0.0,0.0,0.0,0.0,0.0,0.0,0.0,0.0,0.0,0.0,0.0,0.0,0.0,0.0,0.0,0.0,0.0,0.0,0.0,0.0,-3.8375,-4.1436,-4.6462,-4.7506,-4.8016,-4.8316,-4.6008,-4.2335,-3.7291,-3.5665,0.0,0.0,0.0,0.0,0.0,0.0,0.0,0.0,0.0,0.0,0.0,0.0,0.0,0.0,0.0,0.0,0.0,0.0,0.0,0.0,0.0,0.0,0.0,0.0,0.0,0.0,0.0,0.0,0.0,0.0,0.0,0.0,0.0,0.0,0.0,0.0,0.0,0.0,0.0,0.0,0.0,0.0,0.0,0.0,0.0,0.0,0.0,0.0,0.0,0.0,0.0,0.0,0.0,0.0,0.0,0.0,0.0,0.0,0.0,0.0,0.0,0.0,0.0,0.0,0.0,0.0,0.0,0.0,0.0,0.0,0.0,0.0,0.0,0.0,0.0,0.0,0.0,0.0,0.0,0.0,0.0,0.0,0.0,0.0,0.0,0.0,0.0,0.0,0.0,0.0,0.0,0.0,0.0,0.0,0.0,0.0,0.0,0.0,0.0,0.0,0.0,0.0,-4.0262,-4.2728,-4.5667,-4.5661,-4.5603,-4.597,-4.3547,-4.0169,-3.5793,-3.3699,0.0,0.0,0.0,0.0,0.0,0.0,0.0,0.0,0.0,0.0,0.0,0.0,0.0,0.0,0.0,0.0,0.0,0.0,0.0,0.0,0.0,0.0,0.0,0.0,0.0,0.0,0.0,0.0,0.0,0.0,0.0,0.0,0.0,0.0,0.0,0.0,0.0,0.0,0.0,0.0,0.0,0.0,0.0,0.0,0.0,0.0,0.0,0.0,0.0,0.0,0.0,0.0,0.0,0.0,0.0,0.0,0.0,0.0,0.0,0.0,0.0,0.0,0.0,0.0,0.0,0.0,0.0,0.0,0.0,0.0,0.0,0.0,0.0,0.0,0.0,0.0,0.0,0.0,0.0,0.0,0.0,0.0,0.0,0.0,0.0,0.0,0.0,0.0,0.0,0.0,0.0,0.0,0.0,0.0,0.0,0.0,0.0,0.0,0.0,0.0,0.0,0.0,-3.8998,-4.2421,-4.4577,-4.4361,-4.4361,-4.5138,-4.1439,-3.8049,-3.5649,-3.2244,0.0,0.0,0.0,0.0,0.0,0.0,0.0,0.0,0.0,0.0,0.0,0.0,0.0,0.0,0.0,0.0,0.0,0.0,0.0,0.0,0.0,0.0,0.0,0.0,0.0,0.0,0.0,0.0,0.0,0.0,0.0,0.0,0.0,0.0,0.0,0.0,0.0,0.0,0.0,0.0,0.0,0.0,0.0,0.0,0.0,0.0,0.0,0.0,0.0,0.0,0.0,0.0,0.0,0.0,0.0,0.0,0.0,0.0,0.0,0.0,0.0,0.0,0.0,0.0,0.0,0.0,0.0,0.0,0.0,0.0,0.0,0.0,0.0,0.0,0.0,0.0,0.0,0.0,0.0,0.0,0.0,0.0,0.0,0.0,0.0,0.0,0.0,0.0,0.0,0.0,0.0,0.0,0.0,0.0,0.0,0.0,0.0,0.0,0.0,0.0,0.0,0.0,-3.7937,-4.1287,-4.325,-4.326,-4.2979,-4.2538,-4.0595,-3.7906,-3.4401,0.0,0.0,0.0,0.0,0.0,0.0,0.0,0.0,0.0,0.0,0.0,0.0,0.0,0.0,0.0,0.0,0.0,0.0,0.0,0.0,0.0,0.0,0.0,0.0,0.0,0.0,0.0,0.0,0.0,0.0,0.0,0.0,0.0,0.0,0.0,0.0,0.0,0.0,0.0,0.0,0.0,0.0,0.0,0.0,0.0,0.0,0.0,0.0,0.0,0.0,0.0,0.0,0.0,0.0,0.0,0.0,0.0,0.0,0.0,0.0,0.0,0.0,0.0,0.0,0.0,0.0,0.0,0.0,0.0,0.0,0.0,0.0,0.0,0.0,0.0,0.0,0.0,0.0,0.0,0.0,0.0,0.0,0.0,0.0,0.0,0.0,0.0,0.0,0.0,0.0,0.0,0.0,0.0,0.0,0.0,0.0,0.0,0.0,0.0,0.0,0.0,0.0,-3.314,-3.6796,-4.0029,-4.2082,-4.1966,-4.1439,-4.0648,-3.925,-3.6901,-3.3296,0.0,0.0,0.0,0.0,0.0,0.0,0.0,0.0,0.0,0.0,0.0,0.0,0.0,0.0,0.0,0.0,0.0,0.0,0.0,0.0,0.0,0.0,0.0,0.0,0.0,0.0,0.0,0.0,0.0,0.0,0.0,0.0,0.0,0.0,0.0,0.0,0.0,0.0,0.0,0.0,0.0,0.0,0.0,0.0,0.0,0.0,0.0,0.0,0.0,0.0,0.0,0.0,0.0,0.0,0.0,0.0,0.0,0.0,0.0,0.0,0.0,0.0,0.0,0.0,0.0,0.0,0.0,0.0,0.0,0.0,0.0,0.0,0.0,0.0,0.0,0.0,0.0,0.0,0.0,0.0,0.0,0.0,0.0,0.0,0.0,0.0,0.0,0.0,0.0,0.0,0.0,0.0,0.0,0.0,0.0,0.0,0.0,0.0,0.0,0.0,0.0,0.0,-3.2165,-3.562,-3.8814,-4.1122,-4.044,-3.9777,-3.9777,-3.7222,-3.4675,0.0,0.0,0.0,0.0,0.0,0.0,0.0,0.0,0.0,0.0,0.0,0.0,0.0,0.0,0.0,0.0,0.0,0.0,0.0,0.0,0.0,0.0,0.0,0.0,0.0,0.0,0.0,0.0,0.0,0.0,0.0,0.0,0.0,0.0,0.0,0.0,0.0,0.0,0.0,0.0,0.0,0.0,0.0,0.0,0.0,0.0,0.0,0.0,0.0,0.0,0.0,0.0,0.0,0.0,0.0,0.0,0.0,0.0,0.0,0.0,0.0,0.0,0.0,0.0,0.0,0.0,0.0,0.0,0.0,0.0,0.0,0.0,0.0,0.0,0.0,0.0,0.0,0.0,0.0,0.0,0.0,0.0,0.0,0.0,0.0,0.0,0.0,0.0,0.0,0.0,0.0,0.0,0.0,0.0,0.0,0.0,0.0,0.0,0.0,0.0,0.0,0.0,0.0,-3.217,-3.54,-3.7998,-3.9353,-3.9225,-3.8881,-3.8508,-3.6695,-3.4675,-3.2466,0.0,0.0,0.0,0.0,0.0,0.0,0.0,0.0,0.0,0.0,0.0,0.0,0.0,0.0,0.0,0.0,0.0,0.0,0.0,0.0,0.0,0.0,0.0,0.0,0.0,0.0,0.0,0.0,0.0,0.0,0.0,0.0,0.0,0.0,0.0,0.0,0.0,0.0,0.0,0.0,0.0,0.0,0.0,0.0,0.0,0.0,0.0,0.0,0.0,0.0,0.0,0.0,0.0,0.0,0.0,0.0,0.0,0.0,0.0,0.0,0.0,0.0,0.0,0.0,0.0,0.0,0.0,0.0,0.0,0.0,0.0,0.0,0.0,0.0,0.0,0.0,0.0,0.0,0.0,0.0,0.0,0.0,0.0,0.0,0.0,0.0,0.0,0.0,0.0,0.0,0.0,0.0,0.0,0.0,0.0,0.0,0.0,0.0,0.0,0.0,0.0,0.0,-3.117,-3.411,-3.6593,-3.8053,-3.8043,-3.7826,-3.7496,-3.6332,-3.4404,-3.1596,0.0,0.0,0.0,0.0,0.0,0.0,0.0,0.0,0.0,0.0,0.0,0.0,0.0,0.0,0.0,0.0,0.0,0.0,0.0,0.0,0.0,0.0,0.0,0.0,0.0,0.0,0.0,0.0,0.0,0.0,0.0,0.0,0.0,0.0,0.0,0.0,0.0,0.0,0.0,0.0,0.0,0.0,0.0,0.0,0.0,0.0,0.0,0.0,0.0,0.0,0.0,0.0,0.0,0.0,0.0,0.0,0.0,0.0,0.0,0.0,0.0,0.0,0.0,0.0,0.0,0.0,0.0,0.0,0.0,0.0,0.0,0.0,0.0,0.0,0.0,0.0,0.0,0.0,0.0,0.0,0.0,0.0,0.0,0.0,0.0,0.0,0.0,0.0,0.0,0.0,0.0,0.0,0.0,0.0,0.0,0.0,0.0,0.0,0.0,0.0,0.0,0.0,-2.9577,-3.2173,-3.4685,-3.6903,-3.6734,-3.6485,-3.6569,-3.5791,-3.3846,-3.0429,0.0,0.0,0.0,0.0,0.0,0.0,0.0,0.0,0.0,0.0,0.0,0.0,0.0,0.0,0.0,0.0,0.0,0.0,0.0,0.0,0.0,0.0,0.0,0.0,0.0,0.0,0.0,0.0,0.0,0.0,0.0,0.0,0.0,0.0,0.0,0.0,0.0,0.0,0.0,0.0,0.0,0.0,0.0,0.0,0.0,0.0,0.0,0.0,0.0,0.0,0.0,0.0,0.0,0.0,0.0,0.0,0.0,0.0,0.0,0.0,-3.2063,-2.9531,0.0,0.0,0.0,0.0,0.0,0.0,0.0,0.0,0.0,0.0,0.0,0.0,0.0,0.0,0.0,0.0,0.0,0.0,0.0,0.0,0.0,0.0,0.0,0.0,0.0,0.0,0.0,0.0,0.0,0.0,0.0,0.0,0.0,0.0,0.0,0.0,0.0,0.0,0.0,0.0,-2.892,-3.0721,-3.2434,-3.4083,-3.4202,-3.4353,-3.4928,-3.3761,-3.2408,-3.1055,-2.8586,0.0,0.0,0.0,0.0,0.0,0.0,0.0,0.0,0.0,0.0,0.0,0.0,0.0,0.0,0.0,0.0,0.0,0.0,0.0,0.0,0.0,0.0,0.0,0.0,0.0,0.0,0.0,0.0,0.0,0.0,0.0,0.0,0.0,0.0,0.0,0.0,0.0,0.0,0.0,0.0,0.0,0.0,0.0,0.0,0.0,0.0,0.0,0.0,0.0,0.0,0.0,0.0,0.0,0.0,0.0,0.0,0.0,0.0,0.0,-3.4596,-3.3109,0.0,0.0,0.0,0.0,0.0,0.0,0.0,0.0,0.0,0.0,0.0,0.0,0.0,0.0,0.0,0.0,0.0,0.0,0.0,0.0,0.0,0.0,0.0,0.0,0.0,0.0,0.0,0.0,0.0,0.0,0.0,0.0,0.0,0.0,0.0,0.0,0.0,0.0,0.0,0.0,-2.818,-3.004,-3.1765,-3.3254,-3.3406,-3.3694,-3.4438,-3.3136,-3.1968,-3.1241,-2.8841,0.0,0.0,0.0,0.0,0.0,0.0,0.0,0.0,0.0,0.0,0.0,0.0,0.0,0.0,0.0,0.0,0.0,0.0,0.0,0.0,0.0,0.0,0.0,0.0,0.0,0.0,0.0,0.0,0.0,0.0,0.0,0.0,0.0,0.0,0.0,0.0,0.0,0.0,0.0,0.0,0.0,0.0,0.0,0.0,0.0,0.0,0.0,0.0,0.0,0.0,0.0,0.0,0.0,-3.7792,-3.7864,-3.7845,-3.7647,-3.7551,-3.7551,-3.7404,-3.7386,-3.736,-3.5275,0.0,0.0,0.0,0.0,0.0,0.0,0.0,0.0,0.0,0.0,0.0,0.0,0.0,0.0,0.0,0.0,0.0,0.0,0.0,0.0,0.0,0.0,-3.1387,-3.1117,-3.248,-3.2974,-2.987,0.0,0.0,0.0,0.0,0.0,0.0,0.0,0.0,0.0,0.0,0.0,-2.7452,-2.9499,-3.1376,-3.2865,-3.3017,-3.3322,-3.4049,-3.2782,-3.1695,-3.1089,-2.9141,-2.7032,0.0,0.0,0.0,0.0,0.0,0.0,0.0,0.0,0.0,0.0,0.0,0.0,0.0,0.0,0.0,0.0,0.0,0.0,0.0,0.0,0.0,0.0,0.0,0.0,0.0,0.0,0.0,0.0,0.0,0.0,0.0,0.0,-3.5815,-3.7372,0.0,0.0,0.0,0.0,0.0,0.0,0.0,0.0,0.0,0.0,0.0,0.0,0.0,-3.7635,-3.8581,-4.0677,-4.1709,-4.1728,-4.2996,-4.3589,-4.3571,-4.2855,-4.2543,-4.2506,-4.1809,0.0,-3.7489,-3.7129,0.0,0.0,0.0,0.0,0.0,0.0,0.0,0.0,0.0,0.0,0.0,0.0,0.0,0.0,0.0,0.0,0.0,0.0,0.0,0.0,0.0,0.0,-3.4769,-3.4109,-3.4176,-3.4261,-3.377,-3.0688,-2.7858,-2.7452,-2.5964,-2.4675,0.0,0.0,0.0,0.0,0.0,0.0,-2.6742,-2.8264,-2.9854,-3.1326,-3.1478,-3.1782,-3.251,-3.1358,-3.0534,-3.0435,-2.8475,-2.6719,-2.5337,-2.4647,0.0,0.0,0.0,0.0,0.0,0.0,0.0,0.0,0.0,0.0,0.0,0.0,0.0,0.0,0.0,0.0,0.0,0.0,0.0,0.0,0.0,0.0,0.0,0.0,0.0,0.0,0.0,0.0,0.0,-3.3833,-3.6483,-3.6806,-3.6809,-3.5425,0.0,0.0,0.0,0.0,0.0,0.0,0.0,0.0,0.0,-4.0541,-4.094,-4.173,-4.2987,-4.437,-4.4853,-4.4412,-4.5075,-4.5149,-4.4709,-4.4342,-4.392,-4.3461,-4.313,-4.2158,-4.0763,-3.9405,-3.7881,-3.6219,0.0,0.0,0.0,0.0,-3.0768,-3.1077,-3.1854,-3.2032,-3.188,-3.135,0.0,0.0,0.0,0.0,0.0,0.0,0.0,-2.9228,-3.1004,-3.2916,-3.4624,-3.5554,-3.6096,-3.618,-3.5318,-3.2933,-3.0717,-2.9871,-2.8586,-2.7097,-2.5406,-2.5118,0.0,0.0,0.0,-2.6488,-2.7232,-2.8653,-3.0023,-3.1089,-3.119,-3.1358,-3.1742,-3.0891,-3.033,-3.0417,-2.8494,-2.7152,-2.659,-2.5236,-2.3915,0.0,0.0,0.0,0.0,0.0,0.0,0.0,0.0,0.0,0.0,0.0,0.0,0.0,0.0,0.0,0.0,0.0,0.0,0.0,0.0,0.0,0.0,0.0,0.0,0.0,0.0,0.0,0.0,-3.5885,-3.7918,-3.7175,-3.8249,-3.7288,0.0,0.0,0.0,0.0,0.0,0.0,-4.0103,-3.9905,-4.1249,-4.4512,-4.4897,-4.5703,-4.6966,-4.7261,-4.7113,-4.6507,-4.6104,-4.559,-4.5002,-4.458,-4.4066,-4.3497,-4.3497,-4.3497,-4.3332,-4.1332,-3.968,-3.8273,-3.6693,-3.5103,-3.3606,-3.2861,-3.2893,-3.3379,-3.4003,-3.4445,-3.4542,-3.3649,-3.2457,-3.0989,-2.903,0.0,0.0,0.0,0.0,-2.933,-3.2121,-3.3119,-3.3829,-3.552,-3.6349,-3.6434,-3.5301,-3.3897,-3.2577,-3.1647,-3.0581,-2.9042,-2.659,-2.6167,0.0,-2.3748,-2.521,-2.679,-2.7547,-2.879,-2.995,-3.0874,-3.0975,-3.0957,-3.0904,-3.0245,-2.9899,-3.0003,-2.842,-2.755,-2.755,-2.5833,-2.4418,-2.3445,0.0,0.0,0.0,0.0,0.0,0.0,0.0,0.0,0.0,0.0,0.0,0.0,0.0,0.0,0.0,0.0,0.0,0.0,0.0,0.0,0.0,0.0,0.0,0.0,0.0,0.0,0.0,0.0,0.0,-4.0645,-4.3289,0.0,0.0,0.0,0.0,-3.7815,-3.855,-4.071,-4.4562,-4.4638,-4.6164,-4.9694,-4.9098,-4.8967,-4.9428,-4.8636,-4.8233,-4.8159,-4.6636,-4.5883,-4.5792,-4.425,-4.3534,-4.3497,-4.3497,-4.3497,-4.3424,-4.2543,-4.168,-4.0781,-3.9153,-3.7533,-3.6025,-3.5224,-3.4839,-3.4695,-3.4755,-3.4644,-3.4607,-3.525,-3.3525,-3.1077,-3.0472,-2.9085,0.0,0.0,-2.9973,-3.1072,-3.1258,-3.2357,-3.344,-3.3541,-3.3609,-3.3609,-3.3541,-3.2357,-3.1495,-3.2104,-3.0497,-2.8755,-2.784,0.0,-2.6774,-2.41,-2.5023,-2.6313,-2.7057,-2.78,-2.8808,-3.0186,-3.0351,-3.014,-2.9544,-2.8935,-2.8574,-2.8605,-2.7978,-2.7615,-2.7615,-2.6258,-2.5525,-2.5465,-2.2368,0.0,0.0,0.0,0.0,0.0,0.0,0.0,0.0,0.0,0.0,0.0,0.0,0.0,0.0,0.0,0.0,0.0,0.0,0.0,0.0,0.0,0.0,0.0,0.0,0.0,0.0,0.0,0.0,-4.2311,-4.4311,0.0,-4.1566,-4.2059,-4.2441,-4.2085,-4.4135,-4.6268,-4.8205,-4.8574,-4.9408,-5.0906,-5.0682,-5.0248,-4.963,-4.9279,-4.86,-4.7535,-4.6966,-4.614,-4.5112,-4.4525,-4.3993,-4.3497,-4.3497,-4.3497,-4.3461,-4.3185,-4.2598,-4.1776,-4.0864,-3.9626,-3.8241,-3.7115,-3.6748,-3.6729,-3.6237,-3.6051,-3.5774,-3.459,-3.2831,-3.114,-3.0946,-3.0489,-3.0159,-3.0903,-3.114,-3.141,-3.2374,-3.2645,-3.2797,-3.3288,-3.3406,-3.3271,-3.278,-3.2273,-3.1833,-3.1613,-3.0565,-2.9465,-2.8704,-2.8569,-2.7755,-2.5279,-2.6201,-2.7257,-2.7526,-2.7919,-2.8395,-2.8883,-2.8633,-2.8201,-2.7611,-2.7359,-2.7057,-2.6669,-2.6447,-2.6303,-2.6303,-2.545,-2.4582,-2.3744,-2.2158,-2.1036,0.0,0.0,0.0,0.0,0.0,0.0,0.0,0.0,0.0,0.0,0.0,0.0,0.0,0.0,0.0,0.0,0.0,0.0,0.0,0.0,0.0,0.0,0.0,0.0,0.0,0.0,-4.2898,-4.3177,-4.569,-4.66,-4.4586,-4.5428,-4.6196,-4.6432,-4.8084,-4.9663,-5.1079,-5.1446,-5.1802,-5.2215,-5.1939,-5.102,-4.9381,-4.9086,-4.8218,-4.6709,-4.6434,-4.5736,-4.4709,-4.4415,-4.3881,-4.3195,-4.3403,-4.3367,-4.3195,-4.3403,-4.3185,-4.2656,-4.2304,-4.1538,-4.0406,-3.9005,-3.8492,-3.8236,-3.6806,-3.6174,-3.5673,-3.3677,-3.2357,-3.1512,-3.1275,-3.119,-3.1292,-3.1782,-3.1562,-3.1427,-3.2408,-3.229,-3.2036,-3.2544,-3.2662,-3.2527,-3.2019,-3.1715,-3.141,-3.092,-3.0429,-2.9786,-2.8772,-2.8383,-2.757,-2.5631,-2.595,-2.6604,-2.7123,-2.7337,-2.7531,-2.7723,-2.7679,-2.732,-2.6523,-2.6321,-2.5933,-2.5317,-2.5107,-2.4987,-2.4926,-2.4313,-2.3565,-2.2739,-2.1814,-2.0707,-1.9346,0.0,0.0,0.0,0.0,0.0,0.0,0.0,0.0,0.0,0.0,0.0,0.0,0.0,0.0,0.0,0.0,0.0,0.0,0.0,0.0,0.0,0.0,0.0,-3.813,-4.1865,-4.4203,-4.3509,-4.7757,-4.976,-4.7298,-4.8529,-4.9817,-5.0625,-4.9933,-5.0567,-5.3029,-5.3164,-5.3302,-5.3677,-5.2902,-5.1328,-4.8855,-4.804,-4.7058,-4.5883,-4.5076,-4.469,-4.4654,-4.3864,-4.3159,-4.2572,-4.3217,-4.314,-4.259,-4.3235,-4.3497,-4.3497,-4.3497,-4.3178,-4.2513,-4.0908,-3.9924,-3.9005,-3.6185,-3.4912,-3.4218,-3.2747,-3.2256,-3.2121,-3.141,-3.119,-3.119,-3.119,-3.119,-3.119,-3.119,-3.119,-3.119,-3.1157,-3.1157,-3.1157,-3.114,-3.0565,-3.0074,-3.0074,-3.0057,-2.9567,-2.8043,-2.7215,-2.632,-2.5058,-2.4247,0.0,-2.5815,-2.5977,-2.6188,-2.6765,-2.7509,-2.7518,-2.6404,-2.587,-2.5311,-2.4612,-2.4085,-2.3767,-2.3565,-2.2981,-2.2679,-2.2664,-2.1335,-2.0034,-1.8702,0.0,0.0,0.0,0.0,0.0,0.0,0.0,0.0,0.0,0.0,0.0,0.0,0.0,0.0,0.0,0.0,0.0,0.0,0.0,0.0,0.0,-3.6684,-4.0069,-4.1544,-4.3813,-4.6152,-4.8373,-5.0375,-5.1298,-5.0606,-5.0952,-5.1068,-5.0721,-5.1029,-5.1529,-5.2222,-5.226,-5.1924,-5.1141,-5.0283,-4.9086,-4.7529,-4.7012,-4.6285,-4.5389,-4.4904,-4.4397,-4.3809,-4.3589,-4.3403,-4.3235,-4.3422,-4.3403,-4.3235,-4.3422,-4.3497,-4.3497,-4.3497,-4.3178,-4.2513,-4.0908,-3.8999,-3.6899,-3.4424,-3.3631,-3.3541,-3.2594,-3.1918,-3.1444,-3.1258,-3.119,-3.119,-3.119,-3.119,-3.119,-3.119,-3.119,-3.1072,-3.0531,-3.0395,-3.026,-2.9702,-2.9431,-2.9296,-2.9296,-2.8839,-2.8315,-2.7857,-2.7638,-2.7215,-2.6303,-2.6017,-2.5899,-2.5983,-2.5652,-2.5323,-2.5124,-2.4608,-2.4328,-2.4351,-2.3918,-2.3527,-2.3248,-2.3083,-2.302,-2.2936,-2.2308,-2.1739,-2.1261,-2.0408,-1.9555,0.0,0.0,0.0,0.0,0.0,0.0,0.0,0.0,0.0,0.0,0.0,0.0,0.0,0.0,0.0,0.0,0.0,0.0,0.0,0.0,0.0,0.0,-3.9435,-4.2851,-4.5052,-4.6206,-4.7774,-5.0482,-5.1487,-5.1989,-5.1989,-5.1989,-5.1779,-5.1241,-5.1318,-5.1548,-5.1895,-5.1914,-5.1256,-4.986,-4.9666,-4.8499,-4.6234,-4.6315,-4.5876,-4.4945,-4.4573,-4.4155,-4.3693,-4.3563,-4.333,-4.3103,-4.3385,-4.333,-4.3103,-4.3385,-4.3497,-4.3461,0.0,0.0,0.0,0.0,-3.8187,-3.5937,-3.3907,-3.3106,-3.2814,-3.207,-3.1546,-3.119,-3.119,-3.097,-3.0734,-3.0734,-3.0514,-3.0345,-3.0666,-3.0497,-3.0243,-3.0142,-2.9871,-2.9516,-2.9076,-2.8738,-2.8501,-2.8501,-2.7875,0.0,-2.7351,-2.7351,-2.7012,-2.6033,-2.5882,-2.5744,-2.5248,-2.4938,-2.4637,-2.4328,-2.4053,-2.3866,-2.3918,-2.3478,0.0,0.0,0.0,-2.2265,-2.1859,-2.1485,0.0,0.0,0.0,-1.9361,-1.8702,-1.9361,0.0,0.0,-2.1306,-2.1485,0.0,0.0,0.0,0.0,0.0,0.0,0.0,0.0,0.0,0.0,0.0,0.0,0.0,0.0,0.0,0.0,-4.2057,-4.4846,-4.7938,-4.8258,-4.8877,-5.0705,-5.1635,-5.21,-5.2003,-5.208,-5.2028,-5.1799,-5.1126,-5.0991,-5.1587,-5.1529,0.0,0.0,0.0,-4.8528,-4.5178,-4.5824,-4.5669,-4.4657,-4.4261,-4.4058,-4.4076,-4.3693,-4.3244,-4.2709,-4.3269,-4.3122,-4.2521,-4.3125,-4.324,-4.3039,-4.2506,-4.2194,-4.1754,-3.9423,-3.7591,-3.5971,-3.4232,0.0,0.0,-3.1523,-3.123,-3.119,-3.119,-3.0734,-3.0226,-3.0226,-2.9753,-2.9364,-2.9956,-2.96,-2.9245,-2.9736,-2.9347,-2.8822,-2.8774,-2.818,-2.7689,-2.7689,-2.7148,-2.6691,-2.6691,-2.6691,-2.632,-2.5175,-2.4972,-2.4797,-2.4381,-2.4196,-2.4089,-2.401,-2.4509,0.0,-2.4132,-2.3647,-2.3118,-2.2499,-2.2164,-2.159,-2.0737,-2.0782,-2.0228,-1.8957,-1.9435,-1.9405,-1.8807,-1.9405,-2.0333,-2.159,-2.1665,-2.2084,0.0,0.0,0.0,0.0,0.0,0.0,0.0,0.0,0.0,0.0,0.0,0.0,0.0,0.0,0.0,-4.0391,-4.2987,-4.5401,-4.7343,-4.7593,-4.8448,-5.0772,-5.1761,-5.2014,-5.1364,-5.1878,-5.1935,-5.1154,-5.0945,-5.059,-4.9933,-4.9221,-4.8394,-4.7413,-4.6874,-4.6241,-4.5495,-4.5395,-4.5227,-4.5007,-4.4657,0.0,-4.4474,-4.4076,-4.3819,-4.3701,-4.3557,-4.3073,-4.2338,-4.247,-4.1772,-4.0708,-4.1846,-4.1515,-4.0139,-3.8377,-3.7644,-3.7108,-3.4281,-3.3527,-3.3598,-3.2145,-3.147,-3.119,-3.119,-3.1106,0.0,-3.0987,-3.0869,-3.0666,-3.0226,-2.9989,-2.9617,-2.8535,-2.8163,-2.7875,-2.7266,-2.7012,-2.6911,-2.6911,-2.6793,-2.6691,-2.6691,-2.6691,-2.6607,-2.6387,-2.6011,-2.5727,-2.5639,-2.4875,-2.4146,-2.3585,-2.3003,-2.2515,-2.2254,-2.1789,-2.1424,-2.1096,-2.1509,-2.1434,-2.0737,-2.1231,-2.1141,-2.0333,-1.9914,-1.963,-1.9495,-1.963,-2.0109,-2.0917,-2.1455,-2.2323,0.0,0.0,0.0,0.0,0.0,0.0,0.0,0.0,0.0,0.0,0.0,-3.3757,-3.5899,0.0,-3.9799,-4.2435,-4.4025,-4.5522,-4.7168,-4.7455,-4.8096,-4.9705,-5.0256,-5.0334,-4.9944,-5.0256,-5.0285,-4.9742,-4.9633,-4.9378,-4.8877,-4.8372,-4.7528,-4.6297,-4.624,-4.5836,-4.4951,-4.5227,-4.5342,-4.5342,-4.4849,-4.458,-4.458,-4.3576,-4.3148,-4.313,-4.2551,-4.2066,-4.1699,-4.1699,-4.0983,-3.9974,-4.0781,-4.0359,-3.9093,-3.7477,-3.6833,-3.6378,-3.3759,-3.2929,-3.2827,-3.1823,-3.1351,-3.1123,-3.0768,-3.0395,-3.0006,-2.9617,-2.9228,-2.8941,-2.8958,-2.8687,-2.8298,-2.7891,-2.7537,-2.7165,-2.6776,-2.6691,-2.6691,-2.6691,-2.6691,-2.6691,-2.6691,-2.6691,-2.6539,-2.6016,-2.5762,-2.5336,-2.4467,-2.3575,-2.2934,-2.2598,-2.2137,-2.1798,-2.1695,-2.1512,-2.1317,-2.1201,-2.1515,-2.1395,-2.0737,-2.1036,-2.0887,-2.0213,-1.9854,-1.969,-1.969,-1.969,-2.0034,-2.0722,-2.1051,-2.1904,0.0,0.0,0.0,0.0,0.0,0.0,0.0,0.0,-3.2679,-3.4995,-3.5688,-3.6767,-3.97,-4.0322,-4.1344,-4.4335,-4.4988,-4.5605,-4.6952,-4.7258,-4.7576,-4.8154,-4.8521,-4.8736,-4.8736,-4.8736,-4.8664,-4.8497,-4.841,-4.825,-4.8029,-4.7925,-4.7163,-4.5643,-4.6278,-4.597,-4.4566,-4.5066,-4.5336,-4.5336,-4.4633,-4.4283,-4.4191,-4.2869,-4.2226,-4.2124,-4.1236,-4.0781,-4.0634,-4.0634,-4.0157,-3.9441,-3.9606,-3.9184,-3.8303,-3.7,-3.6291,-3.5693,-3.3691,-3.2696,-3.2195,-3.1634,-3.1287,-3.1006,-3.0315,-2.9583,-2.8839,-2.823,-2.7604,-2.7249,-2.7706,-2.7368,-2.7029,-2.7503,-2.7131,-2.6691,-2.6691,-2.6691,-2.6691,-2.6691,-2.6691,-2.6691,-2.6691,-2.6691,-2.6386,-2.5419,-2.5239,-2.4697,-2.3226,-2.2337,-2.1831,-2.1796,-2.1603,-2.1455,-2.1321,-2.1306,-2.1306,-2.1306,-2.1425,-2.1261,-2.0737,-2.0722,-2.0453,-1.9884,-1.975,-1.969,-1.969,-1.969,-1.9974,-2.0513,-2.0662,-2.135,-2.3769,-2.3655,-2.5522,-3.071,-3.0836,-3.1447,0.0,0.0,-3.8112,-4.0589,-4.1123,-4.1505,-4.265,-4.3235,-4.3866,-4.5038,-4.5648,-4.603,-4.6225,-4.636,-4.6484,-4.6562,-4.7949,-4.8886,-4.8886,-4.8886,-4.8769,-4.8524,-4.8497,-4.8068,-4.7101,-4.7046,-4.6586,-4.5624,-4.5682,-4.5643,-4.5451,-4.4778,-4.4451,-4.4432,-4.3649,-4.312,-4.2804,-4.2327,-4.1957,-4.1611,-4.0529,-3.9625,-3.8982,-3.8982,-3.8487,-3.7826,-3.856,-3.834,-3.7606,-3.7422,-3.7349,-3.7033,-3.5326,-3.4461,-3.3916,-3.2747,-3.1637,-3.0662,-3.0241,-2.9583,-2.8958,-2.8873,-2.8789,-2.8586,-2.7977,-2.7722,-2.7554,-2.6962,-2.6759,-2.6691,-2.6691,-2.6691,-2.6691,-2.6691,-2.6691,-2.6691,-2.6691,-2.6691,-2.6438,-2.5681,-2.5161,-2.4709,-2.4345,-2.3099,-2.218,-2.207,-2.1311,-2.0572,-1.9959,-1.9914,-1.9914,-1.9914,-2.0483,-2.0797,-2.0722,-2.0722,-2.0677,-2.0602,-1.9989,-1.969,-1.969,-1.969,-1.972,-1.9809,-2.0423,-2.1111,-2.4817,-2.5967,0.0,0.0,-3.2713,-3.4851,-3.8272,-3.8651,-3.9081,-4.19,-4.2258,-4.2461,-4.3806,-4.3958,-4.4173,0.0,-4.5181,-4.5354,-4.5916,-4.6108,-4.6026,-4.5586,-4.5742,-4.6073,-4.6582,-4.709,-4.7126,-4.6515,-4.6787,-4.6785,-4.6351,-4.6201,-4.597,-4.5605,-4.5586,-4.5355,-4.4855,-4.447,-4.4066,-4.3585,-4.3023,-4.268,-4.2522,-4.1722,-4.0647,-3.9378,-3.847,-3.7774,-3.7294,-3.7294,-3.711,-3.6835,-3.7165,-3.7092,-3.6798,-3.6798,-3.6486,-3.5852,-3.4433,-3.3549,-3.2871,-3.208,-3.097,-2.9886,-2.9282,-2.8713,-2.8213,-2.7774,-2.7655,-2.7571,-2.7249,-2.7165,-2.6979,-2.6234,-2.6387,-2.6573,-2.615,-2.6065,-2.6065,-2.6065,-2.571,-2.5406,-2.5406,-2.5406,-2.5169,-2.4425,-2.4067,-2.3578,-2.2731,-2.1557,-2.0782,-2.0725,-2.0334,-1.9989,-1.9705,-1.969,-1.969,-1.969,-1.9959,-2.0124,-2.0124,-2.0124,-2.0124,-2.0124,-1.9824,-1.969,-1.969,-1.969,-1.969,-1.969,-1.9989,-2.0273,-2.5195,0.0,0.0,-3.063,-3.3566,-3.6322,-3.7658,-3.8172,-3.9017,-4.1414,-4.1746,-4.1969,-4.3193,-4.3472,-4.3767,-4.4486,-4.4668,-4.5002,-4.5754,-4.5772,-4.544,-4.4655,-4.3815,-4.3368,-4.351,-4.4569,-4.5058,-4.4646,-4.5016,-4.5348,-4.5568,-4.5402,-4.5285,-4.5301,-4.5255,-4.4816,-4.397,-4.372,-4.3201,-4.2374,-4.1875,-4.1437,-4.1091,-4.0113,-3.8871,-3.7421,-3.6838,-3.6325,-3.5973,-3.6193,-3.6156,-3.5936,-3.5936,-3.5807,-3.5569,-3.5367,-3.5037,-3.4504,-3.3411,-3.2498,-3.1771,-3.1326,-3.0233,-2.8992,-2.8551,-2.7689,-2.6826,-2.6488,-2.6251,-2.6133,-2.6336,-2.6251,-2.5998,-2.5693,-2.5845,-2.5947,-2.5406,-2.5304,-2.5304,-2.5304,-2.4864,-2.4506,-2.4506,-2.4506,-2.4191,-2.3358,-2.3047,-2.2527,-2.1503,-2.0501,-1.9818,-1.9711,-1.969,-1.969,-1.969,-1.969,-1.969,-1.969,-1.969,-1.969,-1.969,-1.969,-1.969,-1.969,-1.969,-1.969,-1.969,-1.969,-1.969,-1.969,-1.969,-1.969,0.0,0.0,-2.5625,-3.0774,-3.264,-3.4123,-3.7591,-3.8386,-3.8617,-3.9509,-4.0036,-4.0384,-4.0438,-4.177,-4.2941,-4.3316,-4.4437,-4.5401,-4.5744,-4.5191,-4.4417,-4.3549,-4.2799,-4.1696,0.0,-4.1468,-4.2832,-4.3595,-4.3665,-4.3986,-4.4692,-4.461,-4.4544,-4.4537,-4.4411,-4.3951,-4.3143,-4.2297,-4.145,-4.0566,-3.9777,-3.8783,-3.7623,-3.7075,-3.6636,-3.635,-3.6332,-3.5826,-3.5082,-3.5954,-3.5807,-3.5027,-3.5027,-3.4578,-3.3788,-3.3018,-3.3201,-3.3715,-3.29,-3.2093,-3.1345,-3.0948,-2.9561,-2.811,-2.8317,-2.6625,-2.4729,-2.5439,-2.5118,-2.4743,-2.5456,-2.5101,-2.4729,-2.5439,-2.5067,-2.4574,-2.4557,-2.454,-2.454,-2.454,-2.4523,-2.4506,-2.4506,-2.4506,-2.4113,-2.2892,-2.2394,-2.1989,-2.1653,-2.0813,-2.0124,-1.9747,-1.969,-1.969,-1.969,-1.969,-1.969,-1.969,-1.969,-1.969,-1.969,-1.969,-1.969,-1.969,-1.969,-1.969,-1.969,-1.969,-1.969,-1.969,-1.969,-1.969,-2.2958,0.0,-2.7361,-3.0635,-3.3232,-3.5509,-3.7268,-3.8064,-3.8468,-3.8812,-3.747,-3.626,-3.6258,-3.7081,-3.8257,-3.9802,-4.1402,-4.3216,-4.5485,-4.4486,-4.3482,-4.3419,-4.2162,0.0,0.0,0.0,0.0,-4.1952,-4.2968,-4.3714,-4.3961,-4.3847,-4.374,-4.3647,-4.3601,-4.2859,-4.1393,-4.1085,-4.0219,-3.8834,-3.8565,-3.8228,-3.7805,-3.6491,-3.5761,-3.5426,-3.4124,-3.3306,-3.2889,-3.2985,-3.2871,-3.2614,-3.2614,-3.2449,-3.2155,-3.1898,-3.1311,-3.0742,-3.1531,-3.0925,-2.9758,-2.9381,-2.795,-2.633,-2.6237,-2.542,-2.4557,-2.478,-2.4678,-2.4574,-2.4797,-2.4678,-2.4455,-2.4188,-2.4306,-2.4388,-2.3866,-2.3765,-2.3765,-2.3765,-2.3376,-2.3038,-2.3038,-2.3038,-2.2895,-2.2509,-2.1552,-2.0782,-2.0395,-2.007,-1.9929,-2.0089,-1.9874,-1.9818,-2.007,-1.9839,-1.969,-1.969,-1.969,-1.969,-1.969,-1.969,-1.969,-1.969,-1.969,-1.969,-1.969,-1.969,-1.969,-1.969,-1.969,-1.969,-2.3492,-2.5873,-2.8323,-3.0728,-3.316,-3.5111,-3.5766,-3.6287,-3.6566,-3.6326,-3.4728,-3.3202,-3.2681,-3.3622,-3.4792,-3.5814,-3.7661,-4.0108,-4.3339,-4.2206,-4.1485,-4.2687,-4.1335,-4.0205,0.0,0.0,0.0,-4.0679,-4.1638,-4.2388,-4.2683,-4.232,-4.2179,-4.2413,-4.2047,-4.1126,-3.9667,-3.9307,-3.8296,-3.6642,-3.6642,-3.644,-3.6002,-3.4928,-3.4133,-3.3538,-3.2505,-3.1798,-3.1365,-3.1402,-3.1384,-3.1366,-3.1072,-3.0962,-3.0889,-3.032,-2.9457,-2.876,-3.0081,-2.9494,-2.8109,-2.7893,-2.6664,-2.5298,-2.5243,-2.459,-2.3874,-2.4062,-2.39,-2.3765,-2.4036,-2.39,-2.3646,-2.3444,-2.3562,-2.3579,-2.3105,-2.3004,-2.3004,-2.3004,-2.2632,-2.231,-2.231,-2.2163,-2.2032,-2.2032,-2.1039,-2.0246,-2.0174,-2.0015,-2.0,-2.028,-2.007,-2.0035,-2.028,-2.0054,-1.9839,-1.9726,-1.969,-1.969,-1.969,-1.969,-1.969,-1.969,-1.969,-1.969,-1.969,-1.969,-1.969,-1.969,-1.969,-1.969,-2.5199,-2.6889,-2.8219,-3.1009,-3.2305,-3.2917,-3.3185,-3.3212,-3.2959,-3.2181,-3.1679,-3.0976,0.0,0.0,-3.2498,-3.1723,-3.377,-3.6616,-3.9929,-3.8932,-3.885,0.0,0.0,0.0,0.0,0.0,0.0,-3.9738,0.0,-4.0172,-4.0992,-4.0151,-4.0011,-4.084,-3.9876,-3.8911,-3.7981,-3.6993,-3.5718,-3.4122,-3.4122,-3.3566,-3.253,-3.2492,-3.1884,-3.0939,-3.1458,-3.1259,-3.0588,-3.107,-3.1274,-3.1201,-3.0393,-3.0081,-2.9898,-2.8319,-2.7714,-2.7787,-2.8558,-2.7824,-2.6539,-2.6518,-2.5739,-2.4887,-2.5248,-2.4103,-2.2763,-2.3238,-2.2835,-2.2462,-2.3156,-2.2835,-2.2496,-2.3173,-2.2818,-2.231,-2.231,-2.231,-2.231,-2.231,-2.231,-2.231,-2.231,-2.1928,-2.1658,-2.1658,-2.0894,-2.0516,-2.0926,-2.055,-2.028,-2.0348,-2.0314,-2.0314,-2.0366,-2.0348,-2.0158,-1.9747,-1.9711,-1.9711,-1.969,-1.969,-1.969,-1.969,-1.969,-1.969,-1.969,-1.969,-1.969,-1.969,-1.969,-1.969,-2.3836,-2.5647,-2.7748,-3.0,-3.0704,-3.0896,-3.1124,-3.0775,-3.0026,-2.8588,-2.6457,-2.459,0.0,0.0,0.0,-3.0936,-3.4301,0.0,-4.2193,-4.1288,0.0,-4.1527,0.0,-4.0172,-4.0048,-3.9824,0.0,0.0,-3.9444,-3.996,-4.0195,-3.9355,-3.8938,-3.906,-3.8795,-3.7875,-3.625,-3.4653,-3.3641,-3.3237,-3.3237,-3.3077,-3.2787,-3.2179,-3.1656,-3.1156,-3.0506,-3.0039,-2.969,-2.9628,-2.9622,-2.9531,-2.8723,-2.8411,-2.8282,-2.7273,-2.6521,-2.6046,-2.6245,-2.6043,-2.5656,-2.5426,-2.4563,-2.3614,-2.3473,-2.2936,-2.2422,-2.2558,-2.2462,-2.2344,-2.2547,-2.2446,-2.2361,-2.2547,-2.2446,-2.231,-2.231,-2.231,-2.231,-2.231,-2.231,-2.231,-2.231,-2.2209,-2.2106,-2.2106,-2.1628,-2.107,-2.055,-2.0104,-2.0104,-2.0764,-2.0516,-2.0567,-2.1228,-2.0975,-2.0632,-2.0193,-2.0158,-2.0,-1.9711,-1.969,-1.969,-1.969,-1.969,-1.969,-1.969,-1.969,-1.969,-1.969,-1.969,-1.969,-2.4333,-2.5852,-2.7458,-2.8887,-2.955,-2.9581,-2.8622,-2.8404,-2.7679,-2.5209,-2.3325,0.0,-2.0478,-2.231,0.0,0.0,0.0,0.0,-3.958,-3.9316,-3.915,0.0,-3.9788,0.0,-3.9509,-3.9219,-3.8845,0.0,-3.8612,-3.8769,-3.8769,-3.7929,-3.7421,-3.735,-3.6944,-3.5825,-3.3945,-3.3283,-3.2567,-3.1814,-3.2199,-3.2179,-3.1795,-3.1352,-3.0662,-2.9787,-2.9368,-2.87,-2.7921,-2.7941,-2.7948,-2.7893,-2.7457,-2.7273,-2.7181,-2.6374,-2.5786,-2.5348,-2.5017,-2.4869,-2.4831,-2.465,-2.4157,-2.3566,-2.3236,-2.3014,-2.2875,-2.2738,-2.2581,-2.249,-2.249,-2.2388,-2.231,-2.231,-2.231,-2.231,-2.231,-2.231,-2.231,-2.231,-2.231,-2.231,-2.231,-2.231,-2.231,-2.231,-2.1899,-2.1413,-2.0927,-2.0532,-2.0481,-2.0959,-2.091,-2.107,-2.1552,-2.1399,-2.0975,-2.0348,-2.0314,-2.0124,-1.9726,-1.969,-1.969,-1.969,-1.969,-1.969,-1.969,-1.969,-1.969,-1.969,-1.969,-1.969,-2.5211,-2.6306,-2.7043,-2.7904,-2.8588,-2.8487,-2.6333,-2.6127,-2.5501,-2.2224,0.0,-2.0587,-1.9074,-2.1065,-2.3311,-2.4444,0.0,-3.1962,-3.5312,-3.5974,-3.6753,-3.8461,-3.8221,-3.7874,-3.7834,-3.7725,-3.7705,-3.779,-3.7168,-3.6869,-3.7105,-3.6187,-3.5642,-3.5644,-3.4732,-3.3478,-3.1848,-3.2386,-3.1844,-3.024,-3.0999,-3.091,-3.0083,-3.0179,-2.9363,-2.7862,-2.8341,-2.7642,-2.6193,-2.6525,-2.6659,-2.6618,-2.6526,-2.645,-2.6337,-2.5529,-2.5256,-2.5146,-2.4428,-2.419,-2.419,-2.419,-2.417,-2.4074,-2.3795,-2.3649,-2.3522,-2.323,-2.2898,-2.2634,-2.2634,-2.249,-2.231,-2.231,-2.231,-2.231,-2.231,-2.231,-2.231,-2.231,-2.231,-2.231,-2.231,-2.231,-2.231,-2.231,-2.1899,-2.1582,-2.1582,-2.1244,-2.1023,-2.1055,-2.1318,-2.1513,-2.1688,-2.1529,-2.1162,-2.0449,-2.0382,-2.0193,-1.9711,-1.9747,-1.9747,-1.969,-1.969,-1.969,-1.969,-1.969,-1.969,-1.969,-1.969,-1.969,-2.2892,-2.4184,-2.5902,-2.7353,-2.718,-2.655,-2.6092,-2.4402,0.0,0.0,-1.8796,-1.7993,-1.7871,-1.9876,-2.2824,-2.6776,0.0,0.0,0.0,0.0,-3.7706,0.0,0.0,0.0,0.0,-3.57,0.0,0.0,-3.4437,-3.4658,-3.6152,-3.4726,-3.3847,-3.3848,-3.2938,-3.229,-3.196,-3.1292,-3.0412,-2.9407,-2.9513,-2.9121,-2.8352,-2.9025,-2.8668,-2.7612,-2.8398,-2.8078,-2.7003,-2.7054,-2.6989,-2.6785,-2.6117,-2.5744,-2.5513,-2.4704,-2.441,-2.4392,-2.4245,-2.419,-2.419,-2.419,-2.4016,-2.3774,-2.3714,-2.3305,-2.2873,-2.2797,-2.259,-2.236,-2.236,-2.2321,-2.231,-2.231,-2.231,-2.231,-2.231,-2.231,-2.231,-2.231,-2.231,-2.231,-2.231,-2.231,-2.231,-2.231,-2.1899,-2.1582,-2.1582,-2.1244,-2.1118,-2.146,-2.1009,-2.1085,-2.2084,-2.1259,-2.0747,-2.0862,-2.0862,-2.0532,-1.9711,-2.0035,-2.0035,-1.9726,-1.969,-1.969,-1.969,-1.969,-1.969,-1.969,-1.969,-1.969,-2.1903,-2.3164,-2.4578,-2.5711,-2.6096,-2.5605,-2.3395,0.0,0.0,0.0,-1.7158,-1.6984,-1.6837,0.0,0.0,0.0,0.0,0.0,0.0,0.0,0.0,0.0,0.0,0.0,0.0,-3.3473,-3.2894,-3.3031,-3.2271,-3.263,-3.4531,-3.3457,-3.2773,-3.2773,-3.1462,-3.073,-3.0696,-2.9766,-2.9065,-2.8573,-2.854,-2.8299,-2.7909,-2.8294,-2.7942,-2.7056,-2.7364,-2.6713,-2.546,-2.5819,-2.5571,-2.4978,-2.5054,-2.4949,-2.4722,-2.4337,-2.419,-2.419,-2.419,-2.419,-2.419,-2.419,-2.4094,-2.3976,-2.3976,-2.3753,-2.3477,-2.3477,-2.3271,-2.2975,-2.2798,-2.2634,-2.249,-2.2321,-2.231,-2.231,-2.231,-2.231,-2.231,-2.231,-2.1989,-2.1735,-2.1735,-2.138,-2.1262,-2.1651,-2.1547,-2.1389,-2.1389,-2.123,-2.1217,-2.1549,-2.1159,-2.1239,-2.2215,-2.1418,-2.0883,-2.0975,-2.0991,-2.0599,-1.9762,-1.9874,-1.9909,-1.9711,-1.969,-1.969,-1.969,-1.969,-1.969,-1.969,-1.969,-1.969,-2.1336,-2.2556,-2.366,-2.4437,-2.5338,-2.51,-2.1551,-2.1599,0.0,0.0,-1.6569,-1.6834,-1.6487,0.0,-1.9576,0.0,0.0,0.0,0.0,0.0,0.0,0.0,0.0,0.0,0.0,-3.1603,0.0,-3.1439,-3.0655,-3.0951,-3.2731,-3.2246,-3.1836,-3.1641,-3.0312,-2.949,-2.9259,-2.855,-2.8052,-2.7733,-2.7729,-2.7584,-2.7351,-2.7544,-2.714,-2.6322,-2.6347,-2.5413,-2.3915,-2.4632,-2.4284,-2.3412,-2.4264,-2.4478,-2.4247,-2.4247,-2.4247,-2.419,-2.419,-2.419,-2.419,-2.419,-2.419,-2.419,-2.419,-2.4151,-2.4094,-2.4094,-2.3795,-2.3414,-2.3165,-2.2848,-2.2512,-2.2146,-2.2073,-2.2023,-2.1854,-2.182,-2.182,-2.182,-2.1346,-2.0923,-2.0923,-2.0433,-2.0204,-2.0839,-2.0923,-2.0923,-2.0923,-2.0923,-2.1019,-2.1218,-2.0948,-2.1008,-2.1752,-2.1046,-2.0661,-2.0876,-2.0893,-2.0573,-1.9874,-1.9909,-1.9889,-1.9711,-1.969,-1.969,-1.969,-1.969,-1.969,-1.969,-1.969,-1.969,-2.0643,-2.2235,-2.3769,-2.4792,-2.5142,-2.4847,-2.3417,0.0,0.0,-1.8726,-1.7809,-1.7452,-1.7456,-1.7789,0.0,0.0,0.0,-2.3922,0.0,0.0,0.0,0.0,0.0,0.0,-3.1527,-3.0582,-3.0207,-3.0568,-2.9926,-2.9917,-3.0894,-3.0993,-3.0664,-2.9863,-2.9687,-2.9219,-2.8418,-2.8266,-2.7764,-2.6909,-2.6856,-2.6367,-2.5572,-2.637,-2.6236,-2.5457,-2.6235,-2.562,-2.4137,-2.4928,-2.4654,-2.3828,-2.4631,-2.4747,-2.4478,-2.4478,-2.4357,-2.419,-2.419,-2.419,-2.419,-2.419,-2.419,-2.419,-2.419,-2.3996,-2.3753,-2.3753,-2.33,-2.2797,-2.2746,-2.2537,-2.2152,-2.1475,-2.1305,-2.1092,-2.0356,-2.0204,-2.0204,-2.0204,-2.0154,-2.0103,-2.0103,-2.0052,-2.0018,-2.0086,-2.0103,-2.0103,-2.0103,-2.0103,-2.012,-2.0136,-1.9529,-1.9418,-2.0137,-1.9218,-1.9131,-2.0467,-2.0537,-2.0457,-2.0249,-2.0665,-2.0514,-1.9726,-1.969,-1.969,-1.969,-1.969,-1.969,-1.969,-1.969,-1.969,-1.8974,-2.0763,-2.2515,-2.3658,-2.3912,-2.3583,-2.2309,0.0,-2.0831,-1.8499,-1.8002,-1.789,-1.7552,-1.7559,-1.821,0.0,0.0,0.0,0.0,0.0,0.0,0.0,0.0,0.0,0.0,0.0,-2.8316,-2.8114,-2.7849,-2.8113,-2.9032,-2.9205,-2.9137,-2.8828,-2.8301,-2.7871,-2.7519,-2.697,-2.6462,-2.6019,-2.5987,-2.5735,-2.5303,-2.5649,-2.563,-2.5322,-2.5668,-2.5196,-2.4223,-2.4975,-2.4735,-2.3945,-2.469,-2.4858,-2.4685,-2.4685,-2.4623,-2.4526,-2.4409,-2.4375,-2.4357,-2.4247,-2.419,-2.419,-2.419,-2.4094,-2.3996,-2.3996,-2.3816,-2.3566,-2.3346,-2.2608,-2.1764,-2.1298,-2.0822,-2.0399,-2.0069,-2.0002,-2.0002,-2.0002,-1.963,-1.935,-1.935,-1.8954,-1.8819,-1.9283,-1.935,-1.935,-1.935,-1.935,-1.9181,-1.8718,-1.8809,-1.9198,-1.9934,-1.9169,-1.8992,-1.9789,-2.0249,-2.0348,-2.0067,-2.0671,-2.0845,-2.0481,-2.0481,-2.033,-2.0054,-2.0054,-1.9929,-1.969,-1.969,-1.969,-1.8143,-1.9904,-2.1683,-2.2815,-2.3053,-2.2703,0.0,0.0,-2.0661,-1.8605,-1.8336,-1.8334,-1.7803,-1.7659,-1.7889,0.0,0.0,-2.133,-2.4321,0.0,0.0,0.0,0.0,-2.8635,0.0,-2.7683,-2.7312,-2.6941,-2.6709,-2.6906,-2.7574,-2.7468,-2.7527,-2.7888,-2.7304,-2.6875,-2.6621,-2.6016,-2.5637,-2.5535,-2.5517,-2.5317,-2.4979,-2.5206,-2.5168,-2.4965,-2.5207,-2.4869,-2.4223,-2.4995,-2.4764,-2.4034,-2.4796,-2.4841,-2.4496,-2.4441,-2.4233,-2.3938,-2.3752,-2.3871,-2.3985,-2.3603,-2.3639,-2.3859,-2.3859,-2.4006,-2.419,-2.419,-2.3948,-2.3575,-2.298,-2.2041,-2.1132,-2.0738,-2.0153,-1.9596,-1.9393,-1.9343,-1.9343,-1.9343,-1.8944,-1.8572,-1.8572,-1.8149,-1.798,-1.8504,-1.8572,-1.8572,-1.8572,-1.8572,-1.8386,-1.7862,-1.8268,-1.8792,-1.9309,-1.8877,-1.8757,-1.9223,-1.9953,-2.0282,-2.0102,-2.0779,-2.1118,-2.0991,-2.0991,-2.0829,-2.0516,-2.0382,-2.0158,-1.9874,-1.9747,-1.969,-1.8532,-2.0123,-2.1637,-2.2646,-2.2789,-2.2594,0.0,0.0,-2.0763,-1.9532,-1.9078,-1.8804,-1.8455,-1.8235,-1.8391,-1.926,0.0,0.0,-2.297,0.0,0.0,0.0,0.0,-2.7754,-2.807,-2.7793,-2.7682,-2.786,-2.7082,-2.6632,-2.6707,-2.5902,-2.5898,-2.6871,-2.697,-2.6582,-2.5723,-2.5703,-2.5661,-2.5601,-2.5539,-2.506,-2.4248,-2.4968,-2.4868,-2.4164,-2.4946,-2.4831,-2.4154,-2.4976,-2.4831,-2.4174,-2.4976,-2.4683,-2.3793,-2.3587,-2.2886,-2.2012,-2.1871,-2.2336,-2.2887,-2.2079,-2.2354,-2.2997,-2.2997,-2.3566,-2.419,-2.419,-2.3391,-2.2275,-2.1121,-2.062,-2.0217,-1.948,-1.9104,-1.8707,-1.798,-1.7828,-1.7828,-1.7828,-1.7828,-1.7805,-1.7805,-1.7811,-1.7811,-1.7805,-1.7805,-1.7805,-1.7805,-1.7805,-1.7811,-1.7811,-1.7811,-1.7805,-1.7828,-1.7828,-1.8132,-1.886,-1.9596,-2.0166,-2.0492,-2.1187,-2.1399,-2.1007,-2.0991,-2.0991,-2.0991,-2.0516,-2.0314,-2.028,-1.9874,-1.969,-1.7092,-1.844,-1.9954,-2.0832,-2.085,-2.0753,-2.1064,0.0,-1.9967,-1.9357,-1.9237,-1.913,-1.8735,-1.8625,-1.8796,-1.9426,-1.9777,0.0,0.0,0.0,0.0,-2.7019,-2.7055,-2.6804,0.0,0.0,-2.4922,-2.5841,-2.5122,-2.4949,-2.5707,-2.5,-2.5001,-2.5909,-2.601,-2.5615,-2.4754,-2.4784,-2.4509,-2.3881,-2.3868,-2.3663,-2.3322,-2.3595,-2.3851,-2.4076,-2.3797,-2.3821,-2.4124,-2.4369,-2.4013,-2.3353,-2.4177,-2.3928,-2.3112,-2.3054,-2.2821,-2.2517,-2.2332,-2.2388,-2.2466,-2.2052,-2.2052,-2.2171,-2.2171,-2.274,-2.3382,-2.3382,-2.3106,-2.259,-2.1429,-2.056,-1.9872,-1.9408,-1.8711,-1.8082,-1.7862,-1.7811,-1.7811,-1.7811,-1.7811,-1.7811,-1.7811,-1.7811,-1.7811,-1.7811,-1.7811,-1.7811,-1.7811,-1.7811,-1.7811,-1.7811,-1.7811,-1.7811,-1.7811,-1.7811,-1.7912,-1.8132,-1.9309,-2.0052,-2.015,-2.139,-2.2003,-2.1886,-2.1886,-2.1601,-2.0991,-2.0862,-2.0465,-1.9874,-1.9747,-1.969,0.0,-1.7963,-1.9334,-1.9925,-1.9896,-1.9885,0.0,0.0,-1.9465,-1.9301,-1.958,-1.9677,-1.9104,-1.9199,-1.9345,-1.9314,-2.0032,0.0,0.0,0.0,0.0,-2.5749,0.0,0.0,0.0,-2.4259,-2.398,-2.4847,-2.4468,-2.435,-2.4713,-2.4366,-2.4268,-2.4478,-2.4577,-2.4361,-2.3844,-2.3899,-2.3652,-2.3134,-2.3105,-2.2908,-2.2524,-2.2839,-2.3086,-2.3216,-2.3026,-2.3218,0.0,-2.3659,-2.3353,-2.2912,-2.3407,-2.309,-2.2312,-2.2249,-2.2019,-2.1713,-2.1534,-2.1637,-2.1745,-2.1311,-2.131,-2.1498,-2.1438,-2.1946,-2.2483,-2.2152,-2.2043,-2.1806,-2.0807,-2.0029,-1.9446,-1.9233,-1.8537,-1.7949,-1.7949,-1.7861,-1.7811,-1.7811,-1.7811,-1.7811,-1.7811,-1.7811,-1.7811,-1.7811,-1.7811,-1.7811,-1.7811,-1.7811,-1.7811,-1.7811,-1.7811,-1.7811,-1.7811,-1.7811,-1.7811,-1.7811,-1.9174,-2.0002,-2.0002,-2.1471,-2.231,-2.231,-2.231,-2.202,-2.1493,-2.1323,-2.0797,-1.9945,-1.9945,-1.9839,0.0,-1.831,-1.9406,-1.9688,-1.972,-1.9783,0.0,0.0,0.0,0.0,-2.0037,-2.0315,-1.9512,-1.9913,-2.0029,-1.9004,-2.0731,0.0,0.0,-2.2803,0.0,0.0,-2.462,0.0,-2.4483,-2.4461,-2.454,-2.4666,-2.4809,-2.4548,-2.3759,-2.3831,-2.3524,-2.2735,-2.2777,-2.287,-2.2984,-2.3008,-2.3018,-2.3008,-2.2959,-2.253,-2.1816,-2.2516,-2.2458,-2.1828,-2.2528,-2.2818,-2.2811,-2.2811,-2.2743,-2.2637,-2.2695,-2.2147,-2.1314,-2.1187,-2.0575,-1.9812,-1.9679,-2.016,-2.0733,-2.0035,-2.025,-2.0816,-2.0751,-2.1229,-2.1619,-2.0758,-2.0503,-2.0301,-1.951,-1.915,-1.9002,-1.9002,-1.8604,-1.8229,-1.8208,-1.8014,-1.7833,-1.7833,-1.7811,-1.7811,-1.7833,-1.7811,-1.7811,-1.7811,-1.7811,-1.7811,-1.7811,-1.7811,-1.7811,-1.7811,-1.7811,-1.7811,-1.7811,-1.7811,-1.7811,-1.7811,-1.9123,-1.9917,-1.9917,-2.1336,-2.2175,-2.2226,-2.2248,-2.222,-2.2141,-2.1702,-2.107,-2.0246,-2.0246,-2.0054,-1.6557,0.0,-1.7914,-1.828,-1.8448,-1.8615,0.0,0.0,0.0,0.0,0.0,-2.0047,-2.001,-2.059,-2.0653,-1.9391,0.0,0.0,-2.1385,0.0,0.0,-2.3975,-2.4556,-2.4643,-2.3831,-2.4077,-2.4116,-2.368,-2.3686,-2.3455,-2.2901,-2.2295,-2.1914,-2.1812,-2.1232,-2.1262,-2.1953,-2.2046,-2.1752,-2.1068,-2.115,-2.1033,-2.0759,-2.1035,-2.1362,-2.1695,-2.1267,-2.1425,-2.1974,-2.1974,-2.1549,-2.0953,-2.161,-2.093,-1.9573,-1.9558,-1.8993,-1.8237,-1.8206,-1.8694,-1.9371,-1.9692,-1.9477,-1.9209,-1.9844,-2.0919,-2.1747,-2.0772,-2.0503,-2.0301,-1.951,-1.915,-1.9002,-1.9002,-1.8752,-1.845,-1.8249,-1.8146,-1.8121,-1.8121,-1.7949,-1.7878,-1.8061,-1.7927,-1.7811,-1.7811,-1.7811,-1.7811,-1.7811,-1.7811,-1.7811,-1.7811,-1.7811,-1.7811,-1.7811,-1.7811,-1.7811,-1.7811,-1.8657,-1.9164,-1.9164,-2.0035,-2.0839,-2.1448,-2.1673,-2.1335,-2.0467,-2.0559,-2.0348,-1.9839,-1.9839,-1.9782,-1.6234,-1.6976,-1.7782,-1.8111,-1.8342,-1.8603,-1.8915,0.0,0.0,0.0,0.0,0.0,-2.0396,0.0,0.0,0.0,-2.1389,0.0,0.0,0.0,-2.3841,-2.3493,-2.3874,-2.3862,0.0,-2.3371,-2.3364,-2.2654,-2.2675,-2.2435,-2.1815,-2.1464,-2.1119,-2.0728,-2.0071,-1.994,-2.0443,-2.053,-2.0083,-1.9165,-1.971,-1.9908,-1.9825,-2.0365,-2.082,-2.1152,-2.0273,-2.0145,-2.0513,-2.0116,-1.9639,-1.9197,-1.9662,-1.9275,-1.8455,-1.8455,-1.8133,-1.7702,-1.7702,-1.8217,-1.8948,-1.9306,-1.9373,-1.9392,-1.9779,-2.0156,-2.0404,-2.0234,-2.0129,-1.9981,-1.9553,-1.9292,-1.9134,-1.9134,-1.8966,-1.8752,-1.8585,-1.8469,-1.8391,-1.8391,-1.827,-1.8208,-1.8351,-1.827,-1.8166,-1.8166,-1.8061,-1.7992,-1.7992,-1.7878,-1.7811,-1.7811,-1.7811,-1.7811,-1.7811,-1.7811,-1.7811,-1.7811,-1.8488,-1.8894,-1.8894,-1.9621,-2.0382,-2.1187,-2.134,-2.1176,-2.0677,-2.083,-2.0583,-1.9965,-1.9965,-1.9874,-1.6039,-1.7145,-1.8324,-1.8467,-1.8691,-1.8948,0.0,0.0,0.0,0.0,0.0,0.0,0.0,0.0,0.0,0.0,0.0,0.0,-2.3342,-2.3435,-2.3289,-2.2721,-2.3021,0.0,-2.2299,-2.2696,-2.2611,-2.1657,-2.1708,-2.1369,-2.049,-2.0814,-2.0557,-1.9462,-1.9115,-1.8838,-1.8678,-1.8816,-1.8503,-1.7699,-1.8573,-1.9034,-1.9124,-1.9993,-2.039,-2.0332,-1.9565,-1.914,-1.895,-1.822,-1.7875,-1.7812,-1.7812,-1.7726,-1.7616,-1.7606,-1.7495,-1.735,-1.7472,-1.7914,-1.8453,-1.8722,-1.9292,-1.9911,-1.9858,-1.9373,-1.9008,-1.9669,-1.9638,-1.9406,-1.9518,-1.9442,-1.9305,-1.9305,-1.9166,-1.9035,-1.9019,-1.8807,-1.8659,-1.8659,-1.8641,-1.8604,-1.8642,-1.8641,-1.8585,-1.8585,-1.841,-1.827,-1.827,-1.8061,-1.7927,-1.7927,-1.7927,-1.7927,-1.7927,-1.7883,-1.7878,-1.7878,-1.8409,-1.8724,-1.8724,-1.9452,-2.0111,-2.0679,-2.0889,-2.1038,-2.1105,-2.1203,-2.0891,-2.0226,-2.0159,-1.9997,-1.5856,-1.7242,-1.8671,-1.8532,-1.8452,-1.856,0.0,0.0,0.0,0.0,0.0,0.0,0.0,0.0,0.0,0.0,0.0,-2.2642,0.0,0.0,-2.3047,-2.207,0.0,-2.2864,-2.1966,-2.2558,-2.2355,-2.0814,-2.0717,-2.0166,-1.8845,-1.9456,-1.9225,-1.7803,-1.8354,-1.8042,-1.6739,-1.7578,-1.7896,-1.769,-1.796,-1.8445,-1.9105,-1.9322,-1.9404,-1.942,-1.9314,-1.8867,-1.8164,-1.8047,-1.7944,-1.7879,-1.7879,-1.7429,-1.6783,-1.6721,-1.6256,-1.5777,-1.6451,-1.6292,-1.6022,-1.7446,-1.7984,-1.8234,-1.8931,-1.9569,-2.0052,-2.0186,-1.93,-1.8489,-1.9169,-1.932,-1.9305,-1.9305,-1.9274,-1.9214,-1.9035,-1.8966,-1.8931,-1.8931,-1.8752,-1.8678,-1.8896,-1.8752,-1.8585,-1.8585,-1.8566,-1.8528,-1.8528,-1.8508,-1.8469,-1.8469,-1.8469,-1.8469,-1.8469,-1.827,-1.8125,-1.8125,-1.8029,-1.798,-1.798,-1.8691,-1.8826,-1.8335,-1.9545,-1.9738,-1.8805,-1.9422,-1.9829,-1.9941,-1.9542,-1.9688,-1.5359,-1.6264,-1.7364,-1.796,-1.8625,0.0,0.0,0.0,0.0,0.0,0.0,0.0,0.0,0.0,0.0,0.0,0.0,-2.3536,-2.3737,-2.3466,-2.2945,0.0,0.0,-2.1892,-2.1008,-2.1149,-2.0843,-1.9771,-1.9261,-1.8773,-1.8259,-1.8272,-1.7932,-1.7149,-1.7211,-1.6905,-1.6203,-1.627,-1.626,-1.6251,-1.6852,-1.7325,-1.7667,-1.8238,-1.8492,-1.8478,-1.8031,-1.7632,-1.7266,-1.6795,-1.6582,-1.6558,-1.6558,-1.6293,-1.5935,-1.588,-1.5613,-1.5357,-1.5719,-1.5873,-1.6036,-1.6804,-1.735,-1.7779,-1.8184,-1.8551,-1.8838,-1.8803,-1.8944,-1.9206,-1.95,-1.9523,-1.9331,-1.8787,-1.8977,-1.9164,-1.8635,-1.8859,-1.9166,-1.9166,-1.9066,-1.9033,-1.915,-1.9066,-1.8981,-1.8981,-1.8896,-1.8807,-1.8807,-1.8697,-1.8585,-1.8585,-1.8585,-1.8585,-1.8585,-1.8489,-1.829,-1.8014,-1.7861,-1.7861,-1.8014,-1.8206,-1.8387,-1.8613,-1.9134,-1.9236,-1.8897,-1.9225,-1.9438,-1.9531,-1.929,-1.9495,-1.4859,-1.536,-1.6197,-1.7249,0.0,0.0,0.0,0.0,0.0,0.0,0.0,0.0,0.0,0.0,0.0,-2.4489,-2.4398,-2.4003,-2.4005,-2.3566,-2.2945,-2.2157,-2.171,-2.1145,-2.034,-1.9987,-1.9482,-1.8716,-1.8034,-1.7575,-1.7413,-1.7172,-1.6824,-1.6269,-1.6101,-1.5931,-1.5771,-1.5211,-1.4977,-1.5061,-1.5824,-1.6275,-1.6457,-1.7225,-1.7569,-1.7545,-1.689,-1.652,-1.6347,-1.5674,-1.5404,-1.5391,-1.5391,-1.5407,-1.5392,-1.5336,-1.5304,-1.5293,-1.5295,-1.5707,-1.6217,-1.6226,-1.6769,-1.7439,-1.742,-1.7528,-1.7673,-1.7805,-1.8627,-1.9478,-1.9495,-1.942,-1.9199,-1.8633,-1.8976,-1.9253,-1.8643,-1.8976,-1.9405,-1.938,-1.9365,-1.9368,-1.9305,-1.9305,-1.9305,-1.9305,-1.9166,-1.9069,-1.9069,-1.8878,-1.8753,-1.8753,-1.8753,-1.8753,-1.8697,-1.8697,-1.8489,-1.8014,-1.7992,-1.8057,-1.8187,-1.8014,-1.8244,-1.8925,-1.8756,-1.8766,-1.9012,-1.9012,-1.9158,-1.9389,-1.9296,-1.9539,-1.4533,-1.5277,-1.6148,-1.6515,0.0,0.0,0.0,0.0,0.0,0.0,0.0,0.0,0.0,0.0,-2.1341,-2.2458,-2.2606,-2.2748,-2.3371,0.0,-2.3093,-2.2367,-2.1859,-2.1267,-2.0476,-2.003,-1.9193,-1.7719,-1.7559,-1.6865,-1.5386,-1.6156,-1.5954,-1.4431,-1.5257,-1.5432,-1.481,-1.4746,-1.4883,-1.5183,-1.5253,-1.5701,-1.649,-1.6571,-1.6598,-1.659,-1.661,-1.6176,-1.5494,-1.5434,-1.5404,-1.5391,-1.5391,-1.5407,-1.5394,-1.5392,-1.536,-1.5296,-1.5293,-1.5332,-1.5387,-1.5384,-1.5961,-1.6662,-1.6619,-1.7156,-1.7945,-1.8672,-1.84,-1.7984,-1.8474,-1.8595,-1.8764,-1.9491,-1.9717,-1.9755,-1.968,-1.9717,-1.9726,-1.9609,-1.9569,-1.9513,-1.9335,-1.9305,-1.9305,-1.9305,-1.9289,-1.9274,-1.9274,-1.9259,-1.9259,-1.9259,-1.9259,-1.9164,-1.8984,-1.8966,-1.8861,-1.8547,-1.8547,-1.843,-1.8208,-1.8187,-1.8095,-1.7901,-1.7879,-1.789,-1.7918,-1.7918,-1.8596,-1.9924,-1.9563,-1.9932,-1.4,-1.4483,-1.5191,-1.5839,0.0,0.0,0.0,0.0,0.0,0.0,0.0,0.0,0.0,0.0,-2.1388,-2.1623,-2.2367,-2.2832,-2.2621,-2.2793,-2.2515,-2.1304,-2.0846,-2.0116,-1.8904,-1.864,-1.8,-1.6659,-1.6536,-1.6098,-1.5145,-1.5092,-1.4774,-1.4028,-1.4623,-1.4809,-1.4526,-1.4648,-1.4813,-1.5008,-1.5054,-1.528,-1.5695,-1.5692,-1.571,-1.5762,-1.5773,-1.5615,-1.5336,-1.5389,-1.5373,-1.533,-1.533,-1.5362,-1.5409,-1.5409,-1.5371,-1.5362,-1.5368,-1.5362,-1.536,-1.5304,-1.5527,-1.5793,-1.576,-1.6367,-1.701,-1.6764,-1.6825,-1.7343,-1.8992,-1.9057,-1.8753,-1.9012,-1.9443,-1.9658,-1.916,-1.9462,-1.9797,-1.9726,-1.9662,-1.9587,-1.9499,-1.938,-1.9305,-1.9305,-1.9305,-1.9305,-1.9305,-1.9305,-1.9305,-1.9305,-1.9409,-1.9456,-1.9383,-1.9448,-1.9453,-1.9345,-1.8876,-1.8623,-1.8679,-1.8528,-1.8469,-1.8547,-1.8208,-1.8057,-1.8057,-1.7883,-1.8202,-1.895,-1.8785,-1.9281,-1.3598,-1.3932,-1.4513,0.0,0.0,0.0,0.0,0.0,0.0,0.0,0.0,0.0,0.0,0.0,0.0,0.0,-2.1596,-2.2102,-2.1792,-2.1794,-2.1477,-2.0466,-1.9756,-1.8977,-1.8088,-1.7769,-1.7147,-1.5949,-1.5827,-1.5435,-1.4609,-1.4211,-1.3955,-1.3795,-1.4136,-1.4289,-1.4247,-1.4437,-1.4608,-1.4738,-1.4846,-1.4985,-1.514,-1.514,-1.5182,-1.527,-1.527,-1.5287,-1.5297,-1.5343,-1.5346,-1.5296,-1.5296,-1.5329,-1.5366,-1.5392,-1.5402,-1.5409,-1.5407,-1.5403,-1.5381,-1.535,-1.5325,-1.5325,-1.5334,-1.5755,-1.6152,-1.582,-1.5905,-1.6614,-1.8754,-1.8901,-1.8532,-1.871,-1.9373,-1.9802,-1.9268,-1.9563,-1.9931,-1.9869,-1.9797,-1.9701,-1.9669,-1.9545,-1.9462,-1.9462,-1.9462,-1.9462,-1.9462,-1.9462,-1.9434,-1.9394,-1.955,-1.9649,-1.9596,-1.9713,-1.979,-1.979,-1.9273,-1.8995,-1.9066,-1.8771,-1.8659,-1.8752,-1.831,-1.8061,-1.8061,-1.7883,-1.798,-1.8316,-1.8323,-1.8718,-1.3394,-1.3802,0.0,0.0,0.0,0.0,0.0,0.0,0.0,0.0,0.0,0.0,0.0,0.0,0.0,-1.9889,-1.9993,-2.0215,-2.0878,-2.0414,-1.9981,-1.9965,-1.8744,-1.8011,-1.8341,-1.7708,-1.6818,-1.5694,-1.5595,-1.4952,-1.3481,-1.3542,-1.3601,-1.3601,-1.378,-1.3899,-1.3899,-1.411,-1.4271,-1.44,-1.4598,-1.4803,-1.4995,-1.4995,-1.5082,-1.5189,-1.5189,-1.5234,-1.5298,-1.5298,-1.5292,-1.5296,-1.5296,-1.5296,-1.5318,-1.5366,-1.5394,-1.5397,-1.5409,-1.5391,-1.5391,-1.5391,-1.5391,-1.539,-1.5401,-1.5394,-1.5565,-1.6363,-1.5971,-1.5682,-1.7357,-1.7799,-1.8019,-1.8893,-1.9716,-2.0307,-2.0307,-2.0301,-2.0241,-2.0031,-1.9993,-1.9963,-1.9824,-1.979,-1.979,-1.979,-1.979,-1.979,-1.979,-1.979,-1.975,-1.9609,-1.9713,-1.975,-1.9609,-1.9726,-1.979,-1.979,-1.979,-1.9626,-1.9213,-1.8824,-1.8489,-1.8208,-1.7949,-1.7811,-1.7811,-1.7811,-1.8004,-1.8409,-1.8409,-1.8388,-1.4043,-1.4249,0.0,0.0,0.0,0.0,0.0,0.0,0.0,0.0,0.0,0.0,0.0,0.0,0.0,-1.8375,-1.8848,-1.9271,-1.936,-1.9494,-1.9202,-1.823,-1.7984,-1.7535,-1.6588,-1.6765,-1.637,-1.501,-1.494,-1.464,-1.3859,-1.3548,-1.3411,-1.3445,-1.3756,-1.3824,-1.3691,-1.3899,-1.4078,-1.4259,-1.4326,-1.4548,-1.4936,-1.4977,-1.5028,-1.5056,-1.5171,-1.5207,-1.5229,-1.5229,-1.5201,-1.5159,-1.5202,-1.5202,-1.5168,-1.5288,-1.5326,-1.5331,-1.5321,-1.5353,-1.5402,-1.5402,-1.5408,-1.5391,-1.5409,-1.5409,-1.5446,-1.5682,-1.5578,-1.5481,-1.5984,-1.6997,-1.8075,-1.8892,-1.9718,-2.0295,-2.0306,-2.0289,-2.0277,-2.0214,-2.0106,-1.9993,-1.9953,-1.9869,-1.979,-1.979,-1.979,-1.979,-1.979,-1.979,-1.9778,-1.9738,-1.9858,-1.9914,-1.989,-2.0041,-2.0153,-2.0153,-1.992,-1.9695,-1.9476,-1.9361,-1.9209,-1.898,-1.8771,-1.8642,-1.8642,-1.827,-1.8138,-1.8239,-1.807,-1.8243,-1.3953,0.0,0.0,0.0,0.0,0.0,0.0,0.0,0.0,0.0,0.0,0.0,-1.7652,-1.7712,0.0,-1.759,-1.7876,-1.8158,-1.8072,-1.8205,-1.7991,-1.7151,-1.706,-1.6756,-1.6003,-1.6328,-1.6063,-1.474,-1.4697,-1.4336,-1.3495,-1.3176,-1.3088,-1.3243,-1.3444,-1.3539,-1.3526,-1.3693,-1.3838,-1.3969,-1.4123,-1.435,-1.4629,-1.4793,-1.4914,-1.4954,-1.5045,-1.5073,-1.5073,-1.5073,-1.5054,-1.5009,-1.5073,-1.5054,-1.5049,-1.5166,-1.5226,-1.5226,-1.5284,-1.5329,-1.5362,-1.5362,-1.5377,-1.5408,-1.5408,-1.541,-1.539,-1.5406,-1.5404,-1.5404,-1.5404,-1.6401,-1.7626,-1.8478,-1.9547,-2.0381,-2.038,-2.0365,-2.0341,-2.0341,-2.0243,-2.0149,-2.0149,-2.0096,-2.0035,-2.0035,-2.0011,-2.0002,-2.0002,-1.9993,-1.9962,-1.989,-2.0022,-2.0096,-2.0047,-2.0195,-2.0308,-2.0306,-2.0115,-1.9939,-1.9762,-1.949,-1.9308,-1.9182,-1.8966,-1.8825,-1.8825,-1.8508,-1.8232,-1.8005,-1.7849,-1.7859,0.0,0.0,0.0,0.0,0.0,0.0,0.0,0.0,0.0,0.0,0.0,-1.8137,-1.8686,-1.786,-1.7088,-1.7163,-1.7051,-1.6958,-1.6968,-1.6693,-1.653,-1.6561,-1.6039,-1.5838,-1.6219,-1.6184,-1.576,-1.478,-1.4597,-1.3982,-1.2712,-1.2604,-1.2703,-1.2977,-1.2961,-1.3085,-1.3312,-1.3476,-1.3537,-1.3586,-1.3969,-1.4126,-1.4098,-1.4515,-1.4738,-1.4772,-1.4772,-1.4734,-1.4678,-1.4753,-1.4782,-1.4773,-1.4857,-1.4895,-1.4894,-1.503,-1.5094,-1.5105,-1.523,-1.5284,-1.529,-1.529,-1.5334,-1.5392,-1.5392,-1.5383,-1.539,-1.539,-1.539,-1.539,-1.539,-1.6035,-1.6894,-1.7675,-1.9098,-2.0275,-2.0354,-2.0311,-2.0305,-2.0383,-2.0383,-2.0383,-2.0383,-2.0383,-2.0383,-2.0398,-2.0332,-2.0311,-2.0299,-2.0314,-2.0246,-2.0049,-2.0203,-2.0265,-2.013,-2.0246,-2.0313,-2.0313,-2.0301,-2.0203,-2.0031,-1.9421,-1.9084,-1.9067,-1.8825,-1.8698,-1.8698,-1.8642,-1.8356,-1.7825,-1.7781,-1.7482,0.0,-1.3658,0.0,0.0,0.0,0.0,0.0,0.0,0.0,0.0,-1.6065,-1.6099,-1.6404,-1.5878,-1.5555,-1.5992,-1.6032,-1.5954,-1.5865,-1.5439,-1.5213,-1.5428,-1.4965,-1.4947,-1.5824,-1.543,-1.5034,-1.4799,-1.3791,-1.3176,-1.3075,-1.2567,-1.2412,-1.2668,-1.2703,-1.2706,-1.2762,-1.3016,-1.321,-1.3378,-1.36,-1.351,-1.3137,-1.4206,-1.441,-1.3871,-1.3871,-1.352,-1.2986,-1.3615,-1.3852,-1.3868,-1.4605,-1.485,-1.4766,-1.4883,-1.497,-1.503,-1.505,-1.5177,-1.5299,-1.5299,-1.5313,-1.5326,-1.5326,-1.5312,-1.5319,-1.5319,-1.5319,-1.5319,-1.5319,-1.5964,-1.6668,-1.6863,-1.7693,-1.8629,-1.9196,-1.9311,-1.9505,-2.0191,-2.0328,-2.0328,-2.0328,-2.0328,-2.0325,-2.0326,-2.0316,-2.0318,-2.0379,-2.0381,-2.0366,-2.0313,-2.0342,-2.0371,-2.0332,-2.0352,-2.0376,-2.037,-2.0286,-2.0199,-2.016,-1.9926,-1.9729,-1.9632,-1.9476,-1.9394,-1.9394,-1.9067,-1.8843,-1.8734,-1.8492,-1.8214,0.0,0.0,0.0,0.0,0.0,0.0,0.0,0.0,0.0,-1.4585,-1.4935,-1.5156,-1.5228,-1.4871,-1.4625,-1.4896,-1.4879,-1.4727,-1.4341,-1.4266,-1.4174,-1.4012,-1.3742,-1.3968,-1.4991,-1.4335,-1.3982,-1.4292,-1.3223,-1.2558,-1.2529,-1.2201,-1.2128,-1.2396,-1.2412,-1.2475,-1.261,-1.2869,-1.3051,-1.3158,-1.3099,-1.2795,-1.2305,-1.303,-1.3188,-1.2869,-1.2869,-1.285,-1.285,-1.328,-1.3615,-1.3868,-1.4367,-1.4523,-1.4478,-1.46,-1.4738,-1.4873,-1.4942,-1.5026,-1.5108,-1.5151,-1.5173,-1.5205,-1.5205,-1.5206,-1.5202,-1.5179,-1.5187,-1.5206,-1.5206,-1.5595,-1.5977,-1.5977,-1.6958,-1.8001,-1.8391,-1.88,-1.9227,-1.9692,-2.008,-2.0354,-2.0354,-2.0354,-2.0357,-2.0347,-2.0312,-2.0312,-2.0346,-2.0357,-2.035,-2.035,-2.0355,-2.0358,-2.0343,-2.0345,-2.036,-2.0345,-2.0288,-2.0239,-2.0243,-2.0214,-2.01,-1.9907,-1.9801,-1.9741,-1.9741,-1.9494,-1.9283,-1.9097,-1.8945,-1.8717,0.0,0.0,0.0,0.0,0.0,0.0,0.0,0.0,0.0,-1.3647,-1.4116,-1.454,-1.454,-1.4048,-1.3716,-1.3825,-1.374,-1.348,-1.2956,-1.3135,-1.3186,-1.2747,-1.2622,-1.2982,-1.4098,-1.3275,-1.2962,-1.3671,-1.2715,-1.2009,-1.1874,-1.1763,-1.1833,-1.2107,-1.2128,-1.2251,-1.2455,-1.2722,-1.2869,-1.2869,-1.2384,-1.1954,-1.1565,-1.1423,-1.1543,-1.1864,-1.1827,-1.2211,-1.2835,-1.296,-1.3381,-1.3951,-1.4095,-1.4149,-1.4175,-1.4314,-1.4493,-1.4668,-1.4813,-1.4886,-1.4921,-1.4954,-1.5016,-1.5069,-1.5069,-1.5061,-1.5042,-1.5004,-1.5009,-1.5071,-1.5071,-1.5153,-1.5237,-1.5226,-1.6338,-1.7435,-1.7621,-1.822,-1.8815,-1.9107,-1.9822,-2.0381,-2.0381,-2.0381,-2.0381,-2.0374,-2.0335,-2.0299,-2.0324,-2.0323,-2.033,-2.033,-2.0312,-2.0312,-2.0328,-2.0312,-2.0312,-2.0328,-2.0312,-2.0311,-2.031,-2.036,-2.0305,-2.0073,-1.9996,-1.9953,-1.9953,-1.9867,-1.9663,-1.9327,-1.9327,-1.9118,0.0,0.0,0.0,0.0,0.0,0.0,0.0,0.0,-1.2715,0.0,-1.3231,-1.3403,-1.3403,-1.268,-1.2242,-1.2639,-1.2686,-1.2631,-1.2499,-1.2145,-1.198,-1.2268,-1.1884,-1.217,-1.3639,-1.2718,-1.2427,-1.3455,-1.2024,-1.1408,-1.2105,-1.1658,-1.1512,-1.1833,-1.1854,-1.1854,-1.1897,-1.2169,-1.2312,-1.2296,-1.1264,-1.0855,-1.0967,-0.9764,-0.982,-1.0874,-1.0757,-1.0818,-1.1003,-1.1591,-1.2251,-1.2979,-1.3662,-1.3941,-1.3969,-1.4162,-1.432,-1.4475,-1.4668,-1.4804,-1.4904,-1.4902,-1.4919,-1.4928,-1.4928,-1.4936,-1.4925,-1.4917,-1.4917,-1.4933,-1.4933,-1.4942,-1.495,-1.4952,-1.512,-1.556,-1.6496,-1.6777,-1.7298,-1.8744,-1.9721,-2.0311,-2.0311,-2.0311,-2.032,-2.0313,-2.0316,-2.0323,-2.0375,-2.0386,-2.039,-2.039,-2.0396,-2.0393,-2.0383,-2.0393,-2.0393,-2.0383,-2.0393,-2.0396,-2.039,-2.0399,-2.0372,-2.0341,-2.0214,-2.016,-2.016,-2.0031,-1.9915,-1.9808,-1.9808,-1.9616,0.0,0.0,0.0,0.0,0.0,0.0,0.0,0.0,-1.2282,-1.2774,-1.2781,-1.2665,-1.269,-1.237,-1.2125,-1.2112,-1.2102,-1.1896,-1.1305,-1.1018,-1.0743,-1.0335,-1.0098,-1.0507,-1.1998,-1.1407,-1.1549,-1.3018,-1.2124,-1.1628,-1.1911,-1.1657,-1.1446,-1.1293,-1.1423,-1.1512,-1.1512,-1.1982,-1.2064,-1.1791,-1.0925,-1.0527,-1.0588,-0.9577,-0.9428,-0.994,-1.0288,-1.072,-1.1226,-1.1918,-1.2604,-1.3238,-1.3599,-1.3721,-1.3736,-1.3824,-1.4047,-1.4308,-1.4398,-1.453,-1.4677,-1.4766,-1.4785,-1.4785,-1.4785,-1.4785,-1.4776,-1.4687,-1.4727,-1.4785,-1.4785,-1.4832,-1.4904,-1.4904,-1.4904,-1.5024,-1.551,-1.6306,-1.7467,-1.9216,-1.9802,-2.0079,-2.0269,-2.0144,-2.0041,-2.0126,-2.0065,-2.002,-2.0052,-2.006,-2.006,-2.006,-2.0096,-2.0104,-2.0068,-2.0096,-2.0104,-2.0068,-2.0096,-2.0104,-2.006,-2.0134,-2.016,-2.0113,-2.0204,-2.0275,-2.0316,-2.0216,-2.0136,-2.0077,-2.0022,-1.9879,0.0,0.0,0.0,0.0,0.0,0.0,0.0,0.0,-1.1827,0.0,-1.2244,-1.2041,-1.1802,-1.1902,-1.1947,-1.1619,-1.159,-1.1328,-1.0565,-1.0442,-1.0129,-0.9229,-0.9129,-0.96,-1.0786,-1.0478,-1.0821,-1.2429,-1.1903,-1.1518,-1.1589,-1.1453,-1.1242,-1.091,-1.1094,-1.1196,-1.1196,-1.171,-1.1846,-1.1565,-1.0898,-1.0585,-1.0568,-0.9892,-0.9574,-0.9612,-1.0156,-1.0889,-1.1768,-1.2276,-1.2912,-1.3556,-1.3556,-1.3556,-1.3556,-1.3586,-1.378,-1.4051,-1.411,-1.4214,-1.4356,-1.4467,-1.4501,-1.4501,-1.4501,-1.4501,-1.4478,-1.4368,-1.4462,-1.4574,-1.4574,-1.4697,-1.4813,-1.4813,-1.4813,-1.486,-1.515,-1.63,-1.7756,-1.9324,-1.9717,-1.9877,-2.0135,-1.9971,-1.9836,-1.9924,-1.9869,-1.979,-1.979,-1.979,-1.979,-1.979,-1.9834,-1.9855,-1.9802,-1.9876,-1.9896,-1.9802,-1.9876,-1.9886,-1.9802,-1.983,-1.9812,-1.9768,-1.9973,-2.0161,-2.036,-2.0292,-2.0263,-2.0249,-2.0205,-2.0128,0.0,0.0,0.0,0.0,0.0,0.0,0.0,0.0,-1.1036,-1.0997,-1.1456,-1.1523,-1.0511,-1.0667,-1.1005,-1.1016,-1.1046,-1.0988,-1.0873,-1.0865,-1.0642,-1.0101,-1.0046,-1.0277,-1.0843,-1.0432,-1.0587,-1.1759,-1.0781,-1.0444,-1.128,-1.078,-1.0597,-1.0897,-1.092,-1.092,-1.092,-1.1196,-1.1498,-1.1788,-1.1092,-1.0875,-1.1035,-1.0376,-1.017,-1.0336,-1.0367,-1.1042,-1.2067,-1.1975,-1.2506,-1.3413,-1.3413,-1.3413,-1.343,-1.3556,-1.36,-1.3646,-1.3856,-1.3927,-1.3941,-1.3941,-1.3938,-1.3938,-1.3938,-1.3938,-1.3938,-1.3941,-1.4065,-1.4227,-1.4227,-1.4368,-1.4511,-1.4511,-1.4511,-1.4803,-1.5818,-1.6686,-1.7545,-1.841,-1.9232,-1.9821,-1.9813,-1.9802,-1.979,-1.9802,-1.9802,-1.979,-1.979,-1.979,-1.979,-1.979,-1.9802,-1.9802,-1.979,-1.9914,-1.9934,-1.9802,-1.9914,-1.9953,-1.9821,-1.9563,-1.9431,-1.9417,-1.9438,-1.9713,-2.0208,-2.0214,-2.0269,-2.039,-2.039,-2.0375,0.0,0.0,0.0,0.0,0.0,0.0,-0.9231,-0.9717,-1.0048,-1.0216,-1.074,-1.088,-1.0045,-1.0032,-1.003,-0.981,-0.9623,-0.9394,-0.9087,-0.9032,-0.8993,-0.8877,-0.8897,-0.92,-1.0001,-1.0214,-1.0443,-1.0747,-1.0636,-1.0563,-1.0532,-1.0279,-1.0205,-1.0314,-1.0494,-1.0691,-1.0897,-1.1015,-1.1173,-1.1468,-1.062,-1.0683,-1.152,-1.0693,-1.0658,-1.1307,-1.1307,-1.1452,-1.1757,-1.2176,-1.2553,-1.2889,-1.2889,-1.2997,-1.3156,-1.3192,-1.3378,-1.36,-1.3676,-1.378,-1.3913,-1.3913,-1.3913,-1.3913,-1.3913,-1.3913,-1.3913,-1.3913,-1.3955,-1.4011,-1.4011,-1.4051,-1.4105,-1.4105,-1.4611,-1.5301,-1.6069,-1.6516,-1.7224,-1.8675,-1.9121,-1.9295,-1.9295,-1.9284,-1.925,-1.9158,-1.9231,-1.9286,-1.9286,-1.9405,-1.949,-1.949,-1.9361,-1.9286,-1.9286,-1.9343,-1.9343,-1.9286,-1.9439,-1.9467,-1.9301,-1.9191,-1.9059,-1.8892,-1.9059,-1.9337,-1.9755,-2.0015,-2.0172,-2.0278,-2.0311,-2.0348,0.0,0.0,0.0,0.0,0.0,-0.7304,-0.8041,0.0,-0.8812,-0.889,-0.9565,-0.9903,-0.9167,-0.9154,-0.9221,-0.9112,-0.8865,-0.8593,-0.8275,-0.8234,-0.8309,-0.8488,-0.8517,-0.8803,-0.9639,-1.0001,-1.024,-1.0225,-1.0495,-1.0516,-1.0143,-1.0057,-1.0013,-0.9986,-1.017,-1.0417,-1.0715,-1.0739,-1.0883,-1.115,-1.0523,-1.0686,-1.1468,-1.0951,-1.1046,-1.1637,-1.1747,-1.178,-1.1766,-1.2246,-1.2514,-1.261,-1.261,-1.2722,-1.2869,-1.2869,-1.3019,-1.3278,-1.3378,-1.3491,-1.3601,-1.3601,-1.3663,-1.3726,-1.3632,-1.3601,-1.3601,-1.3601,-1.3582,-1.3598,-1.3676,-1.3733,-1.3845,-1.4185,-1.4719,-1.5439,-1.6444,-1.6788,-1.7325,-1.8723,-1.893,-1.8877,-1.8868,-1.8875,-1.8843,-1.8753,-1.8807,-1.8878,-1.8878,-1.8982,-1.9082,-1.9082,-1.8948,-1.8878,-1.8878,-1.8982,-1.9051,-1.9001,-1.918,-1.9196,-1.9019,-1.8825,-1.8659,-1.8469,-1.8623,-1.8839,-1.9048,-1.9654,-2.0016,-2.0173,-2.0221,-2.0273,0.0,0.0,0.0,0.0,0.0,0.0,-0.6852,-0.7154,-0.737,-0.7044,-0.786,-0.8469,-0.7812,-0.8088,-0.8512,-0.8956,-0.8814,-0.8667,-0.8667,-0.8667,-0.8799,-0.9058,-0.9099,-0.9306,-0.982,-0.9904,-0.9994,-1.0215,-1.018,-1.0169,-1.0169,-1.0098,-1.0071,-1.0003,-1.0009,-1.0116,-1.0386,-1.0398,-1.0559,-1.0897,-1.0873,-1.0873,-1.0897,-1.115,-1.1273,-1.131,-1.1637,-1.1933,-1.2169,-1.2169,-1.2352,-1.2572,-1.2572,-1.2591,-1.2591,-1.2591,-1.2591,-1.263,-1.2906,-1.2995,-1.2995,-1.2995,-1.3156,-1.3329,-1.3067,-1.2995,-1.2995,-1.2995,-1.2929,-1.2951,-1.321,-1.3392,-1.3717,-1.4709,-1.4824,-1.5176,-1.6906,-1.7469,-1.7821,-1.8428,-1.855,-1.8531,-1.8531,-1.8548,-1.8566,-1.8547,-1.8547,-1.8566,-1.8566,-1.8566,-1.8585,-1.8585,-1.8585,-1.8585,-1.8585,-1.8943,-1.9109,-1.8984,-1.9111,-1.9109,-1.8984,-1.8469,-1.8187,-1.8166,-1.8187,-1.8187,-1.8187,-1.9125,-1.976,-2.0073,-2.0073,-2.0173,-1.4701,0.0,0.0,0.0,0.0,0.0,-0.686,-0.6812,-0.6838,-0.6752,-0.7309,-0.7737,-0.7447,-0.7961,-0.8104,-0.7156,-0.7648,-0.8134,-0.8134,-0.8134,-0.8299,-0.8738,-0.8792,-0.9012,-0.9547,-0.9591,-0.9399,-0.8875,-0.9154,-0.925,-0.9103,-0.9794,-1.0153,-1.0062,-1.0071,-1.0068,-1.0112,-1.01,-1.0257,-1.0532,-1.0298,-1.0422,-1.0897,-1.0726,-1.0774,-1.1015,-1.1094,-1.1287,-1.1564,-1.1811,-1.1961,-1.2009,-1.2009,-1.2149,-1.2312,-1.2312,-1.2435,-1.261,-1.2687,-1.2722,-1.2722,-1.2722,-1.2762,-1.2815,-1.2724,-1.2722,-1.2722,-1.2722,-1.2706,-1.2708,-1.2764,-1.2822,-1.2911,-1.3198,-1.3918,-1.4586,-1.4708,-1.5488,-1.6444,-1.7355,-1.7322,-1.7082,-1.6905,-1.7271,-1.7524,-1.7335,-1.7449,-1.7575,-1.7575,-1.7962,-1.8243,-1.8243,-1.8275,-1.831,-1.831,-1.8415,-1.8454,-1.843,-1.8643,-1.8662,-1.843,-1.827,-1.8001,-1.7562,-1.7749,-1.7842,-1.7842,-1.8821,-1.936,-1.9436,-1.9544,-1.965,0.0,0.0,0.0,0.0,0.0,0.0,-0.6537,-0.6208,-0.6033,-0.5708,-0.6165,-0.6613,-0.637,-0.6968,-0.7059,-0.5859,-0.6212,-0.6749,-0.7008,-0.7044,-0.7272,-0.8021,-0.8131,-0.8462,-0.9274,-0.9368,-0.9229,-0.8843,-0.9055,-0.9216,-0.9197,-1.001,-1.038,-1.0141,-1.012,-1.0124,-1.0042,-0.9884,-0.9862,-1.0007,-0.9613,-0.9725,-1.026,-1.0184,-1.0333,-1.0691,-1.0849,-1.0991,-1.115,-1.1468,-1.1681,-1.1805,-1.1805,-1.1912,-1.2024,-1.2024,-1.2128,-1.2276,-1.2396,-1.2435,-1.2435,-1.2435,-1.2514,-1.2572,-1.2455,-1.2435,-1.2435,-1.2435,-1.2435,-1.2435,-1.2435,-1.2435,-1.2534,-1.2959,-1.3531,-1.4025,-1.4142,-1.4501,-1.5064,-1.5961,-1.6201,-1.6221,-1.6072,-1.6596,-1.6978,-1.6841,-1.6944,-1.7036,-1.7036,-1.7332,-1.7563,-1.7563,-1.7574,-1.7608,-1.7608,-1.7726,-1.7781,-1.7781,-1.7933,-1.7954,-1.7798,-1.7682,-1.7446,-1.7101,-1.7239,-1.7372,-1.7478,-1.8181,-1.8627,-1.8833,-1.9114,-1.9244,0.0,0.0,0.0,0.0,-0.8924,0.0,-0.6159,-0.5575,-0.5202,-0.4503,-0.4849,-0.5242,-0.4968,-0.5446,-0.5645,-0.4727,-0.4675,-0.4942,-0.5672,-0.577,-0.6101,-0.7109,-0.7212,-0.7682,-0.8784,-0.8991,-0.9099,-0.9221,-0.9352,-0.9555,-0.9838,-1.0461,-1.0596,-1.0179,-1.018,-1.0179,-1.0103,-0.975,-0.9547,-0.9496,-0.9079,-0.9065,-0.9396,-0.961,-0.9932,-1.0347,-1.0619,-1.0777,-1.0873,-1.1103,-1.1423,-1.1747,-1.1783,-1.1783,-1.1747,-1.1747,-1.1747,-1.1768,-1.2024,-1.2128,-1.2164,-1.2164,-1.2332,-1.2475,-1.2231,-1.2164,-1.2149,-1.2107,-1.2107,-1.2086,-1.2066,-1.2086,-1.2324,-1.321,-1.3309,-1.3402,-1.4281,-1.3967,-1.3727,-1.4357,-1.5094,-1.5639,-1.5639,-1.6212,-1.6686,-1.6686,-1.6686,-1.6686,-1.6686,-1.6712,-1.6738,-1.6738,-1.6789,-1.6789,-1.6789,-1.7011,-1.7173,-1.7173,-1.7109,-1.7109,-1.7109,-1.6811,-1.6628,-1.6602,-1.6644,-1.6751,-1.6905,-1.7326,-1.7799,-1.8247,-1.8623,-1.877,0.0,0.0,0.0,0.0,-1.0034,0.0,-0.6951,-0.587,-0.5193,-0.4781,-0.4393,-0.4143,-0.4193,-0.4506,-0.4307,-0.2921,-0.3229,-0.4053,-0.5221,-0.5466,-0.5786,-0.6473,-0.6676,-0.6844,-0.7105,-0.7635,-0.7899,-0.7729,-0.8406,-0.9082,-0.9551,-0.9926,-1.0067,-0.9954,-1.0166,-1.023,-1.0165,-1.0106,-0.9884,-0.9507,-0.9407,-0.938,-0.9408,-0.9104,-0.9372,-0.9995,-0.979,-1.0008,-1.0508,-1.0543,-1.0902,-1.1423,-1.1681,-1.1637,-1.14,-1.14,-1.14,-1.1423,-1.1468,-1.1645,-1.1891,-1.1891,-1.1918,-1.194,-1.1897,-1.1891,-1.1811,-1.1557,-1.1475,-1.1423,-1.121,-1.131,-1.1541,-1.1711,-1.2106,-1.2401,-1.2375,-1.2442,-1.2463,-1.2396,-1.3544,-1.4514,-1.4514,-1.5349,-1.5983,-1.5983,-1.5983,-1.5983,-1.5983,-1.6219,-1.6394,-1.6394,-1.6633,-1.6789,-1.6789,-1.685,-1.6885,-1.6885,-1.6564,-1.6391,-1.6391,-1.5979,-1.5645,-1.536,-1.5677,-1.5563,-1.5034,-1.6531,-1.7467,-1.7817,-1.764,-1.7294,0.0,0.0,0.0,-1.1387,-1.0521,0.0,0.0,-0.6927,-0.6184,-0.5275,-0.4676,-0.4124,-0.3581,-0.3427,-0.2873,-0.1456,-0.1365,-0.171,-0.2376,-0.3594,-0.4797,-0.5822,-0.5694,-0.5806,-0.6534,-0.6622,-0.6839,-0.7437,-0.8568,-0.9302,-0.9367,-1.0114,-1.033,-0.9896,-1.0368,-1.0508,-1.025,-1.0019,-0.9792,-0.9545,-0.9161,-0.9017,-0.9146,-0.8744,-0.8844,-0.9331,-0.917,-0.941,-0.9906,-1.0059,-1.0394,-1.0879,-1.1219,-1.1256,-1.1094,-1.1094,-1.1094,-1.1094,-1.1094,-1.121,-1.1347,-1.1347,-1.154,-1.1751,-1.1751,-1.1751,-1.1656,-1.1226,-1.1094,-1.1071,-1.092,-1.1015,-1.1127,-1.1287,-1.152,-1.171,-1.1579,-1.179,-1.1876,-1.1437,-1.2382,-1.341,-1.3919,-1.4995,-1.5799,-1.5799,-1.5799,-1.5799,-1.5799,-1.5955,-1.5968,-1.571,-1.5838,-1.5879,-1.5665,-1.5665,-1.5549,-1.533,-1.511,-1.5006,-1.5006,-1.4527,-1.4173,-1.4006,-1.4701,-1.4623,-1.3749,-1.5184,-1.6142,-1.6639,-1.6406,-1.6129,0.0,0.0,-1.1732,-1.1446,-1.0769,-0.9885,0.0,0.0,0.0,-0.5969,-0.523,-0.4432,0.0,0.0,0.0,-0.0319,0.0279,0.0,0.0,-0.1338,-0.3133,-0.4502,-0.4217,-0.4398,-0.565,-0.5445,-0.5909,-0.7391,-0.8659,-0.9233,-0.8941,-1.0124,-1.0478,-0.9778,-1.0474,-1.0656,-1.0243,-0.9973,-0.9758,-0.9583,-0.8867,-0.866,-0.888,-0.8402,-0.841,-0.8789,-0.8734,-0.8926,-0.9316,-0.961,-0.9919,-1.0247,-1.0715,-1.0873,-1.0801,-1.0801,-1.0801,-1.0801,-1.0801,-1.0849,-1.0897,-1.0897,-1.1179,-1.1552,-1.1552,-1.1552,-1.1431,-1.0851,-1.0678,-1.0691,-1.0619,-1.0667,-1.0774,-1.1066,-1.1182,-1.1219,-1.1219,-1.1423,-1.1482,-1.0991,-1.1611,-1.251,-1.3447,-1.4591,-1.5432,-1.5521,-1.5551,-1.5551,-1.5551,-1.5551,-1.5389,-1.5013,-1.4968,-1.4845,-1.4533,-1.4424,-1.4205,-1.3841,-1.3631,-1.3532,-1.3532,-1.3057,-1.2758,-1.2758,-1.3631,-1.3677,-1.2758,-1.3638,-1.4439,-1.5184,-1.5125,-1.4979,-1.2775,-1.2401,-1.2302,-1.1498,-1.1098,-1.062,-0.9579,0.0,-0.795,-0.6998,0.0,-0.4482,-0.3475,0.0,0.0,0.0,0.0771,0.099,0.0492,0.0325,-0.0239,-0.1441,-0.1934,-0.2332,-0.2644,-0.3804,-0.5145,-0.6627,-0.7503,-0.7919,-0.7888,-0.8882,-0.9396,-0.9272,-1.0177,-1.0398,-0.996,-1.0495,-1.0342,-0.9592,-0.916,-0.8918,-0.888,-0.8118,-0.8138,-0.8789,-0.8495,-0.8551,-0.8899,-0.9277,-0.9475,-0.9607,-1.0545,-1.0715,-1.0458,-1.0458,-1.0458,-1.0458,-1.0458,-1.0667,-1.0897,-1.0897,-1.0952,-1.0993,-1.0993,-1.0993,-1.0845,-1.0134,-0.9919,-0.9881,-0.9621,-0.9752,-1.002,-1.0407,-1.0739,-1.0944,-1.0944,-1.0991,-1.0991,-1.0897,-1.1454,-1.2144,-1.2732,-1.3431,-1.4104,-1.4575,-1.4658,-1.4658,-1.4658,-1.4658,-1.4627,-1.4564,-1.4564,-1.4564,-1.4501,-1.4127,-1.3874,-1.3808,-1.3026,-1.2554,-1.2554,-1.2164,-1.1934,-1.1934,-1.2401,-1.2401,-1.1934,-1.2306,-1.2893,-1.3744,-1.391,-1.348,-1.2991,-1.3239,-1.3536,-1.2812,-1.3161,-1.3383,-1.2298,-1.1267,-1.0264,-0.9287,0.0,0.0,0.0,0.0,0.0,0.0,0.097,0.1548,0.1753,0.1873,0.1176,-0.0823,-0.0843,-0.091,-0.1345,-0.2824,-0.4144,-0.5149,-0.5953,-0.6744,-0.7546,-0.8448,-0.9004,-0.9195,-1.0326,-1.0597,-0.9896,-1.0567,-1.0605,-1.0,-0.957,-0.9338,-0.9277,-0.8718,-0.8487,-0.857,-0.843,-0.8425,-0.8523,-0.869,-0.8883,-0.9089,-0.9518,-0.9868,-1.011,-1.011,-1.011,-1.0084,-0.988,-0.9906,-1.0085,-1.039,-1.0491,-1.0491,-1.0491,-1.0318,-1.0015,-0.9405,-0.9215,-0.9189,-0.9089,-0.9131,-0.9366,-0.9966,-1.0186,-1.0429,-1.1015,-1.1014,-1.0982,-1.1241,-1.1415,-1.171,-1.2393,-1.3171,-1.3871,-1.4405,-1.4501,-1.4501,-1.4501,-1.4501,-1.4406,-1.4181,-1.4149,-1.3921,-1.3408,-1.3363,-1.3034,-1.2248,-1.1502,-1.087,-1.0301,-1.0606,-1.0702,-1.0475,-1.086,-1.086,-1.0475,-1.0808,-1.0893,-1.0724,-1.1633,-1.1646,-1.3581,-1.4059,-1.447,-1.3993,-1.4645,-1.5177,-1.4247,-1.3232,-1.2212,-1.1278,-0.9591,0.0,0.0,0.0,0.0,0.0,0.0,0.1496,0.2254,0.2516,0.1998,0.0239,0.0392,0.03,-0.0565,-0.1766,-0.2926,-0.384,-0.4809,-0.5822,-0.6866,-0.7866,-0.8553,-0.8767,-1.0082,-1.0501,-0.9787,-1.0483,-1.0647,-1.0273,-0.9844,-0.9592,-0.9573,-0.9082,-0.8672,-0.8401,-0.8252,-0.8199,-0.8148,-0.8262,-0.8449,-0.8679,-0.8761,-0.9143,-0.9607,-0.9712,-0.9764,-0.9724,-0.9475,-0.9316,-0.9321,-0.9821,-0.9912,-0.9843,-0.994,-0.9701,-0.9276,-0.8817,-0.8662,-0.8684,-0.8788,-0.882,-0.9016,-0.9786,-0.9902,-1.0069,-1.0822,-1.0916,-1.0977,-1.131,-1.1211,-1.1369,-1.2241,-1.2917,-1.3537,-1.4068,-1.4149,-1.4149,-1.4149,-1.4149,-1.3986,-1.3555,-1.3522,-1.3182,-1.2389,-1.2389,-1.189,-1.0666,-1.0141,-0.9564,-0.8824,-0.9399,-0.9573,-0.9279,-0.9582,-0.9494,-0.9053,-0.9217,-0.8937,-0.8328,-0.9584,-0.9878,-1.4436,-1.4513,-1.4748,-1.4604,-1.4742,-1.4834,-1.4475,-1.3759,-1.3,-1.2467,-1.0957,-0.9224,-0.7534,0.0,0.0,0.0,0.0,0.0,0.0,0.1855,0.2375,0.2578,0.2181,0.1378,-0.0095,-0.0441,-0.13,-0.3018,-0.4298,-0.5112,-0.5379,-0.6892,-0.7717,-0.7765,-0.9117,-0.9726,-0.9504,-1.023,-1.0511,-1.0273,-0.9844,-0.9592,-0.9563,-0.8779,-0.842,-0.8391,-0.793,-0.7715,-0.7754,-0.8148,-0.8308,-0.8336,-0.8679,-0.8816,-0.8871,-0.9262,-0.9408,-0.9408,-0.9408,-0.9155,-0.8871,-0.9286,-0.9178,-0.8921,-0.9313,-0.9151,-0.8756,-0.8421,-0.8319,-0.8413,-0.8795,-0.89,-0.9108,-0.9916,-1.0079,-1.0111,-1.0144,-1.0504,-1.0805,-1.081,-1.0829,-1.1164,-1.2207,-1.2404,-1.2625,-1.3144,-1.3232,-1.3232,-1.3232,-1.3232,-1.3047,-1.2579,-1.2532,-1.2354,-1.1847,-1.1172,-1.0437,-0.9592,-0.9289,-0.9101,-0.9109,-0.8857,-0.8756,-0.8716,-0.8756,-0.8448,-0.787,-0.7478,-0.7262,-0.726,-0.816,-0.8311,-1.452,-1.517,-1.5618,-1.518,-1.5861,-1.6465,-1.5863,-1.464,-1.36,-1.3317,-1.1724,-1.0016,-0.878,0.0,0.0,0.0,0.0,0.0,0.0,0.1147,0.2057,0.2271,0.1856,0.1245,0.0473,-0.0328,-0.1269,0.0,-0.3226,0.0,-0.4996,-0.6162,-0.7241,-0.8203,-0.9277,-0.9849,-0.9961,-1.0369,-1.0389,-1.0022,-1.0069,-1.0059,-1.0039,-0.9473,-0.9053,-0.877,-0.834,-0.7998,-0.7695,-0.7841,-0.7889,-0.7928,-0.8023,-0.8251,-0.8495,-0.8871,-0.9008,-0.8981,-0.8745,-0.8589,-0.8505,-0.8645,-0.8589,-0.8505,-0.8645,-0.8393,-0.8052,-0.7918,-0.7889,-0.7929,-0.8069,-0.8109,-0.8319,-0.9182,-0.9349,-0.9563,-1.0489,-1.0497,-1.0572,-1.1308,-1.1126,-1.1092,-1.1862,-1.199,-1.2166,-1.2661,-1.272,-1.2615,-1.2318,-1.2282,-1.221,-1.2066,-1.2029,-1.1775,-1.1143,-1.0361,-0.9752,-0.9469,-0.8594,-0.7946,-0.7577,-0.7065,-0.697,-0.7283,-0.697,-0.6878,-0.7003,-0.6503,-0.6265,-0.6254,-0.6157,-0.6163,-1.5143,-1.5756,-1.6161,-1.5848,-1.649,-1.7051,-1.6514,-1.5361,-1.4358,-1.4237,-1.2877,-1.1443,-1.0496,0.0,0.0,0.0,0.0,0.0,0.0,-0.0731,0.0171,0.0819,0.1293,0.1282,0.0,0.0,-0.1422,0.0,0.0,0.0,0.0,-0.571,-0.6901,-0.8078,-0.9213,-0.9953,-1.0197,-1.0484,-1.0365,-0.9887,-0.999,-1.0118,-1.0264,-0.9485,-0.9082,-0.8975,-0.8398,-0.7988,-0.7695,-0.7695,-0.7695,-0.7695,-0.7695,-0.786,-0.8119,-0.8495,-0.8634,-0.8578,-0.8195,-0.8091,-0.815,-0.8421,-0.833,-0.815,-0.8421,-0.8028,-0.75,-0.7666,-0.7598,-0.7568,-0.786,-0.7959,-0.8174,-0.9023,-0.9173,-0.9437,-1.0538,-1.0583,-1.0645,-1.1384,-1.1217,-1.1132,-1.1681,-1.1627,-1.1689,-1.2174,-1.2246,-1.2138,-1.1847,-1.1811,-1.1737,-1.1553,-1.1516,-1.1173,-1.0361,-0.9715,-0.9341,-0.9192,-0.8111,-0.7358,-0.6973,-0.6201,-0.5925,-0.6218,-0.5919,-0.5823,-0.5928,-0.5658,-0.544,-0.5244,-0.4851,-0.4747]},{"header":{"parameterUnit":"m.s-1","parameterCategory":1,"la1":30.6,"la2":29.2853,"lo1":-89.7004,"lo2":-87.6739,"dy":0.0162,"dx":0.0183,"nx":112,"ny":82,"refTime":"2024-03-20T00:00:00:Z","depth":0,"parameterNumber":3,"parameterNumberName":"V-component_of_WINDS"},"data":[0.0,0.0,0.0,0.0,0.0,0.0,0.0,0.0,0.0,0.0,0.0,0.0,0.0,0.0,0.0,0.0,0.0,0.0,0.0,0.0,0.0,0.0,0.0,0.0,0.0,0.0,0.0,0.0,0.0,0.0,0.0,0.0,0.0,0.0,0.0,0.0,0.0,0.0,0.0,0.0,0.0,0.0,0.0,0.0,0.0,0.0,0.0,0.0,0.0,0.0,0.0,0.0,0.0,0.0,0.0,0.0,0.0,0.0,0.0,0.0,0.0,0.0,0.0,0.0,0.0,0.0,0.0,0.0,0.0,0.0,0.0,0.0,0.0,0.0,0.0,0.0,0.0,0.0,0.0,0.0,0.0,0.0,0.0,0.0,0.0,0.0,0.0,0.0,0.0,0.0,-0.9345,-1.0679,-1.39,-1.6818,-1.8712,-1.9434,-1.8987,-1.711,0.0,0.0,0.0,0.0,0.0,0.0,0.0,0.0,0.0,0.0,0.0,0.0,0.0,0.0,0.0,0.0,0.0,0.0,0.0,0.0,0.0,0.0,0.0,0.0,0.0,0.0,0.0,0.0,0.0,0.0,0.0,0.0,0.0,0.0,0.0,0.0,0.0,0.0,0.0,0.0,0.0,0.0,0.0,0.0,0.0,0.0,0.0,0.0,0.0,0.0,0.0,0.0,0.0,0.0,0.0,0.0,0.0,0.0,0.0,0.0,0.0,0.0,0.0,0.0,0.0,0.0,0.0,0.0,0.0,0.0,0.0,0.0,0.0,0.0,0.0,0.0,0.0,0.0,0.0,0.0,0.0,0.0,0.0,0.0,0.0,0.0,0.0,0.0,0.0,0.0,0.0,0.0,0.0,0.0,0.0,0.0,0.0,0.0,0.0,0.0,0.0,0.0,0.0,0.0,-1.0948,-1.4078,-1.5232,-1.6545,-1.8419,-1.8914,-1.8506,-1.7079,0.0,0.0,0.0,0.0,0.0,0.0,0.0,0.0,0.0,0.0,0.0,0.0,0.0,0.0,0.0,0.0,0.0,0.0,0.0,0.0,0.0,0.0,0.0,0.0,0.0,0.0,0.0,0.0,0.0,0.0,0.0,0.0,0.0,0.0,0.0,0.0,0.0,0.0,0.0,0.0,0.0,0.0,0.0,0.0,0.0,0.0,0.0,0.0,0.0,0.0,0.0,0.0,0.0,0.0,0.0,0.0,0.0,0.0,0.0,0.0,0.0,0.0,0.0,0.0,0.0,0.0,0.0,0.0,0.0,0.0,0.0,0.0,0.0,0.0,0.0,0.0,0.0,0.0,0.0,0.0,0.0,0.0,0.0,0.0,0.0,0.0,0.0,0.0,0.0,0.0,0.0,0.0,0.0,0.0,0.0,0.0,0.0,0.0,0.0,0.0,0.0,0.0,0.0,-1.1004,-1.257,-1.4761,-1.578,-1.6885,-1.8668,-1.9175,-1.896,-1.7588,-1.8369,0.0,0.0,0.0,0.0,0.0,0.0,0.0,0.0,0.0,0.0,0.0,0.0,0.0,0.0,0.0,0.0,0.0,0.0,0.0,0.0,0.0,0.0,0.0,0.0,0.0,0.0,0.0,0.0,0.0,0.0,0.0,0.0,0.0,0.0,0.0,0.0,0.0,0.0,0.0,0.0,0.0,0.0,0.0,0.0,0.0,0.0,0.0,0.0,0.0,0.0,0.0,0.0,0.0,0.0,0.0,0.0,0.0,0.0,0.0,0.0,0.0,0.0,0.0,0.0,0.0,0.0,0.0,0.0,0.0,0.0,0.0,0.0,0.0,0.0,0.0,0.0,0.0,0.0,0.0,0.0,0.0,0.0,0.0,0.0,0.0,0.0,0.0,0.0,0.0,0.0,0.0,0.0,0.0,0.0,0.0,0.0,0.0,0.0,0.0,0.0,0.0,0.0,-1.2598,-1.3677,-1.5059,-1.6281,-1.7505,-1.8807,-1.9502,-1.9267,-1.7943,-1.8488,0.0,0.0,0.0,0.0,0.0,0.0,0.0,0.0,0.0,0.0,0.0,0.0,0.0,0.0,0.0,0.0,0.0,0.0,0.0,0.0,0.0,0.0,0.0,0.0,0.0,0.0,0.0,0.0,0.0,0.0,0.0,0.0,0.0,0.0,0.0,0.0,0.0,0.0,0.0,0.0,0.0,0.0,0.0,0.0,0.0,0.0,0.0,0.0,0.0,0.0,0.0,0.0,0.0,0.0,0.0,0.0,0.0,0.0,0.0,0.0,0.0,0.0,0.0,0.0,0.0,0.0,0.0,0.0,0.0,0.0,0.0,0.0,0.0,0.0,0.0,0.0,0.0,0.0,0.0,0.0,0.0,0.0,0.0,0.0,0.0,0.0,0.0,0.0,0.0,0.0,0.0,0.0,0.0,0.0,0.0,0.0,0.0,0.0,0.0,0.0,0.0,0.0,-1.2954,-1.3988,-1.6005,-1.7251,-1.8148,-1.8466,-1.9323,-1.9283,-1.7969,-1.7689,0.0,0.0,0.0,0.0,0.0,0.0,0.0,0.0,0.0,0.0,0.0,0.0,0.0,0.0,0.0,0.0,0.0,0.0,0.0,0.0,0.0,0.0,0.0,0.0,0.0,0.0,0.0,0.0,0.0,0.0,0.0,0.0,0.0,0.0,0.0,0.0,0.0,0.0,0.0,0.0,0.0,0.0,0.0,0.0,0.0,0.0,0.0,0.0,0.0,0.0,0.0,0.0,0.0,0.0,0.0,0.0,0.0,0.0,0.0,0.0,0.0,0.0,0.0,0.0,0.0,0.0,0.0,0.0,0.0,0.0,0.0,0.0,0.0,0.0,0.0,0.0,0.0,0.0,0.0,0.0,0.0,0.0,0.0,0.0,0.0,0.0,0.0,0.0,0.0,0.0,0.0,0.0,0.0,0.0,0.0,0.0,0.0,0.0,0.0,0.0,0.0,0.0,-1.3341,-1.4823,-1.6928,-1.7588,-1.8465,-2.0062,-2.035,-1.9943,-1.8873,0.0,0.0,0.0,0.0,0.0,0.0,0.0,0.0,0.0,0.0,0.0,0.0,0.0,0.0,0.0,0.0,0.0,0.0,0.0,0.0,0.0,0.0,0.0,0.0,0.0,0.0,0.0,0.0,0.0,0.0,0.0,0.0,0.0,0.0,0.0,0.0,0.0,0.0,0.0,0.0,0.0,0.0,0.0,0.0,0.0,0.0,0.0,0.0,0.0,0.0,0.0,0.0,0.0,0.0,0.0,0.0,0.0,0.0,0.0,0.0,0.0,0.0,0.0,0.0,0.0,0.0,0.0,0.0,0.0,0.0,0.0,0.0,0.0,0.0,0.0,0.0,0.0,0.0,0.0,0.0,0.0,0.0,0.0,0.0,0.0,0.0,0.0,0.0,0.0,0.0,0.0,0.0,0.0,0.0,0.0,0.0,0.0,0.0,0.0,0.0,0.0,0.0,-1.2308,-1.3849,-1.5566,-1.7323,-1.8247,-1.9323,-2.0935,-2.0869,-2.0245,-1.9127,0.0,0.0,0.0,0.0,0.0,0.0,0.0,0.0,0.0,0.0,0.0,0.0,0.0,0.0,0.0,0.0,0.0,0.0,0.0,0.0,0.0,0.0,0.0,0.0,0.0,0.0,0.0,0.0,0.0,0.0,0.0,0.0,0.0,0.0,0.0,0.0,0.0,0.0,0.0,0.0,0.0,0.0,0.0,0.0,0.0,0.0,0.0,0.0,0.0,0.0,0.0,0.0,0.0,0.0,0.0,0.0,0.0,0.0,0.0,0.0,0.0,0.0,0.0,0.0,0.0,0.0,0.0,0.0,0.0,0.0,0.0,0.0,0.0,0.0,0.0,0.0,0.0,0.0,0.0,0.0,0.0,0.0,0.0,0.0,0.0,0.0,0.0,0.0,0.0,0.0,0.0,0.0,0.0,0.0,0.0,0.0,0.0,0.0,0.0,0.0,0.0,0.0,-1.2508,-1.4392,-1.6077,-1.7139,-1.9289,-2.0706,-2.0706,-2.0633,-2.0019,0.0,0.0,0.0,0.0,0.0,0.0,0.0,0.0,0.0,0.0,0.0,0.0,0.0,0.0,0.0,0.0,0.0,0.0,0.0,0.0,0.0,0.0,0.0,0.0,0.0,0.0,0.0,0.0,0.0,0.0,0.0,0.0,0.0,0.0,0.0,0.0,0.0,0.0,0.0,0.0,0.0,0.0,0.0,0.0,0.0,0.0,0.0,0.0,0.0,0.0,0.0,0.0,0.0,0.0,0.0,0.0,0.0,0.0,0.0,0.0,0.0,0.0,0.0,0.0,0.0,0.0,0.0,0.0,0.0,0.0,0.0,0.0,0.0,0.0,0.0,0.0,0.0,0.0,0.0,0.0,0.0,0.0,0.0,0.0,0.0,0.0,0.0,0.0,0.0,0.0,0.0,0.0,0.0,0.0,0.0,0.0,0.0,0.0,0.0,0.0,0.0,0.0,0.0,-1.4323,-1.5761,-1.7317,-1.8981,-1.9771,-2.0565,-2.1455,-2.0973,-2.0019,-1.865,0.0,0.0,0.0,0.0,0.0,0.0,0.0,0.0,0.0,0.0,0.0,0.0,0.0,0.0,0.0,0.0,0.0,0.0,0.0,0.0,0.0,0.0,0.0,0.0,0.0,0.0,0.0,0.0,0.0,0.0,0.0,0.0,0.0,0.0,0.0,0.0,0.0,0.0,0.0,0.0,0.0,0.0,0.0,0.0,0.0,0.0,0.0,0.0,0.0,0.0,0.0,0.0,0.0,0.0,0.0,0.0,0.0,0.0,0.0,0.0,0.0,0.0,0.0,0.0,0.0,0.0,0.0,0.0,0.0,0.0,0.0,0.0,0.0,0.0,0.0,0.0,0.0,0.0,0.0,0.0,0.0,0.0,0.0,0.0,0.0,0.0,0.0,0.0,0.0,0.0,0.0,0.0,0.0,0.0,0.0,0.0,0.0,0.0,0.0,0.0,0.0,0.0,-1.4951,-1.6453,-1.8046,-1.9704,-2.0228,-2.0752,-2.1539,-2.0977,-1.9863,-1.8242,0.0,0.0,0.0,0.0,0.0,0.0,0.0,0.0,0.0,0.0,0.0,0.0,0.0,0.0,0.0,0.0,0.0,0.0,0.0,0.0,0.0,0.0,0.0,0.0,0.0,0.0,0.0,0.0,0.0,0.0,0.0,0.0,0.0,0.0,0.0,0.0,0.0,0.0,0.0,0.0,0.0,0.0,0.0,0.0,0.0,0.0,0.0,0.0,0.0,0.0,0.0,0.0,0.0,0.0,0.0,0.0,0.0,0.0,0.0,0.0,0.0,0.0,0.0,0.0,0.0,0.0,0.0,0.0,0.0,0.0,0.0,0.0,0.0,0.0,0.0,0.0,0.0,0.0,0.0,0.0,0.0,0.0,0.0,0.0,0.0,0.0,0.0,0.0,0.0,0.0,0.0,0.0,0.0,0.0,0.0,0.0,0.0,0.0,0.0,0.0,0.0,0.0,-1.4827,-1.6659,-1.8346,-1.9416,-2.0467,-2.1064,-2.1113,-2.0664,-1.9541,-1.7568,0.0,0.0,0.0,0.0,0.0,0.0,0.0,0.0,0.0,0.0,0.0,0.0,0.0,0.0,0.0,0.0,0.0,0.0,0.0,0.0,0.0,0.0,0.0,0.0,0.0,0.0,0.0,0.0,0.0,0.0,0.0,0.0,0.0,0.0,0.0,0.0,0.0,0.0,0.0,0.0,0.0,0.0,0.0,0.0,0.0,0.0,0.0,0.0,0.0,0.0,0.0,0.0,0.0,0.0,0.0,0.0,0.0,0.0,0.0,0.0,-1.167,-1.0748,0.0,0.0,0.0,0.0,0.0,0.0,0.0,0.0,0.0,0.0,0.0,0.0,0.0,0.0,0.0,0.0,0.0,0.0,0.0,0.0,0.0,0.0,0.0,0.0,0.0,0.0,0.0,0.0,0.0,0.0,0.0,0.0,0.0,0.0,0.0,0.0,0.0,0.0,0.0,0.0,-1.6113,-1.7293,-1.835,-1.9283,-1.9548,-1.9834,-2.0166,-1.9492,-1.8711,-1.793,-1.6504,0.0,0.0,0.0,0.0,0.0,0.0,0.0,0.0,0.0,0.0,0.0,0.0,0.0,0.0,0.0,0.0,0.0,0.0,0.0,0.0,0.0,0.0,0.0,0.0,0.0,0.0,0.0,0.0,0.0,0.0,0.0,0.0,0.0,0.0,0.0,0.0,0.0,0.0,0.0,0.0,0.0,0.0,0.0,0.0,0.0,0.0,0.0,0.0,0.0,0.0,0.0,0.0,0.0,0.0,0.0,0.0,0.0,0.0,0.0,-1.2592,-1.2051,0.0,0.0,0.0,0.0,0.0,0.0,0.0,0.0,0.0,0.0,0.0,0.0,0.0,0.0,0.0,0.0,0.0,0.0,0.0,0.0,0.0,0.0,0.0,0.0,0.0,0.0,0.0,0.0,0.0,0.0,0.0,0.0,0.0,0.0,0.0,0.0,0.0,0.0,0.0,0.0,-1.6269,-1.7344,-1.834,-1.9199,-1.9287,-1.9453,-1.9883,-1.9131,-1.8457,-1.8037,-1.7073,0.0,0.0,0.0,0.0,0.0,0.0,0.0,0.0,0.0,0.0,0.0,0.0,0.0,0.0,0.0,0.0,0.0,0.0,0.0,0.0,0.0,0.0,0.0,0.0,0.0,0.0,0.0,0.0,0.0,0.0,0.0,0.0,0.0,0.0,0.0,0.0,0.0,0.0,0.0,0.0,0.0,0.0,0.0,0.0,0.0,0.0,0.0,0.0,0.0,0.0,0.0,0.0,0.0,-1.3105,-1.3315,-1.3309,-1.3517,-1.3667,-1.3667,-1.3614,-1.3607,-1.3506,-1.2839,0.0,0.0,0.0,0.0,0.0,0.0,0.0,0.0,0.0,0.0,0.0,0.0,0.0,0.0,0.0,0.0,0.0,0.0,0.0,0.0,0.0,0.0,-1.722,-1.7426,-1.819,-1.8466,-1.6814,0.0,0.0,0.0,0.0,0.0,0.0,0.0,0.0,0.0,0.0,0.0,-1.585,-1.7031,-1.8115,-1.8975,-1.9062,-1.9238,-1.9658,-1.9118,-1.8577,-1.8221,-1.8121,-1.7723,0.0,0.0,0.0,0.0,0.0,0.0,0.0,0.0,0.0,0.0,0.0,0.0,0.0,0.0,0.0,0.0,0.0,0.0,0.0,0.0,0.0,0.0,0.0,0.0,0.0,0.0,0.0,0.0,0.0,0.0,0.0,0.0,-0.3606,-0.3928,0.0,0.0,0.0,0.0,0.0,0.0,0.0,0.0,0.0,0.0,0.0,0.0,0.0,-1.241,-1.2722,-1.3907,-1.4566,-1.4572,-1.5437,-1.5865,-1.5858,-1.5598,-1.5484,-1.5471,-1.5217,0.0,-1.3552,-1.3514,0.0,0.0,0.0,0.0,0.0,0.0,0.0,0.0,0.0,0.0,0.0,0.0,0.0,0.0,0.0,0.0,0.0,0.0,0.0,0.0,0.0,0.0,-1.9973,-1.9594,-1.9632,-1.9681,-1.9399,-1.7628,-1.6084,-1.585,-1.499,-1.4175,0.0,0.0,0.0,0.0,0.0,0.0,-1.5439,-1.6318,-1.7236,-1.8086,-1.8174,-1.835,-1.8769,-1.9028,-1.9173,-1.911,-1.9116,-1.9147,-1.9179,-1.8827,0.0,0.0,0.0,0.0,0.0,0.0,0.0,0.0,0.0,0.0,0.0,0.0,0.0,0.0,0.0,0.0,0.0,0.0,0.0,0.0,0.0,0.0,0.0,0.0,0.0,0.0,0.0,0.0,0.0,-0.3407,-0.4157,-0.3706,-0.5009,-0.569,0.0,0.0,0.0,0.0,0.0,0.0,0.0,0.0,0.0,-1.3075,-1.3798,-1.4267,-1.4697,-1.5712,-1.6104,-1.5945,-1.6295,-1.6433,-1.6273,-1.6139,-1.5985,-1.5818,-1.5698,-1.5344,-1.4836,-1.4342,-1.3788,-1.3272,0.0,0.0,0.0,0.0,-1.5847,-1.6437,-1.6848,-1.7302,-1.7581,-1.7288,0.0,0.0,0.0,0.0,0.0,0.0,0.0,-1.6875,-1.79,-1.9004,-1.999,-2.0527,-2.084,-2.0889,-2.0391,-1.9014,-1.7734,-1.7246,-1.6504,-1.5644,-1.4668,-1.4502,0.0,0.0,0.0,-1.5293,-1.5723,-1.6543,-1.7334,-1.7949,-1.8008,-1.8379,-1.9261,-1.9303,-1.9603,-2.0324,-2.0325,-2.0275,-2.0403,-2.0074,-1.9626,0.0,0.0,0.0,0.0,0.0,0.0,0.0,0.0,0.0,0.0,0.0,0.0,0.0,0.0,0.0,0.0,0.0,0.0,0.0,0.0,0.0,0.0,0.0,0.0,0.0,0.0,0.0,0.0,-0.3692,-0.4656,-0.3743,-0.529,-0.6156,0.0,0.0,0.0,0.0,0.0,0.0,-0.9906,-1.0973,-1.2513,-1.457,-1.5022,-1.5625,-1.6516,-1.7085,-1.7148,-1.6927,-1.678,-1.6593,-1.638,-1.6226,-1.6039,-1.5832,-1.5832,-1.5832,-1.5772,-1.5044,-1.4442,-1.4025,-1.4918,-1.5172,-1.5227,-1.6295,-1.7306,-1.8218,-1.8462,-1.8995,-1.9543,-1.8941,-1.827,-1.7533,-1.6592,0.0,0.0,0.0,0.0,-1.6934,-1.8545,-1.9121,-1.9531,-2.0508,-2.0986,-2.1035,-2.0381,-1.957,-1.8809,-1.8271,-1.7656,-1.6768,-1.5352,-1.5107,0.0,-1.4059,-1.4924,-1.586,-1.6307,-1.7044,-1.773,-1.8277,-1.8337,-1.8785,-1.9974,-2.0018,-2.0358,-2.1303,-2.1513,-2.1524,-2.1524,-2.1107,-2.0489,-1.9673,0.0,0.0,0.0,0.0,0.0,0.0,0.0,0.0,0.0,0.0,0.0,0.0,0.0,0.0,0.0,0.0,0.0,0.0,0.0,0.0,0.0,0.0,0.0,0.0,0.0,0.0,0.0,0.0,0.0,-0.4541,-0.647,0.0,0.0,0.0,0.0,-0.6668,-0.7319,-0.8375,-0.9879,-1.0511,-1.237,-1.5549,-1.5363,-1.6028,-1.7868,-1.7702,-1.7555,-1.7528,-1.6974,-1.67,-1.6667,-1.6106,-1.5845,-1.5832,-1.5832,-1.5832,-1.5805,-1.5484,-1.517,-1.4843,-1.4347,-1.4974,-1.6134,-1.5867,-1.7275,-1.943,-1.9364,-1.9601,-1.998,-2.0352,-1.9355,-1.7852,-1.6978,-1.6456,0.0,0.0,-1.7305,-1.7939,-1.8047,-1.8682,-1.9307,-1.9365,-1.9404,-1.9404,-1.9365,-1.8682,-1.8184,-1.8535,-1.7607,-1.6602,-1.6154,0.0,-1.585,-1.5206,-1.5865,-1.6602,-1.7071,-1.754,-1.8176,-1.9138,-1.9243,-1.9573,-2.0495,-2.1313,-2.1827,-2.1851,-2.2555,-2.2967,-2.2967,-2.2033,-2.1418,-2.1368,-1.8769,0.0,0.0,0.0,0.0,0.0,0.0,0.0,0.0,0.0,0.0,0.0,0.0,0.0,0.0,0.0,0.0,0.0,0.0,0.0,0.0,0.0,0.0,0.0,0.0,0.0,0.0,0.0,0.0,-0.6135,-0.7018,0.0,-0.7329,-0.7227,-0.7197,-0.7421,-0.8779,-0.994,-1.0687,-1.1774,-1.347,-1.5929,-1.5859,-1.6448,-1.7941,-1.7936,-1.7689,-1.7301,-1.7094,-1.6794,-1.642,-1.6206,-1.6012,-1.5832,-1.5832,-1.5832,-1.5818,-1.5718,-1.5504,-1.5308,-1.5789,-1.6616,-1.7629,-1.8002,-1.9334,-2.0992,-2.0711,-2.0605,-2.0654,-1.9971,-1.8955,-1.7978,-1.7687,-1.7426,-1.7412,-1.7842,-1.7978,-1.8135,-1.8691,-1.8848,-1.8936,-1.9219,-1.9287,-1.9209,-1.8926,-1.8633,-1.8379,-1.8252,-1.7646,-1.7012,-1.6572,-1.6494,-1.6105,-1.5114,-1.5666,-1.6297,-1.6457,-1.7277,-1.7916,-1.8312,-1.8773,-1.9382,-2.0245,-2.0617,-2.1044,-2.1596,-2.1898,-2.2071,-2.2071,-2.1355,-2.0627,-1.9924,-1.8593,-1.7652,0.0,0.0,0.0,0.0,0.0,0.0,0.0,0.0,0.0,0.0,0.0,0.0,0.0,0.0,0.0,0.0,0.0,0.0,0.0,0.0,0.0,0.0,0.0,0.0,0.0,0.0,-0.6698,-0.6935,-0.7543,-0.7903,-0.7862,-0.7806,-0.7834,-0.8187,-0.9347,-1.0217,-1.0508,-1.1405,-1.2796,-1.4603,-1.4648,-1.5355,-1.7124,-1.7021,-1.6957,-1.7001,-1.6901,-1.6647,-1.6273,-1.6166,-1.5863,-1.5402,-1.569,-1.5677,-1.5402,-1.569,-1.5718,-1.5631,-1.6345,-1.7206,-1.8202,-1.8396,-1.9402,-2.0652,-2.0297,-2.0466,-2.0596,-1.9443,-1.8682,-1.8193,-1.8057,-1.8008,-1.8066,-1.835,-1.8223,-1.8144,-1.8711,-1.8643,-1.8496,-1.8789,-1.8857,-1.8779,-1.8486,-1.8311,-1.8135,-1.7852,-1.7568,-1.7197,-1.6611,-1.6387,-1.5998,-1.5249,-1.5515,-1.5906,-1.6217,-1.6917,-1.7455,-1.7662,-1.8233,-1.9041,-2.0169,-2.0015,-2.0261,-2.1149,-2.0974,-2.0874,-2.0916,-2.0401,-1.9773,-1.8995,-1.8304,-1.7375,-1.6233,0.0,0.0,0.0,0.0,0.0,0.0,0.0,0.0,0.0,0.0,0.0,0.0,0.0,0.0,0.0,0.0,0.0,0.0,0.0,0.0,0.0,0.0,0.0,-0.4851,-0.635,-0.7199,-0.7086,-0.8206,-0.8774,-0.834,-0.8557,-0.8784,-0.8927,-0.8804,-0.8916,-0.9351,-0.9374,-1.024,-1.19,-1.1607,-1.2679,-1.5287,-1.5147,-1.5517,-1.6587,-1.6406,-1.6266,-1.6253,-1.5965,-1.5389,-1.4763,-1.5516,-1.5383,-1.4769,-1.5523,-1.5832,-1.5832,-1.5832,-1.6574,-1.7609,-1.684,-1.736,-1.8396,-1.8338,-1.8956,-1.9756,-1.8906,-1.8623,-1.8545,-1.8135,-1.8008,-1.8008,-1.8008,-1.8008,-1.8008,-1.8008,-1.8008,-1.8008,-1.7988,-1.7988,-1.7988,-1.7978,-1.7646,-1.7363,-1.7363,-1.7353,-1.707,-1.6272,-1.5713,-1.5504,-1.581,-1.5521,0.0,-1.6367,-1.6549,-1.6764,-1.7382,-1.7779,-1.8649,-2.026,-1.9672,-1.9598,-2.0561,-1.9942,-1.9592,-1.9773,-1.9284,-1.8945,-1.8933,-1.7903,-1.681,-1.5693,0.0,0.0,0.0,0.0,0.0,0.0,0.0,0.0,0.0,0.0,0.0,0.0,0.0,0.0,0.0,0.0,0.0,0.0,0.0,0.0,0.0,-0.2003,-0.3418,-0.6116,-0.7037,-0.762,-0.8312,-0.8769,-0.9045,-0.8923,-0.8984,-0.9005,-0.8944,-0.8998,-0.9086,-0.9208,-0.9215,-0.9858,-1.1338,-1.1147,-1.1898,-1.3517,-1.4373,-1.4927,-1.4967,-1.5901,-1.6159,-1.5945,-1.5865,-1.569,-1.5523,-1.5697,-1.569,-1.5523,-1.5697,-1.5832,-1.5832,-1.5832,-1.6574,-1.7609,-1.684,-1.7568,-1.87,-1.792,-1.845,-1.9365,-1.8818,-1.8428,-1.8154,-1.8047,-1.8008,-1.8008,-1.8008,-1.8008,-1.8008,-1.8008,-1.8008,-1.7939,-1.7627,-1.7549,-1.7471,-1.7148,-1.6992,-1.6914,-1.6914,-1.665,-1.6348,-1.6164,-1.5957,-1.5792,-1.5571,-1.5402,-1.5638,-1.6394,-1.6978,-1.7567,-1.8253,-1.8459,-1.8922,-1.9896,-1.9282,-1.9052,-1.9421,-1.9283,-1.9146,-1.9246,-1.8719,-1.8242,-1.784,-1.7124,-1.6409,0.0,0.0,0.0,0.0,0.0,0.0,0.0,0.0,0.0,0.0,0.0,0.0,0.0,0.0,0.0,0.0,0.0,0.0,0.0,0.0,0.0,0.0,-0.1722,-0.2903,-0.5532,-0.6494,-0.7246,-0.7883,-0.8155,-0.8234,-0.8234,-0.8234,-0.8433,-0.9035,-0.9049,-0.9089,-0.915,-0.9154,-0.95,-1.0031,-1.0105,-1.053,-1.1635,-1.241,-1.3047,-1.3313,-1.4698,-1.5204,-1.5045,-1.5534,-1.5664,-1.537,-1.5684,-1.5664,-1.537,-1.5684,-1.5832,-1.5818,0.0,0.0,0.0,0.0,-1.6604,-1.7918,-1.6998,-1.7696,-1.8945,-1.8516,-1.8213,-1.8008,-1.8008,-1.7881,-1.7744,-1.7744,-1.7617,-1.7519,-1.7705,-1.7607,-1.7461,-1.7402,-1.7246,-1.7041,-1.6787,-1.6592,-1.6455,-1.6455,-1.6094,0.0,-1.5791,-1.5791,-1.5753,-1.5642,-1.5628,-1.5854,-1.6632,-1.7059,-1.7492,-1.7919,-1.8125,-1.8562,-1.9282,-1.8675,0.0,0.0,0.0,-1.8435,-1.8342,-1.8028,0.0,0.0,0.0,-1.6245,-1.5693,-1.6245,0.0,0.0,-1.7877,-1.8028,0.0,0.0,0.0,0.0,0.0,0.0,0.0,0.0,0.0,0.0,0.0,0.0,0.0,0.0,0.0,0.0,-0.1652,-0.2252,-0.3773,-0.5179,-0.611,-0.645,-0.6569,-0.6628,-0.6616,-0.6625,-0.7312,-0.8784,-0.8785,-0.8762,-0.9096,-0.9086,0.0,0.0,0.0,-0.9104,-0.9809,-1.0054,-1.0649,-1.1653,-1.3006,-1.368,-1.3686,-1.5045,-1.5207,-1.4602,-1.5429,-1.5376,-1.4849,-1.5483,-1.5738,-1.5665,-1.5471,-1.5357,-1.5197,-1.4349,-1.5092,-1.6488,-1.569,0.0,0.0,-1.8017,-1.794,-1.8008,-1.8008,-1.7744,-1.7451,-1.7451,-1.7178,-1.6953,-1.7295,-1.709,-1.6885,-1.7168,-1.6943,-1.6641,-1.6529,-1.6269,-1.5986,-1.5986,-1.5674,-1.541,-1.541,-1.541,-1.5504,-1.5808,-1.5909,-1.6181,-1.6835,-1.71,-1.7183,-1.7126,-1.7402,0.0,-1.8601,-1.7981,-1.79,-1.8795,-1.8189,-1.7718,-1.74,-1.7438,-1.6974,-1.5906,-1.6308,-1.6283,-1.5781,-1.6283,-1.7061,-1.8116,-1.8179,-1.853,0.0,0.0,0.0,0.0,0.0,0.0,0.0,0.0,0.0,0.0,0.0,0.0,0.0,0.0,0.0,0.1234,0.0281,-0.0892,-0.2378,-0.2807,-0.3494,-0.4777,-0.5098,-0.5123,-0.4946,-0.511,-0.5688,-0.7075,-0.716,-0.7561,-0.8692,-0.8679,-0.8533,-0.836,-0.8265,-0.8258,-0.8432,-0.9442,-1.013,-1.0391,-1.1653,0.0,-1.2334,-1.3686,-1.4238,-1.4094,-1.5317,-1.5571,-1.5305,-1.5458,-1.5204,-1.4816,-1.5231,-1.511,-1.4609,-1.3968,-1.4639,-1.5751,-1.4463,-1.5723,-1.777,-1.7092,-1.7354,-1.8008,-1.8008,-1.7959,0.0,-1.7891,-1.7822,-1.7705,-1.7451,-1.7314,-1.71,-1.6475,-1.626,-1.6094,-1.5742,-1.5596,-1.5537,-1.5537,-1.5469,-1.541,-1.541,-1.541,-1.5439,-1.5466,-1.6017,-1.6469,-1.657,-1.7662,-1.8195,-1.7772,-1.773,-1.7909,-1.8264,-1.7566,-1.7272,-1.7702,-1.7969,-1.7906,-1.74,-1.7815,-1.7739,-1.7061,-1.671,-1.6471,-1.6358,-1.6471,-1.6873,-1.7551,-1.8003,-1.8731,0.0,0.0,0.0,0.0,0.0,0.0,0.0,0.0,0.0,0.0,0.0,0.3921,0.3932,0.0,0.287,0.2967,0.1826,0.0695,0.0,-0.0725,-0.168,-0.3149,-0.3404,-0.3409,-0.3383,-0.3404,-0.4068,-0.5448,-0.6204,-0.694,-0.7523,-0.8203,-0.8381,-0.8163,-0.8153,-0.8082,-0.7926,-0.8587,-0.9019,-0.9019,-1.0974,-1.1945,-1.1945,-1.3844,-1.4647,-1.4641,-1.5173,-1.5311,-1.5177,-1.5177,-1.4917,-1.4549,-1.4843,-1.4689,-1.4229,-1.3641,-1.4139,-1.5068,-1.4591,-1.5618,-1.718,-1.7278,-1.7647,-1.7969,-1.7764,-1.7549,-1.7324,-1.71,-1.6875,-1.6709,-1.6719,-1.6562,-1.6338,-1.6184,-1.5898,-1.5684,-1.5459,-1.541,-1.541,-1.541,-1.541,-1.541,-1.541,-1.541,-1.5633,-1.6415,-1.681,-1.717,-1.7695,-1.8172,-1.8324,-1.8056,-1.8006,-1.8049,-1.8204,-1.7812,-1.765,-1.779,-1.8053,-1.7953,-1.74,-1.7652,-1.7526,-1.6961,-1.666,-1.6522,-1.6522,-1.6522,-1.681,-1.7388,-1.7664,-1.838,0.0,0.0,0.0,0.0,0.0,0.0,0.0,0.0,0.5983,0.6565,0.6132,0.5577,0.5491,0.4951,0.4619,0.4758,0.3146,0.1891,0.1947,0.0825,-0.0415,-0.1682,-0.18,-0.1808,-0.1808,-0.1808,-0.255,-0.435,-0.5409,-0.6245,-0.6857,-0.7913,-0.8316,-0.8048,-0.816,-0.8106,-0.7858,-0.7946,-0.7994,-0.7994,-1.0099,-1.1144,-1.1428,-1.3619,-1.4746,-1.4917,-1.4907,-1.4843,-1.479,-1.479,-1.4616,-1.4355,-1.4416,-1.4262,-1.3941,-1.3467,-1.375,-1.4421,-1.4649,-1.5333,-1.6316,-1.7176,-1.7522,-1.7543,-1.7414,-1.708,-1.665,-1.6299,-1.5937,-1.5732,-1.5996,-1.5801,-1.5605,-1.5879,-1.5664,-1.541,-1.541,-1.541,-1.541,-1.541,-1.541,-1.541,-1.541,-1.541,-1.5776,-1.6905,-1.7104,-1.7373,-1.7984,-1.8007,-1.7917,-1.765,-1.7887,-1.8003,-1.789,-1.7877,-1.7877,-1.7877,-1.7978,-1.784,-1.74,-1.7388,-1.7162,-1.6685,-1.6572,-1.6522,-1.6522,-1.6522,-1.676,-1.7212,-1.7338,-1.7915,-0.0104,0.233,0.473,0.6388,0.7261,0.8206,0.0,0.0,1.0123,1.0686,1.0731,1.0734,1.0832,0.8895,0.7439,0.7537,0.4395,0.201,0.2018,0.0809,-0.0101,-0.0203,-0.0209,-0.0213,-0.0213,-0.0213,-0.1384,-0.4032,-0.435,-0.5477,-0.7988,-0.819,-0.8214,-0.8045,-0.8055,-0.8048,-0.8014,-0.7896,-0.7838,-0.7834,-0.7991,-0.8577,-0.9686,-1.1144,-1.2329,-1.332,-1.4153,-1.4422,-1.4188,-1.4188,-1.4008,-1.3768,-1.4035,-1.3955,-1.3687,-1.3621,-1.3594,-1.3662,-1.3208,-1.3661,-1.4572,-1.527,-1.5774,-1.6303,-1.711,-1.708,-1.6719,-1.667,-1.6621,-1.6504,-1.6152,-1.6086,-1.5908,-1.5566,-1.5449,-1.541,-1.541,-1.541,-1.541,-1.541,-1.541,-1.541,-1.541,-1.541,-1.5341,-1.5127,-1.5646,-1.5741,-1.4773,-1.6249,-1.6942,-1.5742,-1.6725,-1.7262,-1.6748,-1.671,-1.671,-1.671,-1.7187,-1.7451,-1.7388,-1.7388,-1.735,-1.7287,-1.6773,-1.6522,-1.6522,-1.6522,-1.6547,-1.6622,-1.7137,-1.7714,0.2062,0.4345,0.0,0.0,0.8765,0.9829,1.1427,1.1174,1.1022,1.2312,1.1918,1.1477,1.1738,1.0249,0.8987,0.0,0.635,0.3968,0.3311,0.2013,0.0904,0.0099,0.02,0.0302,0.0,0.0,-0.0514,-0.1624,-0.3169,-0.4608,-0.5691,-0.7318,-0.8106,-0.8041,-0.8038,-0.7997,-0.7909,-0.7841,-0.777,-0.7685,-0.8363,-0.8975,-0.9427,-1.0596,-1.1655,-1.2416,-1.2686,-1.3099,-1.3574,-1.3574,-1.3507,-1.3407,-1.3527,-1.35,-1.3394,-1.3394,-1.328,-1.3138,-1.3304,-1.347,-1.3784,-1.462,-1.5273,-1.5724,-1.5899,-1.6162,-1.6289,-1.6035,-1.5967,-1.5918,-1.5732,-1.5684,-1.5576,-1.5146,-1.5234,-1.5342,-1.5098,-1.5049,-1.5049,-1.5049,-1.4844,-1.4668,-1.4668,-1.4668,-1.4531,-1.4102,-1.5112,-1.5829,-1.5477,-1.6244,-1.6605,-1.6047,-1.6539,-1.6773,-1.6534,-1.6522,-1.6522,-1.6522,-1.6748,-1.6886,-1.6886,-1.6886,-1.6886,-1.6886,-1.6635,-1.6522,-1.6522,-1.6522,-1.6522,-1.6522,-1.6773,-1.7011,0.4103,0.0,0.0,0.9438,1.0583,1.1714,1.3428,1.3144,1.296,1.4463,1.3665,1.2831,1.3102,1.1852,1.071,1.0475,0.8178,0.5925,0.4708,0.3401,0.2083,0.1072,0.1052,0.0946,0.0665,0.0292,0.0,-0.0487,-0.2359,-0.3569,-0.3987,-0.6179,-0.7477,-0.7378,-0.7776,-0.7902,-0.7753,-0.7709,-0.7617,-0.7472,-0.8329,-0.8902,-0.9204,-1.0654,-1.1606,-1.2249,-1.2147,-1.2508,-1.3093,-1.3173,-1.316,-1.308,-1.308,-1.3033,-1.2946,-1.2872,-1.2752,-1.2729,-1.3077,-1.3048,-1.2917,-1.3866,-1.442,-1.4772,-1.4862,-1.5191,-1.5488,-1.5293,-1.5156,-1.5088,-1.5205,-1.5156,-1.501,-1.4834,-1.4922,-1.498,-1.4668,-1.4609,-1.4609,-1.4609,-1.4355,-1.4077,-1.4077,-1.4077,-1.4037,-1.3759,-1.4895,-1.5773,-1.5694,-1.6017,-1.6337,-1.6466,-1.6522,-1.6522,-1.6522,-1.6522,-1.6522,-1.6522,-1.6522,-1.6522,-1.6522,-1.6522,-1.6522,-1.6522,-1.6522,-1.6522,-1.6522,-1.6522,-1.6522,-1.6522,-1.6522,-1.6522,0.0,0.0,0.92,1.2045,1.327,1.4484,1.7032,1.7595,1.7701,1.8005,1.7201,1.6419,1.6441,1.4689,1.2924,1.1606,0.9445,0.7496,0.6124,0.465,0.3691,0.3523,0.2805,0.2276,0.0,0.1176,-0.0093,-0.1808,-0.2002,-0.2594,-0.391,-0.528,-0.5963,-0.5863,-0.7133,-0.775,-0.7607,-0.7458,-0.7309,-0.7153,-0.7014,-0.7451,-0.8513,-1.0719,-1.2258,-1.3141,-1.3134,-1.3039,-1.2856,-1.3086,-1.3033,-1.2835,-1.2835,-1.2585,-1.2298,-1.2017,-1.2084,-1.2271,-1.2056,-1.176,-1.1642,-1.2661,-1.293,-1.3108,-1.4506,-1.4531,-1.4277,-1.4687,-1.4502,-1.4214,-1.4697,-1.4492,-1.4277,-1.4687,-1.4473,-1.4116,-1.4107,-1.4097,-1.4097,-1.4097,-1.4087,-1.4077,-1.4077,-1.4077,-1.4133,-1.4374,-1.4893,-1.4971,-1.3994,-1.4915,-1.5864,-1.6423,-1.6522,-1.6522,-1.6522,-1.6522,-1.6522,-1.6522,-1.6522,-1.6522,-1.6522,-1.6522,-1.6522,-1.6522,-1.6522,-1.6522,-1.6522,-1.6522,-1.6522,-1.6522,-1.6522,-1.6522,0.9392,0.0,1.2111,1.388,1.5057,1.5996,1.7082,1.7548,1.7836,1.779,1.6487,1.5298,1.5204,1.3588,1.1879,1.0758,0.994,0.8694,0.6291,0.5955,0.5339,0.3894,0.3226,0.0,0.0,0.0,0.0,-0.0275,-0.1313,-0.2195,-0.2689,-0.3933,-0.4984,-0.5746,-0.6225,-0.6692,-0.7299,-0.7244,-0.7092,-0.6848,-0.68,-0.6913,-0.7263,-0.784,-0.8668,-0.9658,-1.0027,-1.0501,-1.1084,-1.1762,-1.1964,-1.187,-1.187,-1.181,-1.1703,-1.161,-1.1396,-1.1189,-1.1476,-1.1256,-1.0978,-1.1796,-1.2081,-1.2348,-1.3296,-1.3802,-1.4107,-1.4307,-1.4248,-1.4116,-1.4316,-1.4248,-1.4048,-1.3965,-1.4033,-1.4009,-1.3779,-1.3721,-1.3721,-1.3721,-1.3496,-1.3301,-1.3301,-1.3301,-1.3352,-1.3391,-1.4606,-1.5519,-1.5579,-1.5964,-1.6139,-1.5908,-1.6238,-1.6337,-1.5964,-1.6281,-1.6522,-1.6522,-1.6522,-1.6522,-1.6522,-1.6522,-1.6522,-1.6522,-1.6522,-1.6522,-1.6522,-1.6522,-1.6522,-1.6522,-1.6522,-1.6522,1.1713,1.2759,1.3661,1.5321,1.6263,1.703,1.7735,1.8092,1.8231,1.8013,1.6565,1.5218,1.4807,1.3499,1.198,1.0439,1.0444,0.9722,0.7155,0.7063,0.6756,0.5241,0.4527,0.3871,0.0,0.0,0.0,0.0621,-0.0454,-0.111,-0.1025,-0.231,-0.3505,-0.4364,-0.5163,-0.5871,-0.6371,-0.6754,-0.6753,-0.6461,-0.6461,-0.6589,-0.6917,-0.671,-0.71,-0.7974,-0.8786,-0.9419,-0.9965,-1.0966,-1.1423,-1.1416,-1.1309,-1.1269,-1.1243,-1.1035,-1.0722,-1.0468,-1.0949,-1.0735,-1.037,-1.0777,-1.1113,-1.1462,-1.2312,-1.2869,-1.337,-1.3753,-1.3799,-1.3721,-1.3877,-1.3799,-1.3652,-1.3535,-1.3603,-1.3613,-1.334,-1.3281,-1.3281,-1.3281,-1.3066,-1.2881,-1.2881,-1.3055,-1.3238,-1.3238,-1.4595,-1.5676,-1.5832,-1.6064,-1.6051,-1.5632,-1.5964,-1.6008,-1.5632,-1.5952,-1.6281,-1.6479,-1.6522,-1.6522,-1.6522,-1.6522,-1.6522,-1.6522,-1.6522,-1.6522,-1.6522,-1.6522,-1.6522,-1.6522,-1.6522,-1.6522,1.2839,1.3479,1.4224,1.6315,1.6997,1.7594,1.8967,1.9272,1.9125,1.8674,1.7379,1.604,0.0,0.0,1.3048,1.0691,1.0972,1.0759,0.8578,0.8098,0.7816,0.0,0.0,0.0,0.0,0.0,0.0,0.078,0.0,0.0526,0.0537,-0.0613,-0.1485,-0.1783,-0.4015,-0.5209,-0.5085,-0.6025,-0.6298,-0.6017,-0.6017,-0.6449,-0.7212,-0.7203,-0.7581,-0.8218,-0.9468,-0.9781,-0.9571,-1.085,-1.1383,-1.1356,-1.1062,-1.0949,-1.0882,-1.0307,-1.0087,-1.0114,-1.0394,-1.0127,-0.9659,-0.9717,-1.0009,-1.05,-1.1573,-1.1886,-1.2104,-1.3147,-1.3184,-1.2969,-1.3369,-1.3184,-1.2988,-1.3379,-1.3174,-1.2881,-1.2881,-1.2881,-1.2881,-1.2881,-1.2881,-1.2881,-1.2881,-1.3372,-1.3732,-1.3732,-1.4767,-1.532,-1.4789,-1.5276,-1.5632,-1.5543,-1.5588,-1.5588,-1.5487,-1.5543,-1.582,-1.6423,-1.6466,-1.6466,-1.6522,-1.6522,-1.6522,-1.6522,-1.6522,-1.6522,-1.6522,-1.6522,-1.6522,-1.6522,-1.6522,-1.6522,1.5039,1.5639,1.6427,1.706,1.7283,1.7658,1.8887,1.8859,1.84,1.7864,1.6372,1.463,0.0,0.0,0.0,1.0879,1.2315,0.0,1.0324,0.9912,0.0,0.8072,0.0,0.5914,0.5539,0.3309,0.0,0.0,0.0861,0.0174,0.0175,-0.0172,-0.0765,-0.1791,-0.2373,-0.3397,-0.4772,-0.5566,-0.5932,-0.5861,-0.5861,-0.5981,-0.6151,-0.6109,-0.6441,-0.7265,-0.8174,-0.8827,-0.9432,-1.0419,-1.0782,-1.0748,-1.0454,-1.0341,-1.0294,-0.9927,-0.9653,-0.9416,-0.9552,-0.9479,-0.9401,-0.9952,-1.0363,-1.0824,-1.1575,-1.2195,-1.2686,-1.2959,-1.2969,-1.29,-1.3018,-1.2959,-1.291,-1.3018,-1.2959,-1.2881,-1.2881,-1.2881,-1.2881,-1.2881,-1.2881,-1.2881,-1.2881,-1.3017,-1.3152,-1.3152,-1.3779,-1.4549,-1.5276,-1.592,-1.592,-1.5017,-1.532,-1.5219,-1.4318,-1.4687,-1.5197,-1.5776,-1.582,-1.6051,-1.6466,-1.6522,-1.6522,-1.6522,-1.6522,-1.6522,-1.6522,-1.6522,-1.6522,-1.6522,-1.6522,-1.6522,1.6802,1.703,1.7241,1.7529,1.7061,1.6651,1.6944,1.6815,1.6467,1.5753,1.4932,0.0,1.2672,1.3076,0.0,0.0,0.0,0.0,1.0977,1.0535,0.9852,0.0,0.7284,0.0,0.5993,0.4295,0.3057,0.0,0.1264,0.0254,0.0254,0.0248,-0.0163,-0.0978,-0.1452,-0.2584,-0.4469,-0.4974,-0.5377,-0.561,-0.5677,-0.5674,-0.5606,-0.5528,-0.5614,-0.5925,-0.7186,-0.7892,-0.8204,-0.9621,-1.0241,-1.0221,-0.9993,-0.9927,-0.9893,-0.9599,-0.9385,-0.9163,-0.9044,-0.9051,-0.9099,-0.9524,-0.976,-1.0064,-1.0712,-1.1225,-1.1592,-1.19,-1.2197,-1.2403,-1.2403,-1.2666,-1.2881,-1.2881,-1.2881,-1.2881,-1.2881,-1.2881,-1.2881,-1.2881,-1.2881,-1.2881,-1.2881,-1.2881,-1.2881,-1.2881,-1.342,-1.4039,-1.4721,-1.5332,-1.5433,-1.4744,-1.4778,-1.4549,-1.3862,-1.4097,-1.4687,-1.5543,-1.5588,-1.5864,-1.6479,-1.6522,-1.6522,-1.6522,-1.6522,-1.6522,-1.6522,-1.6522,-1.6522,-1.6522,-1.6522,-1.6522,1.8233,1.7827,1.7311,1.7521,1.6422,1.5067,1.4372,1.426,1.4063,1.3222,0.0,1.3626,1.3109,1.3355,1.3256,1.2254,0.0,1.2914,1.1473,1.0656,0.9762,0.8703,0.7776,0.7105,0.6671,0.5638,0.4463,0.3472,0.1704,0.0644,0.0567,0.0553,0.0389,0.0,-0.0985,-0.2268,-0.3769,-0.4192,-0.4688,-0.5196,-0.5396,-0.545,-0.5304,-0.5321,-0.5111,-0.485,-0.6608,-0.7084,-0.6835,-0.8683,-0.944,-0.9557,-0.9524,-0.9562,-0.9586,-0.9292,-0.913,-0.909,-0.8891,-0.8804,-0.8804,-0.8804,-0.8857,-0.9061,-0.9614,-0.9917,-1.0167,-1.0771,-1.1416,-1.1972,-1.1972,-1.2403,-1.2881,-1.2881,-1.2881,-1.2881,-1.2881,-1.2881,-1.2881,-1.2881,-1.2881,-1.2881,-1.2881,-1.2881,-1.2881,-1.2881,-1.342,-1.3815,-1.3815,-1.4329,-1.4652,-1.4606,-1.4043,-1.3705,-1.3684,-1.3716,-1.4207,-1.541,-1.5499,-1.5776,-1.6466,-1.6423,-1.6423,-1.6522,-1.6522,-1.6522,-1.6522,-1.6522,-1.6522,-1.6522,-1.6522,-1.6522,1.9208,1.8307,1.7307,1.6517,1.5222,1.3968,1.3366,1.318,0.0,0.0,1.2858,1.3314,1.2984,1.3597,1.4262,1.4538,0.0,0.0,0.0,0.0,1.028,0.0,0.0,0.0,0.0,0.5575,0.0,0.0,0.1955,0.0832,0.0158,0.0076,0.0074,0.0,-0.0863,-0.148,-0.1815,-0.3289,-0.4071,-0.4068,-0.4807,-0.5135,-0.4999,-0.5118,-0.5443,-0.5932,-0.6361,-0.6871,-0.7362,-0.7758,-0.8251,-0.8768,-0.8549,-0.8802,-0.9223,-0.8991,-0.8884,-0.8878,-0.8824,-0.8804,-0.8804,-0.8804,-0.9159,-0.9666,-0.9762,-1.0559,-1.1466,-1.1616,-1.2138,-1.2715,-1.2715,-1.2822,-1.2881,-1.2881,-1.2881,-1.2881,-1.2881,-1.2881,-1.2881,-1.2881,-1.2881,-1.2881,-1.2881,-1.2881,-1.2881,-1.2881,-1.342,-1.3815,-1.3815,-1.4329,-1.4514,-1.4003,-1.3514,-1.3176,-1.3074,-1.3155,-1.3667,-1.4812,-1.488,-1.5332,-1.6466,-1.6008,-1.6008,-1.6479,-1.6522,-1.6522,-1.6522,-1.6522,-1.6522,-1.6522,-1.6522,-1.6522,1.9808,1.9095,1.827,1.6458,1.4317,1.2282,1.0971,0.0,0.0,0.0,1.141,1.251,1.2803,0.0,0.0,0.0,0.0,0.0,0.0,0.0,0.0,0.0,0.0,0.0,0.0,0.6204,0.5063,0.3909,0.3321,0.2067,0.0075,0.0,0.0,0.0,-0.0412,-0.0872,-0.1273,-0.2147,-0.2991,-0.3825,-0.4202,-0.4609,-0.4921,-0.4989,-0.5179,-0.5443,-0.5879,-0.6106,-0.623,-0.6798,-0.7332,-0.7816,-0.7899,-0.8348,-0.8998,-0.8858,-0.8804,-0.8804,-0.8804,-0.8804,-0.8804,-0.8804,-0.9008,-0.9263,-0.9263,-0.9718,-1.0269,-1.0269,-1.0728,-1.1392,-1.1742,-1.2098,-1.2403,-1.2822,-1.2881,-1.2881,-1.2881,-1.2881,-1.2881,-1.2881,-1.2695,-1.2549,-1.2549,-1.2344,-1.2275,-1.25,-1.2755,-1.2979,-1.2979,-1.3202,-1.3516,-1.3794,-1.3094,-1.2699,-1.289,-1.2742,-1.324,-1.4619,-1.4698,-1.5242,-1.6436,-1.6238,-1.6194,-1.6466,-1.6522,-1.6522,-1.6522,-1.6522,-1.6522,-1.6522,-1.6522,-1.6522,2.0247,1.9868,1.9074,1.6406,1.3543,1.0849,0.8652,0.7755,0.0,0.0,1.0005,1.1678,1.2651,0.0,1.3204,0.0,0.0,0.0,0.0,0.0,0.0,0.0,0.0,0.0,0.0,0.679,0.0,0.4488,0.4172,0.298,0.0428,0.007,0.0,0.0,0.0,-0.0322,-0.1022,-0.1184,-0.2023,-0.3467,-0.3651,-0.4122,-0.4823,-0.4857,-0.4785,-0.47,-0.5301,-0.5286,-0.4811,-0.5743,-0.6337,-0.6713,-0.7072,-0.7777,-0.8586,-0.8586,-0.8646,-0.8804,-0.8804,-0.8804,-0.8804,-0.8804,-0.8804,-0.8804,-0.8804,-0.891,-0.9008,-0.9008,-0.9614,-1.0364,-1.0864,-1.1516,-1.2159,-1.2657,-1.2744,-1.2715,-1.2617,-1.2598,-1.2598,-1.2598,-1.2324,-1.208,-1.208,-1.1797,-1.1724,-1.2031,-1.208,-1.208,-1.208,-1.208,-1.2381,-1.3258,-1.2463,-1.2129,-1.2559,-1.2335,-1.2785,-1.4281,-1.4359,-1.4947,-1.6238,-1.6194,-1.625,-1.6466,-1.6522,-1.6522,-1.6522,-1.6522,-1.6522,-1.6522,-1.6522,-1.6522,2.0733,2.0197,1.8906,1.5719,1.2949,1.0292,0.744,0.0,0.0,0.7613,0.9271,1.1065,1.2625,1.263,0.0,0.0,0.0,1.2586,0.0,0.0,0.0,0.0,0.0,0.0,0.7134,0.706,0.6214,0.4228,0.3211,0.2223,0.1214,0.0406,0.0,0.0,0.0,-0.0064,-0.0124,-0.0925,-0.1637,-0.2354,-0.3238,-0.3941,-0.4567,-0.465,-0.4626,-0.4546,-0.4744,-0.4518,-0.4039,-0.4508,-0.4904,-0.5228,-0.5573,-0.6573,-0.7777,-0.7777,-0.8209,-0.8804,-0.8804,-0.8804,-0.8804,-0.8804,-0.8804,-0.8804,-0.8804,-0.9211,-0.9718,-0.9718,-1.0618,-1.1616,-1.1715,-1.2236,-1.2725,-1.2336,-1.2239,-1.2178,-1.1812,-1.1724,-1.1724,-1.1724,-1.1694,-1.1665,-1.1665,-1.1636,-1.1616,-1.1655,-1.1665,-1.1665,-1.1665,-1.1665,-1.1675,-1.1802,-1.1332,-1.1211,-1.1685,-1.1777,-1.2246,-1.3165,-1.3273,-1.3994,-1.5608,-1.5152,-1.5389,-1.6479,-1.6522,-1.6522,-1.6522,-1.6522,-1.6522,-1.6522,-1.6522,-1.6522,1.9308,1.8942,1.7909,1.4286,1.1341,0.87,0.645,0.0,0.5097,0.6962,0.8442,0.9865,1.1344,1.1512,1.1657,0.0,0.0,0.0,0.0,0.0,0.0,0.0,0.0,0.0,0.0,0.0,0.6278,0.4768,0.379,0.3079,0.2732,0.1403,0.0445,0.0,0.0,0.0,0.0,-0.0353,-0.1098,-0.2219,-0.256,-0.3388,-0.4519,-0.458,-0.4577,-0.4522,-0.4584,-0.4216,-0.362,-0.4235,-0.4584,-0.4763,-0.5304,-0.614,-0.702,-0.702,-0.7235,-0.7557,-0.799,-0.8156,-0.8209,-0.8646,-0.8804,-0.8804,-0.8804,-0.9008,-0.9211,-0.9211,-0.9562,-1.0064,-1.0517,-1.121,-1.194,-1.2173,-1.2021,-1.1777,-1.1645,-1.1606,-1.1606,-1.1606,-1.139,-1.1172,-1.1172,-1.0998,-1.092,-1.1133,-1.1172,-1.1172,-1.1172,-1.1172,-1.1074,-1.0861,-1.0859,-1.1084,-1.1567,-1.1404,-1.1696,-1.2668,-1.2962,-1.3596,-1.4647,-1.4677,-1.4937,-1.5433,-1.5433,-1.5599,-1.5952,-1.5952,-1.6139,-1.6522,-1.6522,-1.6522,1.7985,1.8,1.7325,1.3641,1.0689,0.8207,0.0,0.0,0.4345,0.6497,0.7689,0.8745,1.0021,1.035,1.0537,0.0,0.0,1.1222,1.1797,0.0,0.0,0.0,0.0,0.9581,0.0,0.7612,0.6117,0.5115,0.441,0.3901,0.363,0.2464,0.1322,0.0365,0.0119,0.0,0.0,0.0,-0.0615,-0.1898,-0.212,-0.2773,-0.3845,-0.4275,-0.4381,-0.4178,-0.4388,-0.4162,-0.362,-0.4239,-0.4422,-0.44,-0.4989,-0.5621,-0.6221,-0.6435,-0.6607,-0.6864,-0.7546,-0.7814,-0.7967,-0.8416,-0.8604,-0.8684,-0.8684,-0.8738,-0.8804,-0.8804,-0.8894,-0.9109,-0.9695,-1.0454,-1.1177,-1.1495,-1.146,-1.1371,-1.1253,-1.1224,-1.1224,-1.1224,-1.0937,-1.0723,-1.0723,-1.0478,-1.0381,-1.0684,-1.0723,-1.0723,-1.0723,-1.0723,-1.0615,-1.0312,-1.0547,-1.085,-1.1204,-1.0898,-1.1104,-1.1954,-1.2408,-1.2984,-1.3751,-1.4214,-1.4514,-1.4698,-1.4698,-1.4926,-1.532,-1.5499,-1.582,-1.6238,-1.6423,-1.6522,1.7357,1.7725,1.7443,1.4289,1.1674,0.9301,0.0,0.0,0.5129,0.6252,0.7086,0.7885,0.8852,0.9341,0.9676,0.9867,0.0,0.0,1.0956,0.0,0.0,0.0,0.0,1.0033,0.8918,0.7123,0.5695,0.4975,0.4775,0.4397,0.3635,0.3468,0.2665,0.1114,0.0353,0.0,0.0,0.0,-0.0392,-0.1118,-0.1842,-0.2193,-0.2281,-0.3787,-0.405,-0.3342,-0.4175,-0.4267,-0.3934,-0.4348,-0.4267,-0.3937,-0.4348,-0.4854,-0.5384,-0.599,-0.6563,-0.7152,-0.7691,-0.813,-0.833,-0.8036,-0.8136,-0.8427,-0.8427,-0.8577,-0.8804,-0.8804,-0.9096,-0.9455,-0.9793,-1.0337,-1.0693,-1.0249,-1.0535,-1.0801,-1.0381,-1.0293,-1.0293,-1.0293,-1.0293,-1.0332,-1.0332,-1.0283,-1.0283,-1.0332,-1.0332,-1.0332,-1.0332,-1.0332,-1.0283,-1.0283,-1.0283,-1.0332,-1.0293,-1.0293,-1.0469,-1.0889,-1.1371,-1.2057,-1.3055,-1.3563,-1.4097,-1.4709,-1.4698,-1.4698,-1.4698,-1.532,-1.5588,-1.5632,-1.6238,-1.6522,1.5255,1.4999,1.4168,1.1846,1.0001,0.8332,0.6844,0.0,0.5397,0.6713,0.7049,0.7391,0.8292,0.8537,0.8865,0.958,0.9753,0.0,0.0,0.0,0.0,1.1123,1.0453,0.9558,0.0,0.0,0.6678,0.5434,0.534,0.5019,0.4244,0.3569,0.2793,0.1869,0.1136,0.0727,0.0756,0.027,-0.0374,-0.1095,-0.1355,-0.1499,-0.1631,-0.2532,-0.2876,-0.2796,-0.3291,-0.3666,-0.3875,-0.4187,-0.4072,-0.3751,-0.4154,-0.4327,-0.444,-0.4638,-0.4799,-0.5095,-0.5775,-0.6314,-0.6815,-0.7218,-0.7647,-0.807,-0.807,-0.8277,-0.851,-0.851,-0.8639,-0.8785,-0.9151,-0.9424,-0.9692,-1.0049,-1.0318,-1.0439,-1.0312,-1.0283,-1.0283,-1.0283,-1.0283,-1.0283,-1.0283,-1.0283,-1.0283,-1.0283,-1.0283,-1.0283,-1.0283,-1.0283,-1.0283,-1.0283,-1.0283,-1.0283,-1.0283,-1.0283,-1.0342,-1.0469,-1.1204,-1.1753,-1.2047,-1.2789,-1.3286,-1.3478,-1.3478,-1.3894,-1.4698,-1.488,-1.5421,-1.6238,-1.6423,-1.6522,0.0,1.3353,1.2436,1.0988,0.9597,0.8288,0.0,0.0,0.6137,0.693,0.7078,0.7211,0.767,0.7953,0.8361,0.8955,0.9448,0.0,0.0,0.0,0.0,1.0666,0.0,0.0,0.0,0.7882,0.7274,0.6023,0.5761,0.5398,0.4804,0.3968,0.3303,0.2897,0.188,0.1277,0.1041,0.0574,0.0,-0.0707,-0.0958,-0.1,-0.0836,-0.1798,-0.2121,-0.198,-0.2522,-0.3057,0.0,-0.3694,-0.3751,-0.3783,-0.4022,-0.402,-0.3934,-0.4174,-0.423,-0.427,-0.4922,-0.5495,-0.5928,-0.6313,-0.6719,-0.7089,-0.7329,-0.7771,-0.8183,-0.8063,-0.8078,-0.8099,-0.8144,-0.8399,-0.876,-0.9174,-0.965,-1.0,-1.0,-1.0157,-1.0283,-1.0283,-1.0283,-1.0283,-1.0283,-1.0283,-1.0283,-1.0283,-1.0283,-1.0283,-1.0283,-1.0283,-1.0283,-1.0283,-1.0283,-1.0283,-1.0283,-1.0283,-1.0283,-1.0283,-1.1126,-1.1606,-1.1606,-1.2459,-1.2881,-1.2881,-1.2881,-1.3296,-1.4025,-1.4247,-1.4971,-1.6151,-1.6151,-1.6281,0.0,1.2702,1.2067,1.1367,1.0211,0.8963,0.0,0.0,0.0,0.0,0.7194,0.7344,0.715,0.7694,0.8194,0.8312,0.9284,0.0,0.0,1.1122,0.0,0.0,0.976,0.0,0.8014,0.783,0.7444,0.6725,0.6013,0.5498,0.5267,0.4632,0.4148,0.4009,0.2645,0.1649,0.1054,0.0954,0.0653,0.01,-0.0651,-0.0639,0.0095,-0.1377,-0.1669,-0.1096,-0.1773,-0.2449,-0.3003,-0.3003,-0.3348,-0.389,-0.39,-0.3855,-0.3854,-0.4407,-0.4467,-0.4392,-0.4952,-0.5355,-0.5555,-0.5368,-0.5473,-0.5773,-0.6344,-0.7155,-0.7815,-0.7555,-0.7513,-0.7439,-0.7101,-0.7447,-0.7919,-0.7919,-0.8675,-0.9439,-0.9478,-0.9883,-1.0244,-1.0244,-1.0283,-1.0283,-1.0244,-1.0283,-1.0283,-1.0283,-1.0283,-1.0283,-1.0283,-1.0283,-1.0283,-1.0283,-1.0283,-1.0283,-1.0283,-1.0283,-1.0283,-1.0283,-1.1096,-1.1557,-1.1557,-1.2381,-1.2803,-1.2832,-1.291,-1.2958,-1.2977,-1.3627,-1.4549,-1.5676,-1.5676,-1.5952,1.2591,0.0,1.1248,1.0448,0.9861,0.9281,0.0,0.0,0.0,0.0,0.0,0.8355,0.8034,0.8371,0.8927,0.9563,0.0,0.0,1.1073,0.0,0.0,1.1435,1.0677,1.0019,0.9629,0.8942,0.8128,0.7183,0.696,0.634,0.5077,0.4739,0.4359,0.3846,0.341,0.2941,0.2453,0.1397,0.1045,0.1381,0.0277,0.0321,0.1315,0.0046,-0.0466,-0.0426,-0.0975,-0.1592,-0.2261,-0.2261,-0.255,-0.3038,-0.3133,-0.3315,-0.3495,-0.3581,-0.352,-0.3421,-0.358,-0.4016,-0.4651,-0.5139,-0.5264,-0.5282,-0.555,-0.6396,-0.7329,-0.7458,-0.7513,-0.7439,-0.7101,-0.7447,-0.7919,-0.7919,-0.8398,-0.8999,-0.9399,-0.9597,-0.9686,-0.9686,-1.0,-1.0166,-0.9755,-1.004,-1.0283,-1.0283,-1.0283,-1.0283,-1.0283,-1.0283,-1.0283,-1.0283,-1.0283,-1.0283,-1.0283,-1.0283,-1.0283,-1.0283,-1.0771,-1.1064,-1.1064,-1.1626,-1.2031,-1.2383,-1.3152,-1.3657,-1.3805,-1.4733,-1.5543,-1.6281,-1.6281,-1.638,1.2627,1.2053,1.1383,1.0775,1.0377,0.9944,0.9379,0.0,0.0,0.0,0.0,0.0,0.9028,0.0,0.0,0.0,1.1194,0.0,0.0,0.0,1.2148,1.1841,1.1006,1.0314,0.0,0.9147,0.8331,0.7635,0.7258,0.6646,0.5743,0.5054,0.4634,0.45,0.3811,0.3203,0.2737,0.1977,0.1713,0.1888,0.0817,0.0739,0.1517,0.0489,-0.0045,-0.0092,-0.0133,-0.0659,-0.1479,-0.1274,-0.1632,-0.2315,-0.2371,-0.2623,-0.2964,-0.2964,-0.2994,-0.3082,-0.3082,-0.3418,-0.3855,-0.4236,-0.4384,-0.4477,-0.4794,-0.5448,-0.6141,-0.6428,-0.6686,-0.688,-0.6685,-0.707,-0.7489,-0.7489,-0.7904,-0.8398,-0.8716,-0.8958,-0.9119,-0.9119,-0.9359,-0.9478,-0.9199,-0.9359,-0.9558,-0.9558,-0.9755,-0.9922,-0.9922,-1.0166,-1.0283,-1.0283,-1.0283,-1.0283,-1.0283,-1.0283,-1.0283,-1.0283,-1.0674,-1.0908,-1.0908,-1.1328,-1.1768,-1.2171,-1.2759,-1.3361,-1.3947,-1.4518,-1.5231,-1.6095,-1.6095,-1.6238,1.2873,1.2686,1.2302,1.1652,1.1175,1.0775,0.0,0.0,0.0,0.0,0.0,0.0,0.0,0.0,0.0,0.0,0.0,0.0,1.3477,1.3394,1.2976,1.2017,1.1166,0.0,0.9987,0.8997,0.823,0.7882,0.7263,0.6789,0.646,0.548,0.4983,0.5169,0.4107,0.3279,0.2667,0.2519,0.2354,0.2173,0.1217,0.1039,0.1463,0.0524,0.0133,0.0133,0.047,0.0084,-0.0745,-0.0318,-0.0741,-0.1676,-0.1676,-0.1941,-0.2358,-0.2435,-0.2654,-0.2942,-0.3041,-0.3118,-0.3212,-0.3259,-0.3402,-0.3601,-0.4085,-0.4473,-0.4739,-0.4995,-0.5631,-0.6259,-0.6295,-0.6647,-0.6979,-0.6979,-0.7405,-0.7787,-0.7878,-0.8275,-0.8602,-0.8602,-0.8643,-0.8675,-0.8594,-0.8643,-0.8716,-0.8716,-0.9079,-0.9359,-0.9359,-0.9755,-1.004,-1.004,-1.004,-1.004,-1.004,-1.0118,-1.0166,-1.0166,-1.0575,-1.0811,-1.0811,-1.123,-1.1611,-1.1879,-1.2061,-1.2579,-1.351,-1.3573,-1.4224,-1.5381,-1.5469,-1.5835,1.3129,1.4088,1.4456,1.2093,1.153,1.1318,0.0,0.0,0.0,0.0,0.0,0.0,0.0,0.0,0.0,0.0,0.0,1.3204,0.0,0.0,1.3441,1.3326,0.0,1.0723,1.0654,0.9286,0.8192,0.7627,0.7438,0.6944,0.5897,0.5902,0.5513,0.4563,0.4619,0.4248,0.3444,0.2627,0.2475,0.2921,0.1769,0.1614,0.2261,0.1139,0.0635,0.0721,0.0295,0.0,-0.0119,-0.0079,-0.0431,-0.1054,-0.1054,-0.1333,-0.1764,-0.2127,-0.2212,-0.2252,-0.2753,-0.2873,-0.2825,-0.3076,-0.3171,-0.3215,-0.3423,-0.3627,-0.3807,-0.3832,-0.5171,-0.6593,-0.6835,-0.6937,-0.6979,-0.6979,-0.7063,-0.728,-0.7787,-0.7953,-0.8036,-0.8036,-0.8398,-0.8561,-0.8118,-0.8398,-0.8716,-0.8716,-0.8756,-0.8837,-0.8837,-0.8878,-0.8958,-0.8958,-0.8958,-0.8958,-0.8958,-0.9359,-0.9637,-0.9637,-1.0097,-1.0381,-1.0381,-1.0791,-1.0869,-1.0586,-1.1341,-1.186,-1.2212,-1.2552,-1.3249,-1.4355,-1.486,-1.5313,1.3648,1.4453,1.5094,1.435,1.4163,0.0,0.0,0.0,0.0,0.0,0.0,0.0,0.0,0.0,0.0,0.0,0.0,1.3726,1.4192,1.3961,1.3651,0.0,0.0,1.1155,1.0994,0.9638,0.8474,0.7788,0.7539,0.7066,0.6243,0.5893,0.5611,0.5366,0.4813,0.4372,0.404,0.3199,0.294,0.3196,0.2181,0.2012,0.2562,0.1515,0.0929,0.0807,0.0748,0.0423,0.0038,0.0257,0.0072,-0.0397,-0.0397,-0.0711,-0.1149,-0.1564,-0.1675,-0.1682,-0.2244,-0.2408,-0.2504,-0.2888,-0.3059,-0.3095,-0.3165,-0.3438,-0.3704,-0.3783,-0.4592,-0.5507,-0.5962,-0.6343,-0.6609,-0.6745,-0.6907,-0.7022,-0.7153,-0.7334,-0.7405,-0.7405,-0.7607,-0.769,-0.7447,-0.7607,-0.7765,-0.7765,-0.807,-0.8275,-0.8275,-0.8521,-0.8716,-0.8716,-0.8716,-0.8716,-0.8716,-0.8918,-0.9319,-0.9883,-1.0157,-1.0157,-0.9883,-1.03,-1.0456,-1.0212,-1.0881,-1.1558,-1.2213,-1.2425,-1.3235,-1.4584,-1.4869,-1.5368,1.4163,1.4769,1.5505,1.6155,0.0,0.0,0.0,0.0,0.0,0.0,0.0,0.0,0.0,0.0,0.0,1.6363,1.5245,1.428,1.4353,1.4021,1.3651,1.3182,1.2158,1.1361,1.1044,0.9856,0.8776,0.7993,0.7701,0.728,0.6684,0.6039,0.5793,0.6123,0.5115,0.453,0.4448,0.3899,0.3458,0.3167,0.2471,0.236,0.2717,0.1848,0.1306,0.1073,0.1218,0.0866,0.0178,0.0547,0.0437,0.0,0.0,-0.0303,-0.0739,-0.1039,-0.1204,-0.1338,-0.1709,-0.1894,-0.2063,-0.2425,-0.2619,-0.2762,-0.2876,-0.317,-0.3556,-0.3785,-0.3959,-0.4274,-0.5042,-0.5614,-0.6007,-0.6235,-0.6441,-0.6536,-0.6328,-0.6441,-0.6634,-0.6768,-0.681,-0.6859,-0.6979,-0.6979,-0.6979,-0.6979,-0.7405,-0.7704,-0.7704,-0.8062,-0.83,-0.83,-0.83,-0.8349,-0.8521,-0.8521,-0.8918,-0.9883,-0.9922,-0.9804,-0.9518,-0.9883,-1.0113,-1.0169,-1.0558,-1.1165,-1.1996,-1.1996,-1.2741,-1.4217,-1.4343,-1.4993,1.447,1.541,1.6361,1.6159,0.0,0.0,0.0,0.0,0.0,0.0,0.0,0.0,0.0,0.0,1.6302,1.5148,1.4821,1.4492,1.3698,0.0,1.34,1.2978,1.193,1.113,1.083,0.9769,0.8797,0.8028,0.7956,0.7642,0.6931,0.6775,0.6446,0.594,0.5705,0.5276,0.4599,0.4543,0.3918,0.2746,0.269,0.2733,0.2871,0.2218,0.2001,0.2074,0.1526,0.106,0.0643,0.0674,0.0437,0.0,0.0,-0.0303,-0.0706,-0.0739,-0.0973,-0.1305,-0.1338,-0.1341,-0.138,-0.1414,-0.1537,-0.1788,-0.2151,-0.2411,-0.2682,-0.3208,-0.3286,-0.3496,-0.4778,-0.5157,-0.5204,-0.536,-0.5422,-0.5432,-0.5411,-0.5422,-0.561,-0.6136,-0.6264,-0.6435,-0.6894,-0.6979,-0.6979,-0.6979,-0.7021,-0.7063,-0.7063,-0.7105,-0.7105,-0.7105,-0.7105,-0.7356,-0.7912,-0.7953,-0.8201,-0.8797,-0.8797,-0.9039,-0.9478,-0.9518,-0.9774,-1.0283,-1.0322,-1.0381,-1.0449,-1.0449,-1.0954,-1.1854,-1.2403,-1.3445,1.5013,1.5736,1.6651,1.7514,0.0,0.0,0.0,0.0,0.0,0.0,0.0,0.0,0.0,0.0,1.6338,1.5927,1.5661,1.5328,1.469,1.4312,1.3797,1.3119,1.2096,1.1208,1.0533,1.0121,0.937,0.8215,0.8199,0.7851,0.6942,0.6484,0.6233,0.6283,0.5723,0.5281,0.4966,0.4724,0.4248,0.3499,0.32,0.297,0.2768,0.2556,0.2313,0.2075,0.1832,0.1469,0.1039,0.0807,0.0738,0.0803,0.0803,0.0536,0.0168,0.0168,-0.0101,-0.0536,-0.0839,-0.094,-0.0973,-0.1204,-0.1358,-0.1451,-0.1587,-0.1792,-0.2013,-0.2393,-0.2514,-0.2863,-0.4298,-0.4619,-0.4632,-0.4961,-0.5164,-0.5267,-0.5089,-0.5169,-0.5351,-0.561,-0.5964,-0.627,-0.6477,-0.6768,-0.6979,-0.6979,-0.6979,-0.6979,-0.6979,-0.6979,-0.6979,-0.6979,-0.6683,-0.6605,-0.6816,-0.6507,-0.6368,-0.6567,-0.7915,-0.8635,-0.8513,-0.8837,-0.8958,-0.8797,-0.9478,-0.9804,-0.9804,-1.0118,-1.0775,-1.1727,-1.2025,-1.2944,1.5921,1.6457,1.7219,0.0,0.0,0.0,0.0,0.0,0.0,0.0,0.0,0.0,0.0,0.0,0.0,0.0,1.6127,1.5765,1.5188,1.4631,1.4014,1.3418,1.2465,1.1572,1.0815,1.0624,0.995,0.857,0.8549,0.8164,0.7204,0.6589,0.6397,0.6691,0.6037,0.5665,0.5612,0.5219,0.4782,0.4366,0.3909,0.3425,0.2874,0.2874,0.2643,0.2214,0.2214,0.1945,0.1507,0.1208,0.1174,0.1305,0.1305,0.1139,0.0873,0.0739,0.0504,0.0168,-0.0303,-0.0471,-0.0537,-0.0804,-0.0904,-0.0904,-0.1072,-0.1205,-0.1378,-0.1767,-0.1882,-0.2187,-0.3307,-0.3588,-0.3644,-0.3849,-0.4206,-0.4435,-0.4228,-0.4517,-0.4831,-0.5,-0.5351,-0.5696,-0.5873,-0.6209,-0.6465,-0.6465,-0.6465,-0.6465,-0.6465,-0.6465,-0.655,-0.6725,-0.6258,-0.6007,-0.6179,-0.5653,-0.5303,-0.5303,-0.6778,-0.7626,-0.7607,-0.8308,-0.8602,-0.8398,-0.9279,-0.9755,-0.9755,-1.0118,-1.0804,-1.1781,-1.1842,-1.2625,1.7221,1.7745,0.0,0.0,0.0,0.0,0.0,0.0,0.0,0.0,0.0,0.0,0.0,0.0,0.0,1.6034,1.5903,1.5652,1.4824,1.4228,1.3926,1.3915,1.3003,1.2206,1.1741,1.1281,1.0458,0.9107,0.9004,0.8633,0.7744,0.7314,0.7118,0.7118,0.6721,0.6518,0.6518,0.6098,0.5658,0.5206,0.4814,0.414,0.329,0.329,0.3068,0.2712,0.2712,0.2447,0.2014,0.2014,0.1742,0.1305,0.1305,0.1305,0.1273,0.0873,0.0706,0.0639,0.0168,0.0,0.0,0.0,0.0,-0.0101,-0.0538,-0.0706,-0.0816,-0.1432,-0.1432,-0.1372,-0.171,-0.1989,-0.2133,-0.1861,-0.2246,-0.2719,-0.2719,-0.317,-0.3751,-0.4303,-0.4387,-0.4609,-0.5173,-0.5303,-0.5303,-0.5303,-0.5303,-0.5303,-0.5303,-0.5303,-0.5524,-0.6136,-0.5653,-0.5524,-0.6136,-0.561,-0.5303,-0.5303,-0.5303,-0.5813,-0.6945,-0.8088,-0.8918,-0.9478,-1.0,-1.0283,-1.0283,-1.0283,-1.0764,-1.1671,-1.1671,-1.252,1.7654,1.8486,0.0,0.0,0.0,0.0,0.0,0.0,0.0,0.0,0.0,0.0,0.0,0.0,0.0,1.6691,1.6749,1.6532,1.5538,1.4891,1.4273,1.3551,1.2828,1.2108,1.1347,1.1469,1.1146,1.0124,0.9983,0.9552,0.8744,0.794,0.7511,0.753,0.6859,0.6631,0.6901,0.6518,0.6121,0.5689,0.5571,0.4903,0.3793,0.3458,0.3229,0.3097,0.2812,0.2613,0.248,0.248,0.2408,0.2299,0.2272,0.2272,0.2233,0.1776,0.1408,0.1106,0.0971,0.0737,0.0504,0.0504,0.0269,-0.0034,-0.0168,-0.0202,-0.0303,-0.0822,-0.0919,-0.0913,-0.1013,-0.1077,-0.1343,-0.2236,-0.2552,-0.2807,-0.3262,-0.3486,-0.3667,-0.3792,-0.4136,-0.4478,-0.4652,-0.5,-0.5303,-0.5303,-0.5303,-0.5303,-0.5303,-0.5303,-0.5346,-0.5567,-0.5043,-0.4735,-0.4913,-0.4443,-0.41,-0.41,-0.4874,-0.5647,-0.6422,-0.6761,-0.7182,-0.7716,-0.8308,-0.8594,-0.8594,-0.9359,-0.99,-1.0162,-1.0538,-1.1125,1.8856,0.0,0.0,0.0,0.0,0.0,0.0,0.0,0.0,0.0,0.0,0.0,1.8359,1.7946,0.0,1.6987,1.6743,1.6349,1.571,1.5007,1.4311,1.3704,1.3091,1.2456,1.1734,1.1918,1.1617,1.0514,1.0339,0.9899,0.9017,0.8435,0.806,0.7957,0.7452,0.7237,0.7344,0.694,0.6601,0.6366,0.6068,0.5508,0.4718,0.4103,0.3719,0.3556,0.3335,0.3204,0.3204,0.3204,0.32,0.3225,0.3204,0.32,0.313,0.2504,0.2106,0.1802,0.1438,0.1139,0.094,0.094,0.0638,0.0269,0.0269,0.0134,-0.0067,-0.0336,-0.0437,-0.0437,-0.0437,-0.0429,-0.0616,-0.1454,-0.1796,-0.2097,-0.2457,-0.2726,-0.2904,-0.2904,-0.3161,-0.3372,-0.3372,-0.3679,-0.3894,-0.3894,-0.4117,-0.4252,-0.4252,-0.4478,-0.47,-0.4913,-0.4439,-0.4089,-0.4033,-0.3788,-0.349,-0.3262,-0.4092,-0.4879,-0.548,-0.638,-0.7027,-0.7363,-0.7904,-0.8234,-0.8234,-0.8878,-0.939,-0.9776,-1.0099,-1.0625,0.0,0.0,0.0,0.0,0.0,0.0,0.0,0.0,0.0,0.0,0.0,1.962,1.9015,1.7938,1.7163,1.7088,1.6251,1.5607,1.548,1.4704,1.4118,1.4082,1.3518,1.2998,1.2615,1.2531,1.193,1.0592,1.0412,0.9928,0.8984,0.8866,0.869,0.8347,0.8336,0.8176,0.7802,0.7393,0.7198,0.7148,0.6366,0.596,0.5876,0.4998,0.4366,0.3958,0.3958,0.3948,0.3933,0.3953,0.3995,0.4028,0.4016,0.4026,0.3956,0.3126,0.2798,0.2629,0.1769,0.1438,0.1371,0.1371,0.1072,0.0739,0.0739,0.047,0.0134,0.0134,0.0134,0.0134,0.0134,0.0105,0.0111,0.0116,-0.0375,-0.0841,-0.0844,-0.1287,-0.1643,-0.1649,-0.1649,-0.1649,-0.1649,-0.1649,-0.1649,-0.1695,-0.2182,-0.2539,-0.2627,-0.3081,-0.3615,-0.4125,-0.3744,-0.3391,-0.3369,-0.3388,-0.3217,-0.2674,-0.317,-0.3744,-0.4212,-0.6404,-0.7614,-0.7655,-0.8185,-0.8472,-0.8472,-0.8594,-0.9102,-0.9982,-1.006,-1.0608,0.0,2.1543,0.0,0.0,0.0,0.0,0.0,0.0,0.0,0.0,1.9838,1.9101,1.8788,1.8106,1.7427,1.7,1.6747,1.6306,1.5455,1.4715,1.4186,1.3952,1.3357,1.2993,1.3045,1.2663,1.2283,1.1984,1.1118,1.0387,0.9942,0.9513,0.9101,0.8706,0.869,0.8651,0.8568,0.8213,0.7898,0.7569,0.708,0.6517,0.5883,0.4996,0.4234,0.362,0.362,0.3497,0.3298,0.3521,0.3842,0.4141,0.405,0.4188,0.4409,0.3918,0.349,0.3126,0.2925,0.2438,0.1845,0.1845,0.1542,0.1173,0.1173,0.1104,0.1004,0.1004,0.1004,0.1004,0.1004,0.1011,0.1019,0.1031,0.0309,-0.0366,-0.0335,-0.0464,-0.0511,-0.0397,-0.0399,-0.0399,-0.0399,-0.0399,-0.0532,-0.1021,-0.1198,-0.1465,-0.1917,-0.2097,-0.223,-0.2359,-0.2273,-0.2186,-0.2182,-0.2184,-0.2142,-0.2006,-0.2581,-0.2929,-0.3058,-0.4418,-0.5379,-0.5862,-0.6422,-0.6725,-0.6725,-0.7655,-0.8193,-0.839,-0.882,-0.9381,0.0,0.0,0.0,0.0,0.0,0.0,0.0,0.0,0.0,2.0927,2.0,1.914,1.9058,1.804,1.7124,1.6837,1.638,1.5723,1.485,1.4266,1.3748,1.3297,1.2927,1.2799,1.3031,1.2683,1.2316,1.2046,1.1343,1.0678,1.0101,0.9792,0.9475,0.9089,0.9101,0.8981,0.8789,0.8477,0.8195,0.7984,0.7187,0.6379,0.5543,0.4969,0.4413,0.3934,0.3934,0.3929,0.3929,0.406,0.4489,0.5013,0.4947,0.5036,0.5163,0.4744,0.4296,0.3881,0.3691,0.3331,0.2937,0.2706,0.2335,0.1968,0.1968,0.18,0.1665,0.1864,0.1797,0.1632,0.1632,0.1467,0.1363,0.1574,0.1074,0.0511,0.0522,0.0574,0.0671,0.0774,0.0833,0.0844,0.0844,0.0844,0.0755,0.0444,0.0133,-0.0133,-0.0488,-0.0755,-0.0933,-0.0933,-0.12,-0.1156,-0.0577,-0.1022,-0.1112,-0.0533,-0.133,-0.1726,-0.1416,-0.2527,-0.3544,-0.4413,-0.5029,-0.5336,-0.5336,-0.624,-0.6923,-0.7474,-0.775,-0.8333,0.0,0.0,0.0,0.0,0.0,0.0,0.0,0.0,0.0,2.1735,2.0444,1.9295,1.9295,1.79,1.6713,1.6623,1.5876,1.5037,1.4327,1.3842,1.3302,1.2692,1.2513,1.2592,1.2975,1.2597,1.2246,1.1989,1.1448,1.086,1.0186,1.0046,0.9841,0.9502,0.9475,0.9316,0.9008,0.8662,0.8477,0.8477,0.7222,0.6223,0.5424,0.5026,0.4693,0.4406,0.4451,0.4596,0.4767,0.4878,0.5305,0.5922,0.5983,0.6006,0.5944,0.5494,0.5061,0.466,0.4248,0.4058,0.3928,0.3556,0.3192,0.2929,0.2929,0.2656,0.2416,0.2747,0.2613,0.2353,0.2353,0.2062,0.1871,0.2242,0.2042,0.1717,0.1619,0.1714,0.1853,0.1882,0.1996,0.2097,0.2097,0.2097,0.2097,0.1962,0.1511,0.1153,0.1065,0.0621,0.031,0.031,-0.0133,-0.0044,0.0976,0.0133,0.0,0.0976,0.0133,-0.0222,0.031,-0.0667,-0.1643,-0.2554,-0.3571,-0.4105,-0.4105,-0.4678,-0.5545,-0.6561,-0.6561,-0.7148,0.0,0.0,0.0,0.0,0.0,0.0,0.0,0.0,2.236,0.0,2.0471,1.8965,1.8965,1.7777,1.6696,1.6397,1.6237,1.5808,1.483,1.4157,1.3601,1.3156,1.2578,1.2548,1.3345,1.2444,1.2266,1.3338,1.1868,1.1017,1.119,1.0636,1.0185,0.9841,0.9816,0.9816,0.9764,0.9422,0.9235,0.9224,0.7851,0.6916,0.6396,0.5468,0.4816,0.4421,0.4649,0.4704,0.467,0.513,0.5615,0.6087,0.6334,0.6427,0.6366,0.5975,0.5533,0.5055,0.466,0.428,0.3993,0.3923,0.3858,0.3826,0.3826,0.3793,0.3756,0.3788,0.3788,0.3723,0.3723,0.3691,0.3658,0.3728,0.37,0.3449,0.2835,0.2695,0.2778,0.3011,0.3212,0.3353,0.3353,0.3353,0.3173,0.2674,0.2495,0.2271,0.1738,0.1604,0.156,0.156,0.1471,0.1515,0.1649,0.1515,0.1515,0.1649,0.1515,0.1471,0.156,0.1426,0.1246,0.1111,-0.1547,-0.2923,-0.2923,-0.3487,-0.4097,-0.4756,-0.4756,-0.5348,0.0,0.0,0.0,0.0,0.0,0.0,0.0,0.0,2.1932,2.2237,2.1167,1.9976,1.9355,1.8254,1.7237,1.667,1.6581,1.615,1.4934,1.449,1.3938,1.2992,1.2582,1.2803,1.3741,1.3065,1.2939,1.3899,1.2889,1.2094,1.1705,1.1405,1.1005,1.0485,1.0285,1.0185,1.0185,0.9659,0.9174,0.8725,0.7757,0.7235,0.7075,0.6339,0.5389,0.4374,0.4743,0.497,0.5086,0.5589,0.6147,0.6672,0.678,0.6841,0.6811,0.6631,0.6144,0.5564,0.5383,0.5074,0.4698,0.4409,0.4344,0.4344,0.4344,0.4344,0.4377,0.4666,0.4538,0.4344,0.4344,0.4183,0.3993,0.3993,0.3993,0.3921,0.3581,0.369,0.3872,0.3909,0.4254,0.436,0.3711,0.4144,0.4351,0.373,0.3946,0.4073,0.3807,0.3763,0.3763,0.3763,0.3453,0.3409,0.3719,0.3453,0.3409,0.3719,0.3453,0.3409,0.3763,0.3099,0.2923,0.3231,0.0661,-0.0841,-0.1198,-0.1769,-0.2517,-0.345,-0.3756,-0.4362,0.0,0.0,0.0,0.0,0.0,0.0,0.0,0.0,2.1559,0.0,2.1863,2.1283,2.0339,1.9048,1.788,1.7065,1.6942,1.6482,1.5158,1.4982,1.4533,1.3304,1.3159,1.3521,1.4444,1.3968,1.3976,1.4812,1.3875,1.3019,1.2427,1.1964,1.1489,1.091,1.0667,1.0532,1.0532,0.9957,0.9297,0.8636,0.8027,0.7761,0.7784,0.7253,0.6307,0.5137,0.5486,0.5729,0.5899,0.6323,0.6793,0.7246,0.7246,0.7246,0.7246,0.7148,0.6721,0.6183,0.6098,0.5851,0.5547,0.5194,0.5099,0.5099,0.5099,0.5099,0.5163,0.5515,0.5264,0.4947,0.4947,0.4634,0.4318,0.4318,0.4318,0.4296,0.413,0.4368,0.4592,0.4595,0.4962,0.5048,0.4188,0.4748,0.513,0.4691,0.5,0.5303,0.5303,0.5303,0.5303,0.5303,0.4899,0.4813,0.526,0.4726,0.4639,0.526,0.4726,0.4682,0.526,0.4578,0.4392,0.4837,0.3119,0.172,0.0667,0.0221,-0.0663,-0.2039,-0.2436,-0.3008,0.0,0.0,0.0,0.0,0.0,0.0,0.0,0.0,2.1777,2.1819,2.2243,2.2494,2.2036,2.0275,1.8497,1.746,1.7256,1.6921,1.5895,1.5734,1.5485,1.4766,1.4686,1.4953,1.5631,1.5108,1.5261,1.6562,1.457,1.3428,1.3684,1.2185,1.1215,1.0897,1.0873,1.0873,1.0873,1.0532,1.0172,0.9804,0.9266,0.8885,0.8622,0.807,0.7664,0.7338,0.7361,0.7274,0.7144,0.741,0.7589,0.7666,0.7666,0.7666,0.7637,0.7246,0.708,0.699,0.6609,0.6457,0.6427,0.6427,0.6388,0.6388,0.6388,0.6388,0.6388,0.6427,0.6152,0.582,0.582,0.5515,0.5246,0.5246,0.5246,0.5061,0.4498,0.451,0.4701,0.5019,0.5198,0.5265,0.5216,0.526,0.5303,0.526,0.526,0.5303,0.5303,0.5303,0.5303,0.5303,0.526,0.526,0.5303,0.4735,0.4648,0.526,0.4735,0.4652,0.5265,0.5749,0.5987,0.6029,0.5896,0.4733,0.2571,0.2527,0.1595,-0.0133,-0.0178,-0.0801,0.0,0.0,0.0,0.0,0.0,0.0,2.0733,2.1199,2.1304,2.118,2.2142,2.2682,2.1542,2.0684,1.99,1.9048,1.8485,1.7855,1.7001,1.6898,1.6564,1.569,1.5566,1.5775,1.632,1.5956,1.6157,1.7283,1.5843,1.5016,1.5324,1.3579,1.2546,1.2456,1.1603,1.1071,1.0897,1.0777,1.0556,1.0235,0.986,0.9619,0.9454,0.9133,0.9023,0.9034,0.9034,0.8591,0.7856,0.8213,0.8388,0.841,0.841,0.828,0.8062,0.7927,0.753,0.708,0.6931,0.6721,0.6488,0.6488,0.6488,0.6488,0.6488,0.6488,0.6488,0.6488,0.6397,0.6275,0.6275,0.6183,0.606,0.606,0.6015,0.6027,0.637,0.6298,0.6184,0.6294,0.6678,0.6833,0.6409,0.6687,0.6959,0.6926,0.6952,0.6972,0.6972,0.6634,0.638,0.638,0.6761,0.6972,0.6972,0.6755,0.6755,0.6972,0.641,0.6325,0.693,0.7175,0.7412,0.7777,0.7412,0.6283,0.4289,0.3574,0.27,0.173,0.0931,0.0355,0.0,0.0,0.0,0.0,0.0,1.8661,1.9902,0.0,2.1274,2.12,2.2398,2.3189,2.2269,2.183,2.1207,1.9994,1.9119,1.8427,1.795,1.7861,1.7719,1.7308,1.7272,1.7369,1.7569,1.741,1.7384,1.771,1.6634,1.604,1.6232,1.4702,1.3656,1.3312,1.2448,1.1672,1.1048,1.1024,1.0883,1.0581,1.0386,1.0274,1.0235,0.9991,0.9945,1.0072,0.9944,0.9412,0.8627,0.8897,0.8926,0.8789,0.8789,0.8662,0.8477,0.8477,0.8135,0.7666,0.753,0.7325,0.7118,0.7118,0.6999,0.6918,0.7059,0.7118,0.7118,0.7118,0.7071,0.7041,0.6931,0.6773,0.6678,0.669,0.6747,0.6955,0.7668,0.7431,0.7221,0.7517,0.7889,0.8013,0.7575,0.7867,0.8144,0.8105,0.8129,0.816,0.816,0.7814,0.7565,0.7565,0.7946,0.816,0.816,0.7814,0.7697,0.787,0.7314,0.7273,0.7878,0.8234,0.8602,0.8958,0.8635,0.7852,0.6652,0.5129,0.3891,0.297,0.2125,0.1551,0.0,0.0,0.0,0.0,0.0,0.0,1.8206,1.9926,2.1713,2.1841,2.299,2.4082,2.4405,2.3656,2.2319,2.0235,1.9229,1.8694,1.8694,1.8694,1.8977,1.9761,1.985,1.9732,1.9482,1.9439,1.8996,1.7963,1.6942,1.6354,1.6354,1.5403,1.4383,1.3396,1.3343,1.2717,1.1384,1.1347,1.1224,1.0897,1.092,1.092,1.0897,1.0581,1.0421,1.0409,1.0072,0.975,0.9422,0.9422,0.9182,0.8844,0.8844,0.8816,0.8816,0.8816,0.8816,0.8761,0.8421,0.8319,0.8319,0.8319,0.8062,0.7812,0.8205,0.8319,0.8319,0.8319,0.8277,0.8132,0.782,0.7385,0.7065,0.7134,0.7431,0.7816,0.8154,0.7823,0.7702,0.8544,0.8699,0.874,0.874,0.8748,0.8756,0.8797,0.8797,0.8756,0.8756,0.8756,0.8716,0.8716,0.8716,0.8716,0.8716,0.7702,0.7335,0.7912,0.7384,0.7335,0.7912,0.8958,0.9518,0.9558,0.9518,0.9518,0.9518,0.7294,0.5341,0.3585,0.3585,0.297,1.556,0.0,0.0,0.0,0.0,0.0,1.8849,2.0067,2.1046,2.1094,2.233,2.3464,2.3619,2.3286,2.2885,2.2523,2.1596,2.0916,2.0916,2.0916,2.0934,2.0967,2.0966,2.0851,2.059,2.0569,2.0271,1.9587,1.8461,1.7864,1.7962,1.6627,1.5413,1.4437,1.4383,1.3858,1.277,1.2755,1.2224,1.1196,1.1437,1.1324,1.0897,1.101,1.0963,1.0777,1.0667,1.0434,1.0097,0.9867,0.9686,0.9595,0.9595,0.9449,0.9235,0.9235,0.9035,0.8789,0.8679,0.8662,0.8662,0.8662,0.8568,0.8523,0.8623,0.8662,0.8662,0.8662,0.8651,0.8612,0.8529,0.8406,0.8305,0.8327,0.8158,0.8211,0.8969,0.8718,0.8424,0.87,0.9065,0.9469,0.9859,1.0123,1.0426,1.0885,1.0588,1.0301,1.0301,0.9651,0.9195,0.9195,0.9262,0.9279,0.9279,0.8981,0.8901,0.9039,0.8545,0.8456,0.9039,0.9359,0.9825,1.0552,1.0196,0.9992,0.9992,0.7844,0.6525,0.6035,0.5604,0.499,0.0,0.0,0.0,0.0,0.0,0.0,1.7719,1.9689,2.1392,2.1117,2.2612,2.3846,2.3568,2.3337,2.3269,2.3499,2.2984,2.2424,2.2058,2.2006,2.2054,2.2188,2.219,2.2045,2.1716,2.1675,2.1353,2.0583,1.987,1.9321,1.8961,1.7966,1.6774,1.5468,1.5435,1.4939,1.3949,1.3605,1.3087,1.2303,1.2194,1.1903,1.1445,1.1461,1.1327,1.1071,1.0944,1.0801,1.0581,1.0235,1.0021,0.9905,0.9905,0.9776,0.9607,0.9607,0.9475,0.9251,0.9089,0.9035,0.9035,0.9035,0.8926,0.8844,0.9008,0.9035,0.9035,0.9035,0.9035,0.9035,0.9035,0.9035,0.9065,0.9074,0.8998,0.9064,0.9629,0.9372,0.9096,0.9308,0.9783,1.0235,1.0537,1.0985,1.1398,1.1737,1.1483,1.1276,1.1276,1.0778,1.0397,1.0397,1.0456,1.0475,1.0475,1.0234,1.006,1.006,0.9787,0.9748,1.007,1.0312,1.0743,1.1319,1.1035,1.075,1.0502,0.9015,0.8051,0.7609,0.6816,0.6253,0.0,0.0,0.0,0.0,1.5303,0.0,1.5837,1.8821,2.1669,2.1187,2.2811,2.4144,2.3624,2.3358,2.329,2.3494,2.3504,2.325,2.2539,2.2514,2.2771,2.3254,2.3406,2.3297,2.2884,2.2824,2.2381,2.1335,2.1128,2.0607,1.9625,1.9167,1.8262,1.6692,1.6531,1.5978,1.4978,1.432,1.3891,1.3689,1.3027,1.2534,1.219,1.1921,1.1629,1.1341,1.1141,1.1015,1.092,1.0629,1.0285,0.9944,0.9931,0.9931,0.9944,0.9944,0.9944,0.9919,0.9607,0.9475,0.9461,0.9461,0.9209,0.8981,0.9343,0.9461,0.9449,0.9502,0.9502,0.9528,0.9555,0.9528,0.9542,0.9597,0.9759,0.9962,1.0046,0.978,0.9612,1.0006,1.052,1.09,1.09,1.1511,1.1957,1.1957,1.1957,1.1957,1.1957,1.192,1.1884,1.1884,1.1811,1.1811,1.1811,1.1313,1.0993,1.0993,1.1058,1.1058,1.1058,1.1608,1.197,1.2006,1.1982,1.1729,1.1296,1.0565,0.9664,0.8654,0.7762,0.7346,0.0,0.0,0.0,0.0,1.4599,0.0,1.6082,1.7169,1.826,1.8998,1.9612,2.0364,2.1569,2.1665,2.1905,2.2959,2.2977,2.2985,2.3309,2.3914,2.41,2.354,2.4072,2.4471,2.4376,2.4215,2.3781,2.2932,2.1899,2.1139,2.0717,1.98,1.9134,1.8819,1.7968,1.7026,1.6033,1.5863,1.5076,1.3705,1.356,1.303,1.2205,1.236,1.2159,1.1703,1.1876,1.1666,1.1219,1.1159,1.0808,1.0285,1.0021,1.0072,1.031,1.031,1.031,1.0285,1.0235,1.0034,0.9802,0.9802,0.9738,0.9712,0.9764,0.9802,0.9867,1.0135,1.0197,1.0285,1.0545,1.0409,1.0211,1.0225,0.9847,0.9602,0.9888,0.9677,0.952,0.9861,1.0487,1.0987,1.0987,1.2046,1.2943,1.2943,1.2943,1.2943,1.2943,1.2615,1.2354,1.2354,1.2029,1.1811,1.1811,1.1689,1.1605,1.1605,1.1925,1.2129,1.2129,1.254,1.2954,1.3411,1.3039,1.3175,1.3776,1.1737,1.0444,0.9876,1.0031,1.0238,0.0,0.0,0.0,1.1947,1.2993,0.0,0.0,1.5836,1.7224,1.7667,1.8581,1.961,2.057,2.0754,2.1114,2.2218,2.2322,2.2356,2.261,2.3694,2.4396,2.4252,2.4664,2.4898,2.4818,2.4714,2.4452,2.395,2.307,2.2319,2.1803,2.0969,2.0164,1.9421,1.8705,1.7929,1.706,1.6675,1.6058,1.5201,1.445,1.3753,1.3123,1.2902,1.2572,1.2215,1.2336,1.2154,1.1753,1.1571,1.1244,1.0831,1.0508,1.0496,1.0667,1.0667,1.0667,1.0667,1.0667,1.0545,1.0398,1.0398,1.0621,1.091,1.091,1.091,1.0869,1.0699,1.0667,1.0691,1.0873,1.0777,1.0605,1.0434,1.0147,0.9957,1.011,0.9893,0.979,1.0298,1.0763,1.1153,1.1271,1.2361,1.3198,1.3198,1.3198,1.3198,1.3198,1.2978,1.2931,1.3182,1.2998,1.2916,1.3144,1.3144,1.3221,1.3385,1.3605,1.369,1.369,1.4029,1.4359,1.4631,1.4073,1.4183,1.5005,1.3434,1.233,1.1651,1.181,1.199,0.0,0.0,0.9932,1.0171,1.1348,1.2427,0.0,0.0,0.0,1.618,1.7517,1.8821,0.0,0.0,0.0,2.0915,2.1326,0.0,0.0,2.2695,2.3798,2.4293,2.4543,2.463,2.4473,2.456,2.4613,2.4556,2.4118,2.359,2.2991,2.2216,2.1248,2.0047,1.9493,1.8835,1.8104,1.7449,1.6987,1.6682,1.5358,1.4484,1.4073,1.3381,1.2889,1.261,1.2649,1.2514,1.2251,1.1921,1.1665,1.1431,1.1048,1.092,1.0991,1.0991,1.0991,1.0991,1.0991,1.0944,1.0897,1.0897,1.1277,1.1704,1.1704,1.1704,1.1632,1.1188,1.1057,1.1071,1.1141,1.1094,1.0963,1.064,1.0519,1.0508,1.0508,1.0285,1.0248,1.0801,1.1116,1.1413,1.1741,1.2628,1.3297,1.3433,1.3459,1.3459,1.3459,1.3459,1.3615,1.4,1.4019,1.4149,1.447,1.455,1.471,1.4973,1.5139,1.5228,1.5228,1.556,1.5755,1.5755,1.5139,1.5123,1.5755,1.508,1.4314,1.3434,1.3323,1.337,0.9627,0.9345,0.9313,1.0172,1.0578,1.095,1.1569,0.0,1.2973,1.3444,0.0,1.5009,1.6174,0.0,0.0,0.0,1.9633,2.0601,2.0482,2.1287,2.1913,2.1984,2.2672,2.3164,2.3209,2.3681,2.4205,2.4733,2.4543,2.4371,2.4278,2.3139,2.2407,2.2247,2.0982,1.9975,1.9235,1.8836,1.8003,1.6699,1.5866,1.4989,1.4073,1.3578,1.3086,1.261,1.2834,1.2797,1.2533,1.2256,1.2128,1.2024,1.121,1.1048,1.1265,1.1265,1.1265,1.1265,1.1265,1.1094,1.0897,1.0897,1.0952,1.0993,1.0993,1.0993,1.1085,1.1505,1.1614,1.1672,1.1988,1.1831,1.1527,1.1259,1.1024,1.0849,1.0849,1.0801,1.0801,1.0897,1.1305,1.183,1.2457,1.3084,1.368,1.426,1.4342,1.4342,1.4342,1.4342,1.4374,1.4438,1.4438,1.4438,1.4501,1.4758,1.4943,1.5003,1.5662,1.6068,1.6068,1.6438,1.6654,1.6654,1.6235,1.6235,1.6654,1.6037,1.5366,1.461,1.4722,1.5037,0.9923,0.9886,0.988,0.9965,1.0468,1.1032,1.1269,1.1465,1.1807,1.2493,0.0,0.0,0.0,0.0,0.0,0.0,1.851,1.9137,1.955,1.9912,2.0709,2.2172,2.2719,2.3166,2.3692,2.3424,2.3505,2.4224,2.41,2.3911,2.3752,2.3529,2.3155,2.2616,2.1648,2.0576,1.9421,1.9064,1.8369,1.732,1.6576,1.6011,1.5593,1.4948,1.4336,1.3714,1.3824,1.3483,1.2815,1.2703,1.2569,1.2396,1.202,1.176,1.1579,1.1579,1.1579,1.1601,1.1775,1.1753,1.1704,1.2111,1.223,1.223,1.223,1.2351,1.2423,1.2257,1.2229,1.2249,1.2396,1.234,1.2262,1.2362,1.1874,1.1583,1.2395,1.1708,1.1224,1.2375,1.2295,1.2448,1.3704,1.3699,1.375,1.4405,1.4501,1.4501,1.4501,1.4501,1.4596,1.4814,1.4845,1.5059,1.5492,1.6068,1.6386,1.6327,1.6813,1.7228,1.7575,1.7392,1.7379,1.7608,1.7212,1.7212,1.7608,1.7129,1.6936,1.6997,1.646,1.6403,1.0374,1.0355,1.0321,0.9981,1.0446,1.0976,1.0982,1.0908,1.1044,1.1781,1.2112,0.0,0.0,0.0,0.0,0.0,0.0,1.8004,1.8358,1.8797,1.9841,2.1932,2.2457,2.2889,2.3528,2.3077,2.2998,2.3576,2.3637,2.3569,2.3367,2.3854,2.3823,2.3141,2.2513,2.1411,1.9847,1.951,1.8818,1.7794,1.705,1.6699,1.6665,1.5731,1.502,1.4477,1.4293,1.3781,1.3103,1.3031,1.2887,1.2687,1.263,1.2356,1.2024,1.194,1.1897,1.1955,1.2128,1.2251,1.2369,1.2799,1.2976,1.3003,1.2954,1.311,1.3247,1.2829,1.2722,1.2754,1.2967,1.3015,1.3118,1.3531,1.3081,1.2829,1.3852,1.2894,1.2245,1.366,1.3361,1.3253,1.4588,1.4283,1.4079,1.476,1.4845,1.4845,1.4845,1.4845,1.4998,1.5389,1.5419,1.571,1.6367,1.7289,1.7964,1.8289,1.8295,1.8471,1.8923,1.8249,1.8004,1.831,1.8021,1.8045,1.8358,1.8385,1.8632,1.9039,1.7931,1.7548,1.0928,1.0496,1.0231,1.0369,1.0274,1.0243,1.0614,1.0463,1.0387,1.0933,1.1248,1.1754,1.279,0.0,0.0,0.0,0.0,0.0,0.0,1.803,1.9347,2.0266,2.1197,2.1753,2.1777,2.2457,2.2893,2.2927,2.3477,2.3793,2.3774,2.4234,2.4476,2.4441,2.3906,2.2776,2.0975,2.063,1.9562,1.7794,1.705,1.6699,1.6648,1.5206,1.4511,1.4461,1.3735,1.343,1.3363,1.3103,1.2979,1.2961,1.2687,1.2591,1.2553,1.2291,1.2205,1.2205,1.2205,1.2372,1.2553,1.2323,1.2403,1.2565,1.2302,1.2423,1.2681,1.2906,1.2995,1.3143,1.3873,1.4038,1.416,1.4632,1.4734,1.4712,1.476,1.4458,1.421,1.428,1.4241,1.4353,1.4743,1.4782,1.4979,1.5665,1.577,1.577,1.577,1.577,1.5898,1.6246,1.6258,1.6394,1.6763,1.8053,1.9424,2.0806,2.0149,1.9741,1.9759,1.8993,1.8566,1.8585,1.8566,1.8644,1.8768,1.987,2.0365,2.0221,1.8878,1.8449,1.1863,1.1799,1.1663,1.1335,1.163,1.1962,1.1792,1.1336,1.1013,1.1324,1.1224,1.1271,1.192,0.0,0.0,0.0,0.0,0.0,0.0,1.8754,1.9992,2.0323,2.0698,2.1116,2.1655,2.1462,2.1525,0.0,2.2248,0.0,2.2078,2.3199,2.3683,2.3326,2.3551,2.3063,2.1732,2.091,1.9958,1.8849,1.7888,1.7422,1.7388,1.6407,1.568,1.5189,1.4445,1.3853,1.3396,1.3311,1.326,1.326,1.3157,1.3015,1.2834,1.2553,1.2455,1.2475,1.2665,1.2794,1.285,1.2757,1.2794,1.285,1.2757,1.2924,1.3139,1.3243,1.326,1.3327,1.3562,1.363,1.3914,1.5058,1.4817,1.4726,1.6151,1.5489,1.489,1.5781,1.5599,1.5479,1.603,1.6129,1.6144,1.6133,1.6136,1.6219,1.6421,1.6448,1.6501,1.6607,1.6633,1.7052,1.8094,1.9487,2.0795,2.1908,2.1406,2.1113,2.1248,2.1115,2.0982,2.0855,2.0982,2.1012,2.093,2.1438,2.1671,2.1634,2.1296,2.0806,1.2428,1.2477,1.2401,1.1942,1.2258,1.2617,1.2388,1.184,1.1472,1.1684,1.1443,1.1344,1.1915,0.0,0.0,0.0,0.0,0.0,0.0,1.8599,1.9609,1.9749,2.0408,2.0957,0.0,0.0,2.0987,0.0,0.0,0.0,0.0,2.2691,2.3296,2.2811,2.3388,2.3167,2.2118,2.1027,2.0124,1.9404,1.84,1.7883,1.7777,1.685,1.6135,1.5544,1.4546,1.3836,1.3396,1.3396,1.3396,1.3396,1.3396,1.3278,1.3121,1.2834,1.2741,1.2778,1.3051,1.3138,1.317,1.3347,1.3266,1.317,1.3347,1.3427,1.3462,1.3413,1.3429,1.3513,1.3752,1.3785,1.4157,1.5629,1.5496,1.5475,1.7113,1.6532,1.5931,1.6799,1.6629,1.6427,1.6761,1.6917,1.685,1.6528,1.6474,1.6554,1.6763,1.6789,1.6841,1.6968,1.6993,1.7707,1.9487,2.0834,2.2006,2.3039,2.2592,2.2314,2.2458,2.2359,2.2111,2.1685,2.2092,2.2117,2.1745,2.2483,2.2878,2.2943,2.307,2.2573]}]]